GFSWCAN_sfc_thetae_000.txt.gz
Theta_e
299 300 299 300 300 299 300 300 300 299 300 299 298 299 300 300 300 297 292 292 289 284 283 282 283 279 278 275 269 270 271 270 270 262 259 269 262 270 267 270 269 267 260 256 254 254 257 275 273 268 271 274 274 275
299 300 299 299 300 300 300 300 299 300 299 299 299 299 299 300 299 299 291 293 293 286 283 284 286 287 285 282 277 271 274 266 274 268 264 264 260 261 263 259 272 264 269 262 265 264 275 277 275 279 277 274 276 277
298 299 299 299 299 299 299 299 299 299 299 299 299 298 299 299 299 297 292 292 290 285 284 284 282 286 287 286 287 278 273 280 277 279 273 273 268 270 262 262 267 271 274 271 271 274 275 277 279 278 278 278 278 278
298 298 298 298 298 298 299 299 299 299 299 298 298 298 298 298 298 298 291 293 290 285 278 277 281 282 286 287 285 285 283 281 281 280 277 274 271 277 272 273 271 273 272 270 271 275 276 277 278 279 279 278 276 276
297 297 297 297 298 298 298 298 298 298 298 298 297 297 297 297 297 296 293 293 292 285 277 273 274 280 283 284 283 284 283 281 281 278 276 273 276 276 275 275 272 275 273 271 269 276 275 276 279 277 276 275 273 272
296 296 296 297 297 297 297 297 297 297 297 297 297 297 296 296 296 290 284 291 293 292 281 275 279 274 279 281 280 281 281 281 280 278 277 278 280 277 272 270 276 277 278 278 275 279 278 278 275 272 271 270 271 269
295 295 295 296 296 296 296 297 297 297 297 297 297 296 296 296 291 286 283 284 294 292 282 276 274 272 278 278 275 278 280 279 279 278 276 277 277 278 274 270 276 277 277 278 274 272 275 273 271 269 269 268 267 266
294 294 294 295 295 295 296 296 296 297 296 296 296 296 296 296 294 288 292 294 293 286 283 274 269 266 274 269 271 278 276 278 279 277 275 275 277 277 271 276 278 278 272 269 267 268 267 267 267 266 266 265 262 263
293 293 294 294 294 294 295 295 296 296 296 296 296 295 291 288 284 286 294 295 292 285 276 274 264 262 276 274 276 272 277 271 278 274 275 274 271 269 273 276 275 264 265 263 263 264 263 262 262 263 261 261 259 260
291 292 293 293 294 293 294 295 295 295 295 295 292 284 280 284 292 292 288 283 282 282 280 274 261 262 275 273 269 269 275 272 268 270 275 272 271 276 267 264 263 262 261 261 259 260 257 257 258 259 258 259 259 259
290 291 291 292 293 293 293 294 294 294 294 287 283 280 283 291 282 281 277 276 277 273 277 271 269 267 275 270 271 274 270 268 264 264 266 261 258 269 262 261 262 261 260 258 257 258 258 257 257 257 257 257 257 256
289 290 290 291 292 292 293 293 293 290 286 286 285 286 286 281 277 274 272 273 271 268 265 268 272 276 274 275 270 272 269 268 263 260 266 263 266 259 258 258 258 257 255 254 255 255 256 257 257 256 255 254 255 255
289 289 289 290 291 292 292 292 292 292 291 285 281 278 278 276 270 268 264 263 261 260 261 265 269 272 273 275 272 271 267 264 258 262 262 261 257 255 253 254 254 254 253 253 253 254 254 254 254 253 253 254 253 253
288 289 289 289 290 290 291 291 292 290 285 278 275 270 270 268 266 264 261 260 265 264 261 264 266 270 268 270 271 266 265 265 262 261 257 255 251 250 251 253 248 249 248 250 250 251 251 252 252 252 252 252 252 251
288 289 289 288 289 290 290 291 290 288 282 276 274 268 269 258 254 250 250 258 262 265 268 265 263 273 264 268 271 266 263 262 263 259 256 250 251 252 252 249 246 246 248 248 248 248 249 250 250 250 250 250 250 253
288 286 282 288 288 289 290 289 286 285 280 277 272 266 256 258 252 252 249 254 259 267 263 265 263 268 266 268 267 265 262 258 260 250 249 252 251 250 246 244 246 246 245 245 246 246 249 248 248 250 250 249 252 254
287 281 287 288 288 288 289 279 279 273 270 267 261 257 259 262 262 253 253 257 263 262 258 265 265 263 267 263 259 258 258 254 248 250 250 249 247 245 244 243 244 243 244 244 242 244 245 246 246 245 247 250 254 256
271 278 286 288 286 283 275 273 269 267 261 259 260 250 251 248 249 251 253 260 263 264 264 264 265 261 260 258 256 255 248 243 243 244 246 245 242 241 240 242 244 243 243 244 244 244 241 245 247 251 254 256 256 256
282 282 286 286 284 276 270 264 266 260 251 248 253 254 252 250 255 255 254 260 260 259 262 262 263 258 256 248 246 241 239 241 244 247 246 244 245 242 242 243 243 243 243 242 244 247 250 253 255 255 256 256 255 256
282 283 285 285 281 271 265 262 265 260 250 253 253 251 252 254 253 252 255 258 260 259 261 259 254 246 248 245 244 244 245 247 243 241 243 247 247 242 244 243 245 244 245 246 250 254 254 254 254 255 255 256 256 255
276 276 278 273 269 266 263 262 258 259 257 255 256 256 253 254 252 252 253 254 258 257 251 242 240 239 238 237 239 240 246 247 243 243 244 244 246 245 245 245 245 246 249 251 251 252 253 252 253 254 255 255 256 256
270 275 270 271 266 263 260 260 258 258 255 252 254 254 253 253 252 251 250 251 248 244 242 242 240 238 239 241 241 238 239 238 238 242 246 246 246 247 246 246 249 250 251 251 251 251 252 253 253 253 253 254 255 255
268 268 264 263 262 260 255 260 256 254 255 253 252 253 251 249 247 253 250 242 242 242 237 237 236 235 239 237 236 237 236 240 241 243 245 248 250 251 251 251 251 251 251 251 252 252 251 253 252 252 252 252 252 252
262 254 253 254 257 254 253 253 254 253 251 248 246 244 243 241 247 246 245 239 241 239 238 238 237 241 240 241 241 242 243 242 243 244 246 250 251 251 252 252 252 252 251 251 251 251 252 251 252 251 251 249 249 248
256 247 248 246 247 251 249 246 245 247 245 242 244 244 244 240 244 243 244 242 238 238 239 236 237 240 241 239 241 242 242 245 247 247 250 251 251 251 252 252 253 252 251 250 250 249 249 249 249 249 249 246 246 246
243 241 243 237 243 245 242 243 241 242 241 242 241 239 237 240 243 245 243 241 238 240 240 244 245 242 243 245 246 248 249 251 251 250 252 253 252 251 249 250 249 251 251 249 247 247 247 248 247 248 248 248 248 245
242 240 241 241 241 240 241 240 239 241 241 243 239 241 241 244 243 246 242 242 242 242 244 248 249 248 247 246 249 250 251 252 252 252 251 250 251 251 251 250 250 251 250 249 248 247 246 247 247 248 248 247 242 242
240 238 242 240 239 236 238 237 239 241 240 239 240 244 245 246 246 246 247 246 243 245 246 246 247 248 248 251 251 253 252 251 249 250 250 251 250 251 251 252 252 256 253 251 250 249 247 247 246 246 246 247 248 242
240 237 238 241 240 243 240 241 240 238 239 237 242 242 243 243 242 241 244 247 244 247 247 248 249 249 251 251 251 252 251 250 249 249 248 249 249 251 251 251 251 250 249 247 252 254 251 248 248 248 249 247 246 240
240 236 243 241 242 242 239 236 236 233 232 235 235 240 241 241 240 240 242 244 246 247 246 247 248 251 250 250 249 249 246 248 250 250 247 247 248 247 243 244 246 246 242 240 245 246 249 246 245 242 242 243 243 242
233 233 237 237 240 236 233 229 228 230 230 230 228 235 238 236 240 239 241 243 244 244 246 245 243 240 243 241 242 242 246 244 244 246 245 245 244 244 245 246 246 244 241 242 243 242 243 242 241 242 243 244 245 245
233 233 237 241 239 234 230 230 229 233 231 233 235 229 236 238 242 244 242 239 239 240 243 241 241 247 244 246 242 243 247 243 242 246 246 247 248 249 249 248 246 243 243 245 244 244 243 243 244 245 246 246 246 245
232 230 229 234 237 238 234 234 235 236 234 234 235 231 231 235 242 244 243 238 242 242 242 244 244 241 242 243 246 247 249 248 247 253 255 254 253 253 250 249 247 246 246 246 246 246 246 245 246 246 246 246 247 247

GFSWCAN_sfc_thetae_003.txt.gz
Theta_e
300 300 300 300 300 300 301 301 300 301 301 301 301 301 301 301 301 297 292 291 289 283 282 282 283 278 278 275 269 270 271 270 269 262 259 268 261 269 266 269 268 267 259 254 253 256 260 273 273 268 271 275 274 275
300 299 300 300 300 300 300 300 300 301 301 301 300 300 300 300 301 300 291 293 294 286 281 284 286 287 284 281 277 269 273 266 274 267 263 265 260 263 264 260 271 265 269 263 265 264 274 276 275 278 279 276 277 276
297 298 299 299 299 300 300 300 300 300 300 300 300 300 300 300 300 298 291 291 290 285 284 283 282 285 286 286 286 277 271 278 277 279 272 273 268 270 260 262 266 271 273 270 271 274 275 277 279 279 278 277 278 278
296 297 297 298 299 299 299 299 300 300 300 300 300 300 300 299 299 299 292 293 291 286 279 278 281 282 286 287 285 285 283 280 281 280 277 273 266 276 271 272 271 273 272 270 271 275 276 277 278 279 279 278 277 275
296 296 296 297 298 298 298 299 299 299 299 299 299 299 299 299 299 296 293 293 294 286 278 278 277 280 283 285 283 283 282 280 280 277 276 273 274 275 272 274 272 276 273 271 270 276 275 276 279 277 277 276 273 272
295 296 296 296 296 297 297 298 298 298 298 298 299 298 299 298 298 290 285 291 294 292 282 276 279 274 278 281 282 281 282 281 281 278 277 277 279 277 271 268 275 277 278 278 276 279 278 279 273 272 272 270 270 269
294 295 295 295 295 296 296 297 297 297 297 298 298 298 298 298 293 286 282 286 294 292 282 277 274 274 278 277 274 278 280 280 280 278 276 276 276 278 274 269 276 278 278 278 277 273 275 273 271 269 269 268 267 266
293 293 294 294 294 295 295 296 296 296 297 297 298 298 298 298 296 289 291 294 293 287 284 275 271 265 274 270 271 278 276 278 278 277 274 274 275 276 270 275 277 278 278 272 268 268 268 267 267 266 265 264 262 263
292 292 292 293 293 294 294 295 295 296 296 297 297 297 294 291 285 284 295 295 292 286 277 275 270 264 274 273 274 271 277 271 278 273 274 273 266 267 271 275 276 273 269 266 264 264 264 263 263 262 261 260 259 260
290 291 291 292 292 293 293 294 295 295 295 296 293 285 282 285 293 293 287 283 283 282 280 274 261 263 274 271 268 270 273 270 267 271 275 271 269 275 274 264 264 263 262 262 261 260 258 257 259 259 258 259 259 259
289 290 290 290 291 292 293 293 294 294 294 288 284 281 284 292 283 281 277 276 276 274 278 271 267 264 272 269 270 275 271 272 267 265 267 255 257 270 263 261 262 261 260 258 258 258 258 257 257 257 257 257 257 256
289 289 289 290 290 291 292 293 293 290 287 287 286 287 286 282 278 274 273 273 268 265 263 265 267 273 273 276 272 273 270 270 266 257 260 255 265 263 260 259 258 257 256 255 255 255 256 257 257 255 255 254 254 255
289 289 289 289 290 290 291 292 293 292 291 285 282 278 278 276 270 269 265 262 259 257 261 264 267 272 274 276 273 272 268 266 259 261 259 262 261 255 254 255 254 254 254 254 253 253 253 253 253 252 252 253 253 252
289 289 289 289 289 290 290 291 292 291 285 278 275 270 271 269 271 265 264 264 265 265 264 265 263 269 273 272 273 267 267 264 261 257 257 261 253 251 252 252 250 251 250 250 249 250 251 251 251 251 251 251 250 250
288 288 289 288 289 289 290 290 291 289 282 276 275 269 270 260 253 250 248 259 258 263 268 265 265 274 269 270 272 268 262 260 259 259 259 251 251 251 251 250 248 249 248 246 246 246 248 249 248 248 248 247 247 248
288 288 283 288 289 289 289 289 287 285 281 277 271 267 261 261 256 254 250 259 260 266 263 267 265 268 267 268 267 264 260 257 262 253 248 252 250 250 248 248 249 245 244 244 244 244 247 247 247 247 246 247 247 247
287 275 286 288 288 288 288 283 282 271 272 268 263 259 262 264 265 262 261 261 265 264 262 264 263 263 267 265 262 258 259 259 247 245 249 250 250 250 248 242 242 243 243 242 241 241 242 244 241 241 244 248 247 250
277 278 287 287 285 281 273 271 271 268 262 259 264 258 256 254 256 257 256 262 265 264 262 262 266 262 260 258 255 254 247 244 246 250 250 247 244 240 240 241 242 241 242 242 240 241 240 242 244 247 247 249 253 255
281 282 286 286 283 273 269 264 265 260 253 251 255 255 255 254 255 255 254 260 260 260 262 262 263 261 258 251 249 244 241 247 247 249 247 243 245 241 241 240 241 241 241 241 242 244 245 245 248 251 254 256 255 256
282 282 282 282 279 271 264 262 265 259 256 255 251 250 252 252 253 252 253 259 260 261 262 258 258 249 250 247 247 245 246 247 245 242 244 247 246 241 243 242 244 242 242 242 243 249 247 250 253 254 255 256 255 255
275 274 278 273 269 266 263 260 255 257 256 252 252 253 251 251 248 248 251 255 259 260 256 246 243 245 242 239 239 240 246 247 244 244 245 244 245 244 243 243 242 242 243 243 244 249 252 252 253 254 254 254 255 256
269 275 268 273 266 260 258 258 256 258 254 250 252 252 247 248 248 250 252 254 254 247 249 247 244 239 239 241 240 237 238 238 237 242 245 245 246 248 248 248 249 246 246 248 250 251 252 253 253 253 253 253 254 254
268 269 265 265 261 257 254 257 251 251 253 250 251 253 250 249 249 253 255 248 246 243 238 237 236 234 237 235 235 235 235 239 239 239 241 244 247 249 251 250 251 250 250 252 252 252 252 253 253 252 252 252 252 252
262 255 254 253 256 253 253 252 254 250 250 251 252 251 249 247 248 251 251 243 242 238 237 236 236 239 239 240 239 239 238 237 239 240 240 243 245 249 251 252 251 251 252 252 252 252 252 251 252 252 252 250 250 249
256 247 250 248 249 249 249 249 250 253 251 247 249 248 244 238 244 243 245 242 238 237 238 234 236 239 240 237 238 239 238 244 246 245 246 247 249 250 251 252 252 252 252 251 251 250 250 250 250 250 250 249 248 248
244 241 244 238 244 248 246 248 247 246 242 242 241 239 237 243 246 247 243 241 238 239 239 242 243 240 241 243 247 247 248 248 249 249 250 252 252 251 250 250 250 251 252 251 249 249 249 250 249 249 249 249 250 248
242 240 241 241 242 242 243 242 241 241 241 243 240 241 241 245 244 246 243 242 242 240 242 244 247 248 248 246 246 247 249 252 252 252 251 251 252 252 252 250 250 252 251 250 249 248 248 248 248 249 249 249 248 247
239 237 241 240 239 235 239 239 240 241 240 239 239 243 246 247 246 247 247 248 241 241 244 245 247 248 247 249 251 253 252 252 251 251 251 251 251 251 251 252 253 257 251 250 250 250 249 248 248 247 247 247 249 246
243 237 237 241 239 240 238 239 239 237 239 237 243 246 247 247 244 242 248 245 242 246 247 247 247 247 249 251 253 252 252 251 250 249 248 249 249 251 250 250 251 251 250 249 253 255 251 249 249 249 249 248 248 241
242 238 245 246 246 245 241 238 236 232 232 234 235 241 243 242 242 241 239 240 244 245 245 247 248 251 251 251 251 249 246 247 248 249 246 246 247 246 242 243 245 245 243 241 247 247 250 248 246 243 244 244 243 244
233 233 238 237 240 237 234 231 228 229 229 230 227 234 236 236 240 239 241 241 242 242 245 246 246 247 249 248 244 243 246 244 242 245 244 244 244 245 245 246 246 245 244 244 244 244 245 243 242 243 243 244 245 246
234 233 237 240 239 233 229 229 229 232 230 233 235 229 236 240 245 247 246 243 244 246 248 245 244 247 244 244 241 241 246 243 245 248 248 248 248 248 249 249 246 244 243 245 245 245 244 243 245 245 246 245 245 245
238 236 236 238 239 238 234 233 235 236 234 234 235 230 230 236 245 246 245 241 243 241 241 241 242 241 242 243 244 246 250 251 250 254 255 255 253 253 251 249 248 246 246 246 247 246 245 245 246 246 246 246 247 247

GFSWCAN_sfc_thetae_006.txt.gz
Theta_e
300 300 300 301 301 301 301 301 301 302 302 302 301 302 302 301 302 296 293 296 290 284 285 285 286 282 281 281 277 276 277 276 276 273 271 272 271 272 271 273 272 271 270 268 266 266 265 278 277 273 278 281 281 280
298 299 300 300 300 300 300 300 301 301 301 301 301 301 302 302 301 301 292 294 295 287 286 288 289 289 288 286 284 276 280 275 279 276 273 274 270 271 271 268 274 270 274 272 271 272 278 280 280 281 282 281 281 281
297 297 297 298 299 300 300 300 301 300 301 301 300 301 301 301 301 300 295 293 291 285 285 285 284 288 289 289 290 281 279 282 280 283 277 276 271 275 270 270 273 276 278 273 274 277 278 280 282 282 282 282 282 282
296 296 296 297 297 298 299 299 300 300 301 301 301 301 300 300 300 300 293 293 291 287 280 284 285 286 290 290 288 288 286 283 284 282 279 276 273 278 274 275 273 276 276 274 274 277 278 280 281 282 282 283 282 281
295 295 296 296 296 297 297 298 299 299 299 300 300 300 300 300 300 299 296 295 294 287 281 281 281 284 288 288 287 287 285 283 281 278 277 275 278 277 278 276 274 278 275 273 272 278 278 278 282 283 280 280 278 276
294 295 295 295 296 296 296 297 297 298 298 298 299 299 299 299 299 293 285 292 295 292 283 278 284 281 283 286 285 284 284 283 282 280 279 280 281 277 273 272 277 279 280 280 277 281 281 281 282 279 277 275 273 271
294 294 295 295 295 296 296 296 296 297 297 298 298 298 299 299 296 286 285 290 295 294 283 279 278 279 280 282 282 283 284 283 282 280 278 278 278 279 275 271 277 279 280 280 281 280 278 280 278 272 272 270 269 267
292 293 293 294 294 295 295 295 295 296 296 297 297 297 298 298 297 290 293 295 295 288 284 277 275 274 278 276 277 281 279 281 280 279 279 277 278 277 272 277 279 280 280 280 279 274 274 271 270 269 267 266 265 265
291 292 292 293 293 293 294 294 294 295 295 296 296 297 294 292 286 287 295 295 293 287 279 278 273 270 276 276 278 277 279 274 279 275 276 277 274 271 275 277 277 278 277 278 269 268 267 268 267 265 263 263 262 263
290 291 291 291 292 292 292 293 293 294 295 295 293 286 283 285 295 294 289 284 283 283 283 276 274 272 276 274 273 274 276 273 270 273 277 273 272 277 278 277 274 270 268 267 266 264 262 263 264 263 261 261 261 261
290 290 290 290 290 291 291 292 293 293 294 288 284 283 288 293 287 283 279 278 279 276 279 276 275 270 275 272 272 276 273 274 269 271 271 270 268 274 277 268 266 265 264 261 262 261 261 260 260 260 260 260 259 258
289 289 289 289 289 290 290 291 292 290 287 287 287 288 286 282 280 276 274 276 275 273 272 272 272 277 275 278 274 274 271 272 267 268 269 266 270 271 265 262 260 260 260 258 258 258 257 258 258 257 257 256 256 256
289 289 289 290 290 290 290 291 291 292 292 286 283 279 279 278 272 270 268 268 269 266 269 270 271 275 276 277 274 273 269 268 266 266 265 268 269 260 258 257 255 255 255 255 255 255 255 255 255 254 254 255 255 254
288 289 289 289 289 289 290 290 291 290 285 279 277 271 273 271 272 270 270 269 272 271 268 270 270 272 274 273 274 269 269 266 264 262 263 270 263 256 255 254 253 253 252 253 253 253 253 253 253 253 253 253 252 251
287 288 289 289 289 289 289 290 290 288 283 277 276 270 271 266 262 261 259 268 268 272 272 270 269 274 271 271 272 269 263 263 264 264 268 262 255 253 253 252 251 251 252 251 251 250 251 251 251 250 251 250 250 250
288 287 284 289 289 289 289 289 286 285 282 278 272 267 261 265 262 260 259 263 263 272 272 272 270 269 268 269 267 265 263 261 266 265 258 254 252 252 251 250 250 250 249 250 250 249 250 249 249 250 249 249 250 250
285 280 286 288 288 287 287 284 282 272 271 269 266 260 262 267 267 263 263 265 268 270 269 270 267 267 270 267 265 265 264 268 260 253 253 253 252 251 250 249 250 250 248 248 248 248 248 249 246 247 250 254 252 253
274 280 286 287 284 279 269 270 271 269 263 260 263 259 258 256 258 258 260 264 269 270 269 269 270 266 265 262 262 264 255 250 251 252 252 250 249 247 248 250 247 247 247 246 246 246 246 247 250 253 251 253 253 255
280 282 286 286 280 273 269 266 266 261 256 255 257 257 257 256 258 258 259 262 263 263 266 267 266 264 263 263 262 253 251 252 252 251 251 249 251 249 248 246 246 247 247 248 249 251 251 249 251 253 254 255 256 257
282 282 282 280 278 271 264 261 263 260 257 256 255 255 254 254 254 255 257 261 264 264 265 264 264 260 257 253 251 251 252 251 252 250 250 251 250 247 249 249 251 249 249 249 250 250 252 253 254 255 255 256 256 256
275 275 277 272 267 265 262 260 255 256 256 254 255 255 253 253 250 252 255 257 261 262 261 253 250 247 245 244 246 249 251 252 252 254 252 250 249 250 249 248 248 249 251 250 250 251 251 252 254 255 254 255 256 256
268 275 268 272 264 260 259 260 258 257 254 252 253 253 250 249 249 249 252 255 257 250 249 249 249 248 249 250 248 245 246 244 244 248 248 250 249 250 250 250 251 251 252 252 252 252 253 254 254 254 254 254 255 255
269 269 264 262 260 258 254 258 253 251 252 252 252 254 250 250 250 254 255 252 249 246 244 245 244 241 246 241 239 239 238 243 246 247 247 248 249 249 251 250 252 252 252 253 253 253 253 254 254 254 254 253 253 253
263 256 255 254 255 252 253 253 253 251 250 248 252 248 248 249 249 252 253 248 246 244 244 243 241 244 243 241 244 244 243 242 244 244 244 248 249 249 250 251 252 253 253 253 253 253 253 253 253 253 253 252 252 252
258 248 250 249 251 251 248 251 251 252 246 244 248 249 248 243 250 249 248 246 242 241 242 237 239 243 244 242 243 242 237 244 248 248 247 247 249 251 251 253 253 254 254 252 252 253 252 252 252 252 252 252 251 251
246 242 243 238 246 248 248 249 247 246 245 248 246 242 238 243 246 247 245 244 241 242 241 243 244 243 243 244 246 246 247 245 246 249 250 251 252 251 252 252 252 253 254 254 253 252 252 252 251 251 251 251 251 251
243 242 242 242 243 244 245 244 244 246 244 243 241 242 243 246 245 246 245 244 244 242 243 244 245 246 247 247 247 246 246 250 250 251 253 253 254 253 253 252 252 254 254 253 252 251 250 250 250 250 250 251 251 251
239 237 240 240 239 236 243 244 246 246 245 242 241 245 247 245 246 245 245 248 242 241 241 242 245 247 247 250 250 251 251 252 252 251 252 252 252 253 252 253 254 257 253 253 252 252 251 250 250 250 250 249 250 251
243 241 238 241 239 239 238 239 239 238 240 238 242 243 244 244 243 243 247 246 245 245 245 246 247 247 249 251 251 251 252 252 253 251 251 252 252 253 250 250 250 251 251 251 254 256 252 251 250 250 251 250 251 249
240 238 244 245 244 243 240 239 238 234 234 236 237 242 245 245 245 244 243 246 247 246 246 247 249 251 252 252 251 251 250 249 250 251 249 249 250 248 244 245 247 248 248 247 250 251 253 251 249 246 248 248 248 248
234 234 238 238 241 239 236 234 233 233 234 233 229 234 237 238 242 245 245 244 244 245 248 249 249 250 251 251 249 248 249 246 243 247 247 247 247 247 248 249 249 248 246 246 247 247 248 247 246 246 246 246 246 247
236 234 237 240 239 233 228 229 228 231 230 234 236 231 238 242 248 249 248 247 248 248 249 249 249 250 250 249 247 245 247 244 243 246 247 249 250 250 250 250 248 246 246 247 246 246 246 245 246 247 247 247 247 247
240 239 240 242 243 243 238 236 237 238 236 235 235 230 230 237 246 248 247 243 245 246 247 247 247 246 246 244 244 245 247 248 251 255 257 256 256 255 252 250 249 248 247 248 248 248 246 246 247 247 247 247 247 247

GFSWCAN_sfc_thetae_009.txt.gz
Theta_e
299 300 300 301 301 301 301 301 302 302 302 302 302 302 302 302 302 299 297 299 292 286 287 287 287 284 284 284 280 278 279 279 279 275 275 274 273 275 273 275 274 273 272 271 271 268 266 280 279 274 279 283 282 281
298 298 299 300 300 300 301 301 301 302 302 301 302 302 302 302 302 301 292 296 298 289 289 292 291 292 290 289 286 281 283 280 282 278 278 278 274 275 273 269 278 271 275 273 274 273 280 281 281 283 284 283 282 282
297 297 298 298 298 299 300 300 301 301 301 301 301 302 301 301 302 301 297 293 291 285 285 286 286 290 293 292 292 283 283 285 282 286 282 279 274 277 272 272 274 278 280 275 275 277 279 281 283 284 284 283 283 284
297 297 297 297 297 297 298 298 299 300 300 301 301 301 301 302 301 301 295 295 292 288 282 285 289 290 294 292 291 291 288 287 286 284 280 278 275 280 275 277 276 279 278 276 275 278 280 281 282 283 283 284 283 283
296 296 296 296 296 297 297 297 298 298 299 300 300 300 301 301 301 299 298 296 296 288 282 284 285 289 291 291 289 289 288 286 283 280 278 276 280 278 279 278 276 279 277 275 273 279 279 280 283 284 282 282 282 281
296 296 295 295 295 296 296 297 297 297 297 298 299 299 299 300 300 295 286 294 295 293 283 279 288 285 288 289 288 287 287 286 284 281 280 281 283 279 275 273 279 281 282 282 279 282 282 282 283 283 282 280 278 276
294 294 294 295 295 296 296 296 296 297 297 297 298 299 299 299 297 288 286 292 296 293 284 280 280 281 284 286 286 286 287 284 284 282 280 280 280 280 276 272 279 281 282 282 283 282 279 281 280 280 276 274 272 270
293 293 293 293 294 294 295 295 296 296 296 296 297 297 298 298 297 291 294 295 296 288 285 279 278 278 282 279 279 284 281 282 282 281 281 279 280 279 273 278 280 281 281 281 282 282 281 278 275 273 272 270 268 268
291 291 291 292 293 293 294 294 294 295 295 295 296 296 295 292 286 289 297 296 295 287 280 280 276 274 279 280 281 279 281 276 281 277 278 279 276 273 277 278 279 280 279 279 280 272 270 271 272 271 268 267 266 267
290 290 290 291 292 292 292 293 293 293 294 294 293 286 283 287 295 295 290 285 284 284 283 279 283 277 279 278 277 277 278 276 273 276 280 275 274 279 280 280 280 279 275 272 270 269 266 266 268 268 265 265 264 264
290 290 290 291 291 291 291 292 292 292 292 288 284 284 290 294 289 285 281 280 281 278 280 280 281 275 279 275 275 278 275 275 270 274 273 272 272 277 280 280 277 271 269 267 267 266 265 264 266 265 263 262 262 260
289 290 290 290 290 290 291 291 291 290 288 288 288 289 287 284 282 278 277 279 277 276 278 277 278 281 277 280 276 275 273 273 268 274 271 269 275 277 275 269 266 265 264 261 262 262 261 262 261 260 259 259 259 258
288 288 289 289 290 290 290 290 291 291 291 287 283 281 280 280 274 272 270 273 274 274 275 276 274 279 277 278 276 274 270 269 271 269 268 272 275 268 264 261 258 258 259 258 258 258 258 257 257 256 256 257 256 256
287 287 288 289 289 290 290 290 290 289 285 280 278 273 274 273 274 275 276 278 279 278 276 278 275 275 277 274 275 270 271 269 266 265 267 274 273 264 260 260 256 256 256 257 256 256 255 255 255 255 255 254 254 253
286 287 287 288 289 290 290 290 290 288 284 278 278 272 273 274 270 268 267 272 273 278 276 274 274 276 274 273 274 270 265 265 267 268 273 275 261 258 256 256 255 254 254 254 254 253 254 253 253 253 254 252 252 251
286 287 286 288 289 289 289 289 287 285 283 279 275 270 267 272 269 266 267 270 269 276 277 277 273 271 270 272 269 268 266 264 270 272 266 259 256 256 255 255 254 253 253 252 252 252 253 252 251 252 250 251 251 252
284 282 285 287 288 287 287 285 284 276 273 271 268 266 265 272 275 272 271 271 272 275 272 273 269 269 273 269 268 271 269 273 268 262 260 259 256 254 253 252 251 251 251 251 251 250 251 251 248 249 250 255 253 255
279 282 285 286 284 280 273 273 273 271 265 263 267 263 262 261 264 264 265 269 272 273 273 271 273 268 268 267 267 271 265 256 256 257 257 255 253 253 253 253 250 250 251 249 249 249 249 248 251 255 253 255 254 255
281 283 284 285 282 275 271 268 268 265 260 259 260 261 260 259 260 261 262 266 267 267 271 271 269 268 269 270 269 261 258 259 256 255 254 252 253 250 250 250 250 250 250 251 251 254 254 251 253 254 255 256 256 257
281 281 281 279 279 272 266 263 266 264 261 259 260 259 258 258 258 259 262 264 267 269 268 268 269 265 263 257 255 256 257 257 255 254 253 253 253 251 252 252 254 253 252 251 252 252 254 255 255 256 255 256 256 256
276 277 277 273 268 266 264 262 259 259 259 258 258 259 257 258 257 259 260 260 265 266 265 257 255 251 249 249 251 253 254 257 256 258 257 254 253 254 252 252 252 253 254 254 254 253 253 254 254 255 255 255 256 256
272 275 272 272 265 263 261 261 260 259 258 256 257 257 257 257 256 255 255 260 261 253 251 252 252 251 251 251 249 249 250 251 252 253 253 254 251 252 252 253 253 253 253 254 254 253 254 255 255 255 255 255 255 256
270 270 265 264 261 260 256 261 258 256 257 255 256 257 254 254 253 255 257 255 252 248 247 247 246 246 249 246 247 247 247 251 252 252 252 253 253 254 254 253 254 253 253 254 254 254 254 255 255 255 255 255 255 255
264 257 256 255 257 254 257 256 257 256 255 255 256 255 253 252 252 256 257 254 250 248 248 247 249 250 249 249 251 250 248 249 250 250 251 253 253 253 254 254 254 254 255 254 254 255 255 254 254 255 255 254 254 254
259 248 252 250 253 255 255 255 255 256 253 250 253 252 250 247 255 255 254 254 251 250 248 246 247 249 251 250 249 249 242 249 252 252 251 252 253 253 253 254 254 255 255 254 254 254 254 254 254 254 254 253 253 253
248 244 247 246 250 251 250 253 252 251 252 252 249 247 246 252 254 252 251 251 251 249 248 248 249 250 250 250 251 251 251 248 250 253 253 252 252 254 254 253 253 255 256 255 255 254 254 254 253 253 253 253 253 252
247 245 245 246 246 247 249 249 249 251 250 250 248 249 250 251 250 251 252 251 250 250 249 250 251 252 253 251 252 251 251 251 252 254 255 255 256 256 255 254 254 256 256 255 254 254 253 253 253 252 252 253 253 252
244 243 243 245 244 243 246 248 249 248 248 246 246 249 249 248 248 250 251 251 248 248 248 248 250 251 252 253 254 253 253 253 254 254 255 255 255 255 255 255 255 258 255 255 254 254 253 253 252 252 252 252 252 253
246 243 243 246 244 245 243 244 245 244 242 244 247 249 248 249 248 248 250 249 249 250 250 250 251 251 253 254 254 255 255 254 254 253 253 254 255 255 253 253 253 253 254 254 256 257 254 253 253 252 253 253 253 253
244 240 246 248 248 247 243 241 242 239 239 239 239 244 247 249 249 248 247 249 250 250 250 251 252 252 254 255 255 254 255 255 255 254 252 252 252 252 250 251 252 252 252 252 252 253 255 255 253 250 251 250 250 250
239 240 244 245 246 243 240 237 237 237 238 239 237 241 246 244 246 249 248 248 248 249 251 252 252 253 253 254 254 254 255 252 249 247 248 249 249 249 250 252 253 253 252 251 250 250 250 249 249 248 248 248 248 248
243 241 243 245 245 240 237 238 238 240 239 241 243 240 244 246 251 252 251 250 252 252 252 252 252 254 253 253 252 252 251 250 250 249 247 250 252 253 253 253 253 251 250 249 249 248 248 247 248 248 248 248 248 248
244 243 244 245 247 247 244 243 245 245 244 244 243 238 240 243 249 251 251 248 248 248 249 250 250 250 249 249 249 249 250 250 251 256 258 258 258 258 258 257 254 252 250 250 250 250 248 248 248 248 248 248 248 248

GFSWCAN_sfc_thetae_012.txt.gz
Theta_e
300 300 301 300 301 301 301 301 301 302 302 303 302 302 301 302 302 298 294 296 289 283 284 285 286 282 282 281 275 274 275 275 275 269 269 273 267 272 269 272 270 269 264 262 262 259 261 276 275 271 274 279 278 279
298 299 299 299 300 301 301 301 301 301 301 302 302 302 302 302 302 301 292 297 296 288 285 289 290 290 288 287 282 276 278 274 279 274 273 273 266 270 268 261 275 266 272 266 269 268 277 278 277 280 280 277 279 279
298 298 299 298 299 299 300 300 300 300 301 301 301 301 301 302 302 301 294 294 292 285 285 284 284 289 292 290 290 278 280 282 281 283 276 273 266 274 264 267 269 274 276 271 271 275 276 279 280 280 280 279 279 279
297 297 298 298 298 298 298 299 299 299 300 300 301 301 301 301 301 301 294 294 292 286 280 281 289 287 291 291 289 288 286 285 284 282 276 274 269 278 271 274 272 275 275 272 272 276 278 279 279 280 281 281 279 279
296 297 297 297 297 297 297 297 297 298 298 299 300 300 300 301 301 299 297 296 295 288 281 280 281 286 290 289 287 288 286 283 281 279 275 273 276 277 278 276 274 278 276 273 272 278 277 278 280 280 279 279 279 278
296 296 296 296 296 296 296 296 297 297 297 298 298 299 300 300 300 295 286 295 296 294 284 279 284 280 285 288 286 285 285 283 283 278 278 279 281 279 274 272 277 279 280 280 277 280 280 280 280 280 279 278 278 276
295 295 295 296 296 296 296 296 296 296 297 297 297 298 299 299 296 288 285 289 297 294 284 279 279 279 283 284 283 284 284 283 282 281 279 279 278 280 276 272 278 279 280 280 281 280 278 280 279 277 277 274 273 271
294 294 294 294 294 294 295 295 295 296 296 296 297 297 297 298 297 291 294 295 296 288 284 278 277 274 280 280 279 283 282 283 282 280 279 278 279 279 273 277 279 280 280 280 280 280 279 276 274 272 272 270 266 268
293 293 292 292 293 293 293 294 294 295 295 295 296 296 293 290 286 288 296 297 294 287 280 279 274 271 279 278 280 279 281 276 281 277 277 278 276 272 275 278 278 279 279 279 278 271 269 270 270 270 268 266 265 266
291 291 291 291 291 291 292 293 293 294 294 294 292 285 282 286 296 295 290 285 284 284 283 279 278 273 278 277 276 275 276 274 271 274 277 274 273 278 279 279 280 275 276 273 268 266 263 263 266 267 265 265 265 264
291 291 291 290 290 290 291 292 293 293 292 287 284 283 286 293 288 285 280 279 280 278 280 278 278 271 276 272 273 277 272 273 268 267 270 266 265 275 279 279 280 275 272 266 266 265 265 264 265 264 263 262 261 260
289 289 289 290 290 291 291 291 291 289 286 287 287 288 287 284 281 278 276 275 276 274 277 274 278 280 277 278 274 275 272 273 268 268 267 265 270 275 273 269 266 266 264 261 261 262 262 263 261 260 259 258 257 257
289 289 289 289 290 290 290 291 291 291 290 286 283 280 279 278 273 272 268 272 267 275 273 270 273 276 277 278 276 273 270 269 269 269 264 265 270 266 263 260 257 257 258 257 257 257 257 256 256 254 254 254 253 252
287 287 287 288 289 289 290 290 290 289 285 279 276 271 272 270 274 272 271 273 271 272 274 276 274 273 276 274 275 270 271 268 265 262 261 265 270 263 258 256 255 254 255 256 254 254 254 254 253 252 251 250 249 249
285 286 287 287 288 289 289 290 290 287 282 276 275 270 270 270 264 261 263 267 268 273 277 275 274 276 273 272 274 269 265 265 263 262 265 266 258 259 256 253 253 252 252 251 250 250 252 251 249 248 248 247 247 247
284 285 284 286 287 288 289 288 286 284 281 277 276 271 269 266 260 259 261 266 267 275 275 276 273 271 270 272 269 266 264 261 263 264 259 257 254 253 253 251 251 250 250 249 247 248 250 248 247 246 244 244 245 246
282 280 285 285 286 284 287 284 283 279 276 274 264 263 267 271 270 263 264 269 271 275 270 271 269 269 272 269 268 270 263 263 260 256 256 256 255 253 251 249 248 247 247 246 245 246 246 245 243 243 244 246 245 247
274 279 283 285 285 280 273 274 274 272 266 264 266 262 260 259 262 263 266 268 269 272 272 270 273 268 267 266 266 267 260 255 257 256 255 253 250 248 251 248 248 247 246 244 244 244 243 243 244 246 245 246 246 248
277 282 282 284 282 274 272 267 267 266 261 260 260 261 261 259 260 260 261 266 268 268 271 272 269 267 266 265 261 259 256 255 254 255 252 252 250 249 248 247 246 245 246 245 244 246 246 245 245 246 247 249 249 249
280 280 280 279 279 270 263 263 266 264 257 258 260 258 259 259 258 258 261 264 266 268 268 268 263 254 255 253 253 254 256 256 255 253 251 252 251 249 248 248 249 247 245 245 245 247 246 246 247 248 247 248 247 247
275 276 277 272 268 266 262 261 258 259 259 257 258 259 258 259 257 259 260 260 265 265 262 255 252 250 249 248 250 250 252 254 252 253 252 251 251 252 250 251 248 246 246 245 245 246 247 246 247 247 247 247 249 253
272 275 270 272 266 263 261 261 260 259 259 256 257 257 254 254 255 254 255 261 256 250 248 249 248 247 246 244 244 244 246 248 249 252 254 254 252 251 250 246 245 244 244 244 245 245 245 247 248 248 248 251 254 255
270 270 266 264 262 258 255 260 257 255 253 252 251 252 250 248 250 255 257 254 249 247 243 242 243 243 244 243 244 246 248 250 251 251 251 251 247 245 247 245 245 244 244 245 246 246 247 251 250 251 254 254 254 254
264 256 256 255 256 252 252 251 257 255 254 252 253 250 248 244 250 251 251 247 245 246 244 243 244 246 248 247 249 250 249 250 250 249 245 245 245 244 244 244 244 245 246 247 248 248 248 250 254 254 254 253 253 253
258 248 251 249 252 250 250 251 253 256 253 252 252 248 245 244 251 254 251 247 248 247 248 247 248 249 247 246 247 245 242 243 246 244 243 242 243 243 244 245 246 247 249 249 249 249 251 252 253 252 253 251 251 252
246 244 244 244 247 248 249 251 250 250 254 254 249 248 242 249 252 249 250 250 249 247 246 245 245 245 245 244 243 243 243 240 241 244 244 244 245 246 247 249 251 252 254 251 252 252 252 253 251 251 251 251 253 251
246 243 243 244 246 248 249 250 249 251 250 249 248 249 249 248 247 246 250 249 247 244 244 243 242 243 244 243 244 243 242 243 247 249 249 248 250 250 251 251 251 252 252 252 252 252 251 252 252 251 251 251 251 251
242 242 240 243 242 244 246 248 248 247 248 246 247 247 246 244 244 246 248 248 243 243 243 242 243 244 244 245 245 247 248 249 251 251 251 252 252 252 252 251 252 259 252 252 253 253 252 252 251 251 251 251 252 252
242 243 243 245 243 244 242 244 244 243 242 243 246 248 246 246 245 244 247 247 248 245 245 248 248 246 249 250 252 253 253 252 252 252 252 252 252 252 251 251 251 251 251 250 256 256 253 252 252 252 252 252 252 249
243 241 245 248 246 243 241 240 240 239 240 240 240 244 246 248 249 248 247 247 247 248 247 248 249 251 253 253 253 254 253 253 253 252 251 251 251 249 247 248 249 248 248 248 251 252 255 253 252 248 248 248 247 247
240 238 242 244 244 241 238 236 236 239 240 241 239 242 245 244 246 248 249 249 248 249 251 252 252 252 252 253 251 251 252 252 251 250 250 249 248 247 247 248 250 249 248 249 249 248 248 246 245 245 246 246 246 247
239 239 241 243 242 236 232 233 233 234 234 237 242 243 245 247 249 250 250 250 250 250 251 251 251 251 251 252 252 252 253 251 252 252 251 252 251 251 252 252 253 251 251 251 250 250 249 247 247 246 247 246 246 246
243 243 244 245 246 245 243 242 244 243 243 243 243 242 242 245 248 250 253 250 249 248 248 249 249 250 250 250 251 251 252 251 252 257 257 258 257 258 257 257 256 254 253 252 251 251 250 249 248 248 247 247 247 247

GFSWCAN_sfc_thetae_015.txt.gz
Theta_e
300 300 301 301 300 301 301 301 302 302 302 302 302 302 302 302 302 298 292 292 286 278 282 284 284 281 281 279 274 274 274 274 273 266 266 272 265 271 268 271 270 268 264 260 258 255 261 276 274 271 274 278 277 277
299 300 300 300 300 301 301 301 301 301 301 302 302 303 302 302 302 300 292 294 292 284 282 287 288 287 286 285 278 272 274 271 277 270 267 268 262 265 265 261 273 267 271 265 268 267 276 277 276 279 279 276 279 278
298 299 298 299 300 300 300 300 301 301 301 301 301 302 302 302 301 300 294 294 292 286 285 285 281 288 290 288 287 275 274 280 280 280 272 269 264 271 262 263 267 272 274 271 270 274 275 277 278 279 279 279 279 279
297 297 297 298 299 299 299 299 300 300 300 300 301 301 301 301 302 301 294 295 291 285 279 277 286 284 289 289 287 285 283 282 281 280 272 267 264 277 268 272 271 273 274 270 271 276 276 277 278 279 279 279 278 278
297 297 297 297 298 298 298 299 299 299 299 299 299 299 300 301 301 299 297 295 295 288 278 274 278 284 287 287 286 286 283 281 279 274 269 268 273 273 271 275 271 277 275 273 271 278 277 277 279 279 279 279 279 278
296 296 296 297 297 297 297 297 297 297 297 297 298 298 298 300 300 295 286 295 295 294 284 279 282 278 284 286 285 284 284 282 282 280 277 276 279 278 270 264 277 279 279 280 277 280 280 280 279 279 278 278 278 278
296 296 296 296 296 296 296 297 296 296 296 297 297 297 298 299 296 288 285 290 296 295 284 279 279 278 282 281 279 281 283 283 283 281 278 277 277 280 274 267 278 279 279 280 280 279 277 279 278 278 278 278 274 271
296 295 295 295 295 296 295 296 295 295 296 296 296 296 297 298 296 291 293 295 297 287 284 278 275 274 281 281 279 283 282 283 282 281 278 277 279 279 273 277 279 280 280 279 278 279 280 278 275 274 273 270 268 269
295 295 294 294 294 294 294 294 294 294 295 295 296 296 293 288 285 287 297 297 295 287 279 278 273 267 281 280 281 280 282 277 282 278 277 278 272 272 275 277 278 279 278 279 279 272 272 274 276 270 269 267 268 267
293 294 293 293 293 293 293 293 293 294 294 294 292 285 282 285 294 294 289 284 284 284 283 278 269 272 278 275 274 275 277 275 272 275 278 275 273 278 279 279 278 278 277 274 269 269 263 265 268 268 267 266 266 265
291 291 291 291 291 290 290 291 292 293 293 287 283 282 283 293 286 284 279 278 272 269 280 275 277 271 274 270 268 277 272 274 270 270 271 269 265 276 280 279 280 280 276 272 270 268 267 267 267 266 264 262 262 261
290 290 291 290 290 290 290 290 292 290 287 286 286 287 287 282 281 276 274 270 270 268 270 275 271 274 275 277 275 275 271 272 267 269 268 265 272 277 275 277 277 271 268 263 262 263 263 264 263 262 260 258 256 257
288 289 289 289 290 290 290 291 292 291 290 286 282 278 278 277 272 270 262 271 262 270 272 265 269 274 277 278 275 273 270 269 271 270 267 266 270 270 275 264 260 259 259 258 258 258 258 256 256 254 254 253 253 252
288 287 287 288 289 290 290 290 291 290 284 278 275 271 271 269 266 265 263 268 271 269 269 268 271 271 273 274 275 270 272 270 266 265 263 264 268 271 264 260 259 256 256 256 255 255 254 254 253 252 251 250 249 249
286 286 286 286 287 288 289 290 290 287 281 275 275 267 270 265 259 258 258 264 267 269 275 271 269 276 272 272 274 269 265 265 264 262 263 263 262 261 259 257 256 254 253 252 250 251 252 251 251 248 245 245 246 247
284 284 281 286 286 287 288 287 285 284 280 276 271 270 261 262 258 258 256 262 270 277 278 276 273 272 270 272 270 266 265 263 263 261 256 256 255 258 256 255 253 252 250 249 248 249 250 249 248 247 242 243 244 244
282 271 283 284 285 285 285 276 277 278 276 274 266 252 259 267 269 266 261 264 269 274 271 271 269 268 273 269 268 270 265 262 257 259 258 259 258 256 254 251 251 251 249 247 244 245 244 243 242 243 246 246 243 243
269 275 283 283 283 280 273 269 269 272 267 262 259 254 252 254 256 258 264 267 271 273 272 271 273 269 267 266 264 263 257 256 256 256 254 253 252 251 251 250 248 248 246 245 247 244 242 243 244 246 243 245 244 245
274 280 282 283 281 273 265 263 263 264 260 257 261 261 257 256 259 260 260 263 267 268 269 271 270 267 264 259 258 258 259 259 257 254 252 252 251 250 250 250 249 248 248 246 246 248 244 245 246 245 245 245 246 245
280 281 280 279 279 270 259 264 266 263 260 259 259 256 258 257 256 258 259 262 264 267 267 266 260 254 255 254 253 254 255 256 255 253 251 251 250 248 248 248 248 247 247 245 247 249 249 247 245 244 244 245 245 246
274 276 276 268 268 265 261 257 256 258 258 256 255 258 257 257 253 254 257 260 264 254 257 254 252 251 251 250 250 251 251 253 250 251 250 248 248 248 246 246 247 247 248 247 248 247 244 244 245 244 244 244 244 245
269 275 264 269 265 262 258 258 255 257 256 252 256 256 253 254 253 253 255 258 253 250 249 249 249 248 250 249 246 243 245 244 245 249 252 252 249 250 251 251 250 248 249 249 244 244 243 243 243 244 244 245 248 248
269 269 264 263 261 257 255 257 255 257 256 255 255 255 253 249 249 255 255 252 249 249 248 247 247 247 248 248 247 248 247 247 248 246 246 247 248 250 250 249 249 249 246 245 242 243 244 248 247 247 248 248 248 248
263 256 256 255 256 254 252 252 256 255 255 251 252 253 249 245 250 253 248 244 246 248 248 247 247 248 248 248 248 246 246 245 243 244 243 246 247 244 244 244 241 241 243 243 244 244 245 246 250 249 249 247 247 249
257 248 251 249 252 252 251 251 252 252 249 251 253 252 249 246 252 250 248 247 250 250 249 248 249 249 248 246 246 243 240 241 242 243 242 240 240 242 243 242 243 243 243 245 245 248 250 249 247 248 249 248 249 250
246 244 246 245 248 247 247 247 249 247 249 250 248 249 248 252 251 246 246 248 249 248 248 247 245 246 245 242 241 242 243 237 239 243 243 241 242 243 242 245 247 250 252 252 251 251 251 250 249 249 249 250 252 251
245 244 245 247 247 248 248 248 249 250 248 247 246 249 252 249 246 244 245 250 248 245 246 245 242 244 243 242 241 240 239 239 243 245 244 244 246 247 250 250 251 253 251 251 252 252 252 252 252 251 250 249 250 251
241 242 241 245 244 246 246 247 246 245 246 245 247 248 247 245 245 246 247 250 246 246 246 243 243 242 242 244 244 246 246 246 250 251 251 251 250 251 251 250 251 259 252 252 252 252 251 250 250 250 248 249 251 251
241 242 243 245 244 244 242 243 244 243 242 243 247 247 247 249 249 248 250 250 250 249 249 249 249 249 250 251 253 253 252 253 253 252 251 252 252 252 250 251 250 251 250 249 254 256 251 249 249 249 250 251 252 249
242 241 245 247 246 243 241 240 240 240 241 241 241 245 247 249 250 250 249 249 248 248 249 249 250 252 252 253 253 252 252 252 252 251 250 251 251 251 250 248 247 246 244 243 248 250 254 251 251 248 247 247 246 246
241 239 242 244 242 241 239 238 239 240 241 242 242 244 246 246 249 250 252 250 249 251 252 252 252 251 251 251 250 251 252 252 252 252 251 251 251 249 248 249 249 248 247 248 250 249 250 248 246 246 246 246 246 247
240 237 238 240 240 237 233 235 233 235 240 241 243 245 246 248 248 251 252 252 251 250 251 251 250 250 251 251 251 251 253 252 252 253 252 252 252 251 251 251 252 252 251 251 250 251 251 250 249 247 247 247 247 246
243 243 243 244 244 244 243 242 243 244 245 245 245 244 244 247 248 251 254 252 249 248 249 249 249 249 250 250 250 251 252 250 250 255 255 257 256 256 254 249 251 251 251 252 251 250 249 248 248 248 247 246 247 247

GFSWCAN_sfc_thetae_018.txt.gz
Theta_e
299 300 301 301 301 301 301 302 303 303 303 302 303 303 303 303 302 296 291 292 287 279 282 284 284 282 281 280 277 275 278 277 275 271 269 272 266 271 268 270 269 269 266 265 265 265 263 276 274 271 274 276 276 277
299 299 299 300 301 301 301 301 302 302 302 302 302 302 302 302 302 300 291 292 291 282 281 287 287 287 286 285 280 274 278 273 277 271 268 270 263 264 266 264 273 267 271 265 268 268 277 277 277 279 278 277 278 278
297 298 298 299 300 300 301 301 301 301 302 302 302 302 302 302 302 300 294 291 291 285 282 282 282 288 289 287 287 277 276 280 279 280 272 270 265 271 263 265 267 272 274 270 270 273 275 277 279 278 279 279 279 279
296 297 297 298 299 299 300 300 300 301 301 301 301 301 302 302 302 301 294 294 290 286 279 278 284 284 289 288 285 284 283 282 281 280 272 267 265 276 268 271 270 273 273 269 270 275 275 276 277 278 279 279 278 278
294 297 297 298 298 298 299 299 299 300 300 300 300 300 301 301 302 299 297 295 294 286 276 274 278 283 286 286 285 284 283 280 278 273 267 267 272 272 269 274 269 275 275 271 269 278 277 277 279 279 279 278 278 278
292 297 297 297 297 298 298 299 299 299 299 299 299 299 299 299 300 295 286 294 296 293 284 276 280 278 283 284 283 282 282 279 278 276 273 274 278 277 273 269 277 280 278 279 278 281 278 279 279 279 278 278 278 277
293 296 297 297 297 297 297 298 298 298 298 298 298 298 298 298 296 287 285 290 297 294 284 279 276 277 281 280 277 281 282 280 280 280 275 277 276 280 275 269 278 278 279 280 280 279 277 278 278 279 278 278 276 274
294 295 296 296 296 297 297 297 297 297 297 297 297 297 297 297 296 290 293 296 297 287 284 278 275 276 281 279 277 281 281 282 281 280 277 277 279 279 273 277 279 279 279 278 278 279 280 281 276 276 274 272 270 271
293 294 295 296 296 296 296 296 296 296 295 296 296 296 290 287 285 287 297 297 294 288 279 278 273 266 281 281 281 281 283 276 282 278 277 279 275 272 276 278 278 279 278 279 277 275 274 274 277 274 271 267 270 270
294 295 295 296 295 295 295 295 295 295 295 295 291 285 282 285 292 294 289 285 284 284 283 277 268 270 278 275 271 276 279 276 272 276 279 276 275 279 279 277 278 280 280 278 272 271 263 266 270 270 269 269 269 266
293 293 294 294 294 294 294 294 294 294 294 287 283 282 285 292 287 284 279 277 274 272 278 273 274 269 275 268 269 278 273 274 270 271 273 271 269 277 280 279 280 280 278 275 277 276 271 271 270 269 265 264 264 262
290 291 292 292 292 291 291 292 293 290 286 285 286 288 286 283 280 275 274 274 273 269 265 273 269 275 273 274 272 275 271 272 268 268 268 263 274 278 276 278 280 280 276 271 267 267 265 266 264 264 262 260 258 257
288 290 290 291 291 291 291 291 291 292 291 286 281 278 278 275 272 271 266 264 265 260 270 269 269 274 277 278 273 274 270 268 270 269 267 266 273 271 275 272 262 261 263 262 260 260 259 257 256 255 255 255 254 253
289 289 289 289 289 290 290 290 291 291 284 278 275 270 271 270 269 265 264 265 270 269 269 269 272 271 273 273 275 269 272 270 267 266 263 273 268 267 265 258 260 258 258 259 256 256 255 255 253 252 252 251 251 250
287 287 287 287 288 288 289 290 291 288 281 275 273 268 270 264 259 254 254 261 265 266 273 270 269 276 271 272 274 271 266 265 266 262 264 260 258 258 256 255 256 256 254 253 253 252 253 252 251 248 244 245 247 246
285 286 282 287 287 288 288 287 286 284 280 276 273 265 258 261 258 257 256 261 265 271 271 272 270 272 270 270 268 266 265 262 263 260 256 258 256 256 256 256 254 254 254 253 250 251 251 250 250 247 242 243 244 246
283 272 284 284 286 285 285 277 279 277 274 274 268 251 257 257 261 259 260 264 269 274 272 273 269 269 273 269 268 269 263 262 260 260 258 256 257 256 255 254 253 253 251 250 249 249 248 247 247 247 248 247 243 245
269 275 283 283 279 279 263 264 267 269 266 263 265 255 254 252 254 256 260 265 268 273 272 270 271 269 268 264 261 261 257 256 255 253 253 252 252 251 253 251 250 250 250 250 250 247 247 247 249 248 246 245 245 245
276 276 282 282 278 265 264 263 262 259 255 255 259 260 259 254 256 257 257 262 266 267 267 269 268 267 265 258 255 257 256 255 254 254 253 252 253 252 251 250 249 249 248 247 248 248 246 247 249 250 251 251 247 244
282 281 280 279 278 266 257 258 261 258 252 256 257 259 259 258 257 254 256 262 264 268 265 259 254 252 252 252 252 253 255 256 256 255 253 252 251 250 249 249 250 248 246 245 246 248 246 247 248 246 244 244 245 245
275 276 275 269 266 264 261 258 255 257 256 253 255 260 259 259 254 252 254 259 257 252 253 250 250 251 251 251 250 250 253 252 253 252 252 251 250 249 246 245 245 244 245 245 249 249 248 247 245 243 243 243 241 242
269 274 262 268 264 261 260 259 255 257 257 255 258 255 253 253 252 253 255 253 250 247 246 248 249 248 249 250 249 249 249 250 252 252 252 251 248 247 245 244 247 247 249 248 248 249 249 244 243 242 243 244 245 245
269 268 263 261 259 259 256 260 256 255 256 253 254 255 252 252 252 256 252 250 250 250 248 247 247 248 248 250 250 251 250 251 251 250 250 249 248 245 248 245 244 246 245 245 244 243 244 247 246 245 245 246 246 246
263 255 255 254 256 254 254 254 256 256 255 253 254 254 252 251 252 254 248 246 247 249 248 248 249 250 251 251 250 249 248 248 249 249 247 249 248 244 240 240 239 240 242 242 242 243 243 244 247 246 248 248 247 248
256 248 251 249 251 250 250 251 252 253 251 250 250 250 249 249 254 249 248 246 247 246 248 248 249 249 248 250 250 249 246 244 245 243 241 238 238 241 243 241 242 243 241 243 243 243 245 249 251 251 252 251 250 251
244 245 246 245 247 248 247 249 248 247 249 249 247 250 250 253 249 246 246 248 247 247 247 246 245 247 250 248 248 247 245 237 238 243 243 239 241 242 241 243 244 248 244 245 246 247 250 252 251 251 252 252 253 252
245 244 246 248 248 248 249 250 250 249 247 246 245 248 252 247 245 246 248 250 248 247 247 247 245 246 246 247 245 243 244 242 246 247 246 242 244 243 246 248 247 249 247 247 247 248 249 251 253 253 253 251 251 251
242 243 243 245 246 247 247 247 245 243 244 244 246 245 245 244 244 248 249 251 250 249 248 248 248 247 247 248 249 250 251 251 250 248 247 248 248 248 247 247 248 258 251 249 250 249 249 250 251 252 251 251 253 253
242 243 243 246 246 244 241 242 242 242 242 242 245 246 246 250 250 248 250 250 250 250 250 250 252 253 252 252 252 253 253 253 253 253 252 252 253 252 251 249 249 249 248 246 252 256 252 251 250 250 251 252 253 252
242 242 245 246 244 242 241 240 241 241 242 242 242 247 249 249 251 251 250 250 249 249 250 250 251 252 251 251 251 252 252 252 252 251 249 250 251 253 252 251 250 248 245 242 247 249 254 252 252 250 250 248 249 249
242 242 243 244 243 242 241 239 240 241 242 243 243 245 246 247 250 253 252 252 252 253 252 252 252 251 250 250 249 250 251 252 253 252 251 252 252 251 251 252 252 251 248 248 249 249 251 250 248 249 249 248 249 249
242 239 237 238 239 237 233 239 240 241 242 244 244 244 245 247 247 251 252 252 251 251 251 250 250 250 250 251 251 251 253 252 251 252 251 253 253 254 253 253 251 249 250 250 249 250 251 250 250 249 249 248 248 247
243 242 243 244 244 244 244 243 245 246 246 246 246 245 244 246 247 250 252 252 250 249 250 250 250 250 250 250 250 251 251 249 249 255 254 256 255 256 254 248 250 248 247 247 247 247 246 246 247 246 246 246 246 247

GFSWCAN_sfc_thetae_021.txt.gz
Theta_e
298 299 299 300 301 301 301 302 302 302 303 303 303 304 303 303 302 294 291 292 287 281 283 285 285 283 282 283 279 278 281 280 278 277 276 274 270 272 269 271 271 269 267 266 265 260 263 276 275 272 275 275 276 276
297 298 298 299 300 301 301 301 302 302 302 303 303 303 303 303 303 299 290 292 291 284 283 287 287 288 287 286 281 277 280 277 280 274 271 272 268 268 267 265 273 270 273 269 271 270 276 277 277 279 278 276 277 278
296 297 297 298 299 300 300 301 301 301 302 302 302 303 302 303 303 300 293 290 290 283 281 282 283 288 290 287 287 280 278 281 280 280 273 270 266 272 264 266 268 272 273 271 271 274 275 277 279 278 279 278 279 279
294 296 296 297 298 299 299 300 301 301 301 301 302 302 302 302 302 301 293 293 290 285 276 278 284 284 288 287 285 285 283 282 281 280 274 269 266 276 269 272 271 273 274 270 270 274 274 277 278 279 279 279 278 278
294 295 295 296 297 298 298 299 300 300 300 301 301 301 302 302 302 300 297 294 294 285 275 274 279 284 286 286 284 283 283 281 279 274 270 269 273 272 270 273 270 275 274 271 269 276 276 277 278 280 278 278 278 277
293 294 294 294 295 297 298 299 299 299 300 300 300 300 300 301 301 296 286 294 295 293 284 273 280 278 282 284 282 281 282 280 279 276 274 275 278 276 265 264 277 279 277 278 276 279 279 280 280 279 278 278 278 277
293 293 294 294 294 297 297 298 298 298 298 299 299 299 300 299 297 287 285 290 297 294 284 277 271 278 281 280 277 280 280 280 278 277 273 276 276 279 274 266 279 278 278 278 279 278 277 277 278 278 278 278 276 275
292 293 294 293 294 297 297 297 298 298 298 298 298 298 297 297 296 288 292 296 297 287 284 278 269 275 282 276 278 280 278 280 280 280 278 273 278 279 271 277 279 279 278 277 278 279 280 279 276 277 275 273 271 273
293 293 294 293 296 297 297 297 297 298 298 298 297 297 292 290 285 287 296 296 293 286 279 277 269 266 280 281 281 281 282 276 281 277 276 279 274 272 276 278 278 279 278 279 281 275 276 275 277 274 272 268 271 273
292 293 293 294 294 296 296 297 297 297 297 296 290 285 281 285 292 294 289 284 284 283 283 276 269 264 278 275 272 276 279 277 273 276 279 276 275 279 280 276 278 280 280 280 271 270 264 269 274 273 271 273 273 271
292 293 293 294 293 295 296 296 297 296 295 286 282 280 284 292 286 281 276 277 277 275 280 268 268 269 274 268 269 278 273 275 270 271 272 271 268 278 280 279 281 279 279 277 278 279 274 273 273 272 270 268 266 264
291 293 293 293 295 296 295 295 296 289 286 286 286 288 287 283 279 276 274 271 272 268 267 274 271 271 269 272 269 273 271 272 268 272 271 268 272 278 274 277 280 281 279 274 272 274 268 268 264 265 263 262 259 258
289 292 292 292 293 294 295 295 293 292 290 285 281 278 278 277 272 270 267 268 264 260 267 270 267 272 272 275 273 272 266 266 266 269 268 267 275 271 268 268 268 261 262 264 261 262 261 259 258 257 257 255 255 253
290 290 291 291 291 291 291 291 293 291 283 276 275 270 271 269 271 267 265 265 268 266 268 267 272 270 269 272 274 269 271 269 266 264 262 272 263 257 258 257 257 257 257 259 257 257 256 256 254 253 253 253 253 251
289 289 289 289 289 289 290 290 291 288 279 275 275 269 269 265 258 254 253 259 263 265 272 269 269 275 271 273 274 271 267 266 266 264 263 258 256 255 255 253 252 253 254 253 251 253 253 254 253 250 249 249 249 249
287 286 285 288 289 289 289 288 287 285 280 276 273 268 258 261 259 258 257 262 266 272 270 272 269 270 271 272 270 268 266 264 263 259 255 256 253 252 251 251 252 252 252 251 251 252 254 252 252 249 246 245 245 247
284 272 284 287 286 285 284 278 280 276 270 271 267 250 255 258 263 262 262 267 271 272 268 269 268 268 271 266 265 261 260 258 255 255 254 254 253 252 254 251 249 250 250 252 252 251 249 249 249 250 250 246 243 244
271 276 284 284 279 274 265 267 272 271 266 264 266 257 253 251 254 256 259 264 267 268 268 268 271 269 268 266 266 259 258 257 255 255 254 254 253 250 250 249 248 249 251 251 251 249 249 249 250 247 246 243 245 246
276 277 283 282 276 263 262 262 263 263 257 256 261 260 260 258 259 259 260 264 265 266 268 269 268 263 257 255 253 255 255 255 255 255 254 253 253 252 252 251 250 249 248 244 246 247 246 246 248 247 247 248 248 244
282 281 279 280 276 262 257 259 259 258 254 257 257 257 259 260 259 258 260 261 265 262 256 256 251 251 251 252 252 251 252 254 254 256 256 254 253 252 250 250 250 248 248 247 248 248 247 247 246 246 246 249 250 251
274 276 275 267 266 262 257 256 255 254 254 252 252 258 258 259 257 257 257 259 255 249 250 247 248 250 251 252 252 250 252 251 252 252 252 253 252 251 249 248 248 247 246 244 245 246 248 248 247 245 246 247 247 247
270 274 261 267 263 260 258 258 255 255 254 252 254 254 252 253 254 254 257 252 249 247 246 247 248 247 248 249 249 250 250 251 253 253 253 253 251 251 249 246 247 246 248 247 247 246 245 245 244 244 244 244 244 243
268 267 262 261 258 257 254 258 256 256 255 255 256 257 253 253 253 257 250 249 248 250 247 246 248 248 247 248 249 250 250 251 251 251 251 251 251 250 250 249 248 247 246 246 242 242 243 246 245 244 243 244 244 244
263 255 255 253 254 252 255 256 258 257 255 253 254 253 250 250 253 253 247 247 248 250 248 248 248 249 251 251 250 250 249 249 251 250 248 250 249 247 244 243 242 240 242 241 241 242 242 243 246 245 245 246 247 250
254 248 250 248 251 251 251 251 252 254 251 252 252 252 250 251 252 248 248 248 249 249 248 246 246 247 246 247 250 250 248 248 250 250 247 242 242 242 243 242 242 241 240 243 243 242 243 242 245 248 251 252 252 251
245 245 246 245 247 248 248 250 249 249 251 250 248 249 249 251 248 245 245 246 247 247 247 246 244 245 248 248 248 250 249 244 244 248 246 240 241 243 241 244 244 247 242 242 243 243 244 250 251 252 252 253 254 253
244 244 246 250 248 248 249 250 250 249 246 245 245 249 250 245 244 244 247 249 248 249 249 249 247 246 247 248 250 249 249 246 247 248 246 242 242 242 244 245 246 248 246 245 246 247 249 250 251 253 253 253 253 252
244 243 243 245 246 246 245 245 243 242 243 243 245 244 244 243 243 247 250 251 250 250 250 250 249 249 248 250 250 251 252 252 248 247 248 249 249 250 250 250 250 257 252 251 251 252 251 251 251 251 252 252 252 252
244 244 244 246 246 244 241 242 241 242 242 241 245 245 246 248 248 248 250 251 251 251 251 251 252 253 251 252 253 253 253 253 252 250 250 250 252 252 254 253 252 251 250 248 252 256 254 252 251 251 251 250 252 252
243 243 245 245 243 241 241 240 241 241 242 242 243 249 249 250 251 252 251 251 251 251 251 252 252 252 251 251 251 252 251 252 252 250 248 249 250 252 252 252 252 252 252 249 250 250 254 253 252 250 251 249 249 251
244 243 245 245 243 242 241 240 241 242 243 245 246 247 246 247 250 254 253 253 252 252 252 251 251 251 250 250 249 249 249 251 251 251 251 251 252 252 252 252 253 251 249 248 247 246 247 247 246 247 246 246 247 249
244 239 241 243 243 243 241 242 242 244 244 246 245 246 246 247 247 251 253 252 252 251 251 250 249 249 250 249 249 249 252 251 251 251 251 252 252 253 253 254 251 247 248 249 248 247 246 244 244 243 244 245 245 245
243 243 244 245 244 244 244 243 245 245 245 245 246 245 244 247 247 250 252 253 252 250 250 250 251 251 250 250 249 251 250 248 250 254 254 255 254 254 254 250 249 248 246 245 245 244 244 244 244 244 243 243 244 244

GFSWCAN_sfc_thetae_024.txt.gz
Theta_e
294 295 296 298 299 300 300 302 302 302 302 303 304 304 304 302 301 294 290 292 288 283 284 284 285 283 283 286 282 280 281 280 280 279 279 276 275 274 272 273 272 272 272 268 270 270 270 276 275 274 277 276 277 276
294 294 295 297 298 299 300 301 301 302 302 302 302 303 303 303 302 297 288 291 291 284 283 287 288 287 287 288 283 281 283 279 282 279 277 275 271 271 270 269 273 271 274 271 274 273 276 278 277 279 279 277 276 277
293 293 294 296 297 298 299 300 301 301 301 302 302 302 303 303 303 299 291 289 287 279 282 282 283 287 290 288 288 281 279 282 281 282 276 274 272 273 266 268 269 272 274 271 272 274 275 277 279 278 278 278 279 279
292 293 294 295 296 297 298 299 300 300 301 301 301 302 302 303 303 299 291 292 288 282 274 279 284 284 288 288 286 286 284 282 282 281 276 273 271 277 271 273 272 274 274 270 271 274 275 277 278 280 279 279 278 278
292 293 293 294 295 296 297 297 298 299 300 301 301 301 302 302 302 299 295 294 293 285 277 276 280 283 286 286 284 283 283 281 280 276 273 271 275 273 272 274 270 275 273 272 270 276 276 277 279 280 279 278 278 277
292 292 293 294 294 295 295 297 297 298 299 300 300 300 301 301 301 295 286 294 294 293 282 275 280 278 282 283 282 281 282 280 279 277 275 276 278 276 267 267 277 276 277 278 276 278 278 279 279 279 278 278 278 277
292 292 292 293 294 294 295 295 297 298 298 299 300 300 300 301 296 287 284 288 297 294 284 277 272 277 281 279 278 279 280 279 278 276 273 276 276 277 269 267 279 278 278 278 279 278 276 277 278 278 278 278 276 274
291 291 292 293 293 294 295 294 296 297 298 298 299 299 299 300 295 288 291 296 296 286 284 278 272 276 281 278 277 279 277 277 277 278 275 274 277 276 268 277 279 279 278 277 278 278 280 278 276 277 274 273 271 273
290 292 292 292 293 294 294 294 296 297 298 298 298 298 293 287 284 286 295 295 291 287 279 278 271 268 280 280 279 278 280 275 280 275 275 277 274 272 275 277 278 278 278 278 276 275 275 274 277 274 272 269 272 273
290 291 293 293 293 293 294 294 296 297 298 298 292 285 280 285 294 295 289 284 283 282 282 275 267 265 279 275 275 273 275 273 273 275 278 276 273 278 280 276 278 279 278 277 271 271 264 268 274 274 272 274 275 275
290 290 292 293 293 293 293 295 296 297 297 286 282 280 285 293 283 279 279 276 279 276 280 274 270 270 274 269 271 278 274 276 271 270 271 266 264 278 281 277 280 279 278 276 278 278 273 273 273 272 271 271 269 265
289 292 293 293 293 294 292 297 297 288 286 286 285 288 287 282 275 273 272 274 270 269 267 272 272 270 269 272 271 276 273 273 267 267 268 263 271 276 272 277 279 277 273 272 271 274 269 270 265 265 263 262 260 259
291 292 292 292 294 294 293 297 294 293 290 285 281 279 277 277 271 270 268 265 265 259 264 270 268 271 272 274 270 269 269 268 269 270 267 267 271 265 261 262 264 262 261 262 260 261 261 259 258 257 257 256 256 255
290 291 292 291 293 296 296 295 293 290 283 277 275 271 271 270 268 269 268 262 266 264 270 267 271 270 267 269 272 266 267 265 261 259 261 265 257 256 257 257 255 258 255 258 256 257 257 256 254 254 253 254 254 253
290 290 290 290 291 290 292 292 291 285 277 272 271 266 266 262 256 252 252 258 261 262 269 268 267 274 268 271 272 268 265 263 262 261 259 255 255 254 254 253 253 253 253 252 251 253 254 253 252 250 248 251 252 252
287 286 286 289 290 291 291 288 286 283 277 272 267 263 258 260 257 256 255 261 267 270 268 270 267 268 267 270 269 268 266 264 262 252 251 254 251 252 251 250 250 249 248 249 250 251 253 252 252 249 248 249 251 250
284 274 286 286 286 284 285 279 280 273 270 271 259 249 252 255 259 258 260 266 271 273 269 272 270 269 270 266 264 263 262 255 253 254 255 254 252 251 251 249 250 249 249 247 247 249 247 248 249 250 251 250 250 249
274 276 284 284 277 275 265 267 271 270 265 263 264 256 253 253 253 255 259 265 270 270 271 270 273 268 267 265 259 256 257 257 258 256 255 253 253 252 252 252 251 250 249 250 250 249 251 252 252 250 249 247 248 245
277 280 283 282 275 262 262 261 262 261 256 256 261 262 261 259 258 260 260 264 266 265 266 265 267 260 254 253 250 252 251 252 252 254 254 253 254 253 253 252 252 251 250 245 244 245 244 245 246 245 245 245 246 244
281 281 279 278 272 261 257 256 256 258 254 256 257 259 260 260 261 261 260 261 261 259 253 252 249 248 250 251 251 251 252 253 252 253 255 254 253 252 251 252 251 250 249 246 247 247 245 245 245 243 243 245 245 245
274 274 274 267 262 258 256 255 254 253 252 254 254 257 257 259 257 257 256 257 253 249 249 249 249 249 250 250 252 251 251 251 251 251 251 253 253 252 251 250 250 250 250 249 248 248 248 246 245 243 243 243 242 242
270 273 261 266 263 259 256 257 255 255 253 251 252 252 252 252 252 253 257 251 249 248 248 248 248 248 248 249 249 249 249 249 251 253 254 253 253 253 252 251 252 252 251 250 249 246 245 244 243 242 242 242 243 242
268 267 262 260 257 255 253 259 255 255 253 253 254 255 252 251 253 257 250 249 249 250 249 248 248 249 247 247 246 248 248 248 249 249 251 251 251 252 252 251 251 251 250 247 244 244 245 247 244 243 243 243 243 244
262 255 254 252 253 251 254 253 257 255 254 254 255 251 249 251 255 251 246 247 250 251 249 248 248 249 248 248 248 248 248 249 250 249 249 252 252 250 249 249 248 246 245 244 244 242 242 242 245 244 244 243 243 245
253 247 250 247 251 250 250 251 251 254 251 251 251 250 249 250 249 246 246 246 248 249 249 248 248 249 248 248 249 248 247 247 250 251 249 249 250 250 250 248 246 244 243 244 244 242 242 240 242 244 245 244 245 246
244 246 245 245 246 247 247 249 248 248 249 248 247 249 250 249 246 243 245 246 247 248 248 247 246 247 249 248 247 249 249 248 248 250 250 248 247 247 245 247 244 247 241 240 241 242 242 243 244 245 246 247 251 250
243 243 246 250 248 248 249 249 249 247 245 244 244 248 249 245 243 243 246 249 248 249 250 250 248 248 248 248 250 251 251 249 249 249 248 248 248 247 248 246 247 248 244 242 241 241 242 243 245 247 247 249 250 251
245 243 242 245 246 245 245 244 242 241 242 243 245 244 243 243 242 246 249 251 251 251 251 252 250 249 249 251 252 253 253 254 251 251 251 251 250 250 249 249 249 257 249 247 248 248 246 245 244 246 247 249 250 250
244 245 244 245 245 243 240 241 241 242 242 241 244 245 245 247 247 247 250 251 252 252 251 251 252 253 253 253 253 252 253 252 250 248 248 247 248 249 252 250 249 249 248 245 252 256 256 253 253 252 251 251 251 249
244 244 245 244 242 241 241 240 241 242 243 243 245 249 249 249 252 253 252 252 251 251 251 251 251 251 250 250 250 250 251 249 250 249 246 245 247 250 251 250 250 249 247 244 248 248 252 249 250 248 250 249 248 248
244 243 244 244 242 242 242 242 242 243 244 247 247 247 245 247 250 252 252 252 252 251 250 249 250 250 249 248 248 248 248 248 250 249 247 248 249 249 250 251 252 251 247 246 245 243 244 244 242 242 242 242 244 245
244 241 243 244 242 243 243 243 243 245 246 246 245 246 246 246 246 248 251 251 249 248 249 248 247 248 249 249 246 244 249 247 247 248 248 249 250 250 251 252 251 247 247 248 247 245 243 242 243 243 243 243 243 243
243 244 244 243 243 243 243 243 245 245 245 244 245 245 245 246 245 249 251 251 248 247 246 247 248 249 248 245 246 243 244 243 245 251 251 252 252 253 252 251 247 245 245 245 244 244 243 243 243 243 242 242 242 242

GFSWCAN_sfc_thetae_027.txt.gz
Theta_e
294 294 294 295 295 296 298 299 300 300 302 302 303 304 304 302 299 292 289 293 290 284 284 285 286 286 285 285 282 280 282 281 281 281 280 278 277 276 275 273 274 275 275 274 275 273 273 277 276 276 279 277 276 276
293 294 294 294 295 295 297 298 299 300 301 302 302 303 304 303 300 295 286 291 290 283 283 287 288 288 288 291 284 282 283 280 283 280 280 277 274 273 274 273 274 275 279 276 278 277 277 279 279 280 280 278 277 277
293 293 293 294 294 294 296 297 299 299 301 301 302 302 303 303 303 297 288 288 286 279 280 280 283 287 289 288 290 283 282 284 284 283 280 277 276 276 270 271 272 274 275 274 275 275 276 278 279 279 279 278 279 279
292 292 292 293 293 293 295 296 298 299 300 301 301 302 302 302 302 298 290 290 287 280 273 278 284 283 288 288 287 286 284 283 282 282 278 276 275 277 274 276 275 276 275 272 272 274 276 278 278 280 280 279 278 277
291 292 292 292 293 293 295 296 297 298 298 300 301 301 302 302 302 299 294 293 291 285 275 274 279 283 285 286 284 284 283 281 280 278 276 274 276 275 274 274 272 275 273 272 272 277 277 278 281 280 279 280 278 277
291 292 292 292 292 293 294 295 296 297 297 298 299 300 301 301 302 295 286 292 294 293 282 278 278 277 282 283 282 282 282 281 280 278 276 277 278 277 270 269 277 277 277 278 277 279 279 279 280 279 279 279 278 278
291 291 291 292 292 293 294 295 295 296 297 297 299 300 300 301 297 288 285 289 296 294 283 276 271 279 281 279 277 279 280 279 278 277 274 276 276 277 270 269 276 277 278 278 279 278 276 277 278 279 279 278 276 274
290 290 290 290 292 292 293 294 295 295 296 298 298 299 300 300 298 289 293 297 296 287 285 277 270 276 281 278 277 279 277 277 276 275 275 274 276 275 268 276 278 278 278 277 278 278 279 278 277 276 274 273 272 273
290 290 290 291 292 292 293 294 294 295 295 297 298 298 294 289 284 286 296 298 292 287 279 277 270 269 280 280 278 279 279 271 277 272 275 275 269 269 275 277 278 278 277 278 277 276 275 274 277 272 272 268 272 274
289 290 290 291 291 292 293 293 294 295 295 297 290 285 281 284 294 292 288 283 282 282 281 272 264 268 279 278 275 272 273 272 268 272 278 275 271 278 280 278 277 278 278 276 271 270 265 268 272 274 272 273 274 274
289 290 290 290 291 291 293 293 293 294 295 289 282 280 286 293 285 281 278 278 279 275 279 270 267 272 275 270 267 276 271 273 269 267 269 266 265 277 280 277 279 279 277 275 276 276 273 273 273 273 270 271 271 268
289 290 291 292 292 292 293 293 293 291 287 285 285 287 285 280 276 274 274 274 273 273 273 272 271 268 269 273 273 276 273 273 266 265 269 266 270 265 263 265 267 266 265 267 267 271 269 270 266 266 264 262 260 260
290 292 293 292 293 293 293 294 294 292 291 285 282 280 278 277 271 268 266 267 264 260 266 269 268 271 272 275 274 274 270 269 270 269 265 266 264 259 257 258 258 260 259 261 261 260 261 259 258 257 257 256 256 255
290 290 292 292 293 293 293 293 295 291 283 278 275 271 271 270 272 265 264 265 265 266 267 268 271 269 270 272 273 269 269 270 266 263 261 257 255 254 255 254 252 254 254 255 255 256 256 256 254 253 253 253 254 253
288 289 289 290 290 293 293 294 291 285 279 274 275 269 268 259 256 252 250 259 262 267 271 269 267 273 265 270 273 268 265 264 261 260 256 254 253 252 252 251 250 250 251 251 250 251 253 252 251 249 249 250 251 251
286 285 284 288 289 290 289 287 284 281 275 270 265 266 261 266 260 256 254 263 266 269 266 269 266 268 270 270 270 267 264 261 260 253 254 254 252 251 249 249 248 247 246 247 249 249 251 250 249 247 247 248 249 250
283 278 285 286 285 284 283 280 277 271 269 263 256 251 253 258 259 255 255 266 269 265 262 265 264 266 270 267 266 261 265 259 257 256 256 254 252 251 249 248 247 247 248 248 248 248 247 246 247 249 249 247 248 248
273 277 284 284 279 276 268 267 271 268 260 259 259 254 252 252 254 256 259 266 269 268 269 270 274 269 267 266 261 256 255 255 257 256 254 253 252 250 249 248 248 250 249 247 248 247 248 250 251 250 249 248 248 248
279 279 282 282 275 264 264 263 263 261 256 257 260 261 258 255 258 260 261 264 266 264 264 266 264 258 254 252 251 252 251 251 251 253 254 251 250 248 249 249 250 251 250 249 249 249 247 248 248 248 249 250 249 244
279 280 280 277 272 261 258 256 257 258 256 255 255 255 258 259 259 259 257 259 258 256 249 249 246 246 248 250 251 251 251 252 250 250 252 251 251 249 249 250 250 250 251 250 251 252 251 251 250 249 250 250 250 248
273 272 274 266 259 257 254 254 253 254 254 254 254 257 258 259 256 255 254 255 251 248 248 248 248 249 249 249 251 250 251 251 250 248 249 250 252 251 249 250 251 251 250 250 252 251 252 252 250 249 248 245 244 245
266 272 261 265 259 254 255 257 254 254 253 250 252 250 249 250 251 252 255 249 248 248 248 248 248 248 248 249 249 249 249 248 250 250 252 251 249 251 252 252 253 252 252 251 252 252 251 250 249 248 246 245 245 243
266 265 260 257 256 254 252 258 253 253 251 251 250 249 249 246 250 253 248 248 248 251 250 248 249 249 248 250 250 250 249 248 247 247 247 248 249 250 250 250 252 253 253 251 250 251 251 250 249 249 247 244 242 243
261 253 252 251 252 249 254 253 256 254 254 253 252 248 247 247 253 250 245 246 249 251 249 249 249 250 251 251 250 248 248 247 248 248 248 249 250 249 250 250 250 250 249 249 249 249 249 248 248 246 245 243 241 242
251 246 249 246 250 249 249 250 250 252 249 250 251 250 249 250 248 246 245 246 247 248 248 249 249 250 248 249 250 249 247 247 248 248 249 249 249 251 252 251 250 248 247 249 248 245 245 244 243 242 243 241 243 243
242 245 244 244 246 246 247 246 247 247 249 248 247 249 250 248 245 242 244 245 246 246 248 247 246 247 249 249 248 249 250 249 248 249 249 248 249 248 247 249 248 249 247 246 245 245 246 245 241 241 243 244 247 246
242 242 245 250 247 247 247 248 248 246 244 243 243 247 248 244 242 243 246 249 248 248 250 250 248 248 248 249 251 252 253 249 248 249 249 250 250 250 251 250 250 251 252 249 245 241 241 242 243 243 244 245 243 245
244 243 242 245 244 244 244 243 242 240 241 242 244 243 243 242 241 245 249 251 251 251 252 251 251 250 250 251 252 252 253 253 252 252 251 251 251 251 250 250 249 256 251 248 248 250 248 247 247 248 247 247 247 245
244 245 245 244 244 243 240 241 241 242 243 241 244 244 244 247 247 247 250 251 252 252 250 250 250 252 252 252 252 252 251 251 249 248 247 247 248 248 251 250 248 248 246 244 251 254 254 255 253 250 248 248 248 245
244 245 245 244 242 241 242 241 242 243 243 244 247 249 248 249 250 252 252 251 250 249 250 249 250 249 248 248 248 249 249 249 249 246 244 244 245 248 248 247 247 247 247 243 247 246 250 246 246 243 243 243 243 243
245 243 245 245 243 243 243 243 243 244 247 247 248 247 246 247 249 251 250 250 249 249 248 247 247 247 246 246 245 245 245 244 245 242 241 244 245 245 246 248 249 250 246 243 243 242 244 243 241 241 241 241 242 243
244 241 244 245 243 244 245 244 244 245 246 246 245 246 246 246 245 247 250 249 246 245 245 243 244 245 244 241 239 238 245 242 242 244 244 246 247 248 249 249 250 245 243 245 244 243 242 240 241 241 242 241 241 241
243 244 244 245 244 244 244 244 245 245 246 246 245 246 246 247 245 247 250 247 245 243 242 241 242 244 242 241 241 241 242 240 241 249 249 251 251 251 250 249 246 242 242 242 242 243 242 242 242 241 241 241 240 241

GFSWCAN_sfc_thetae_030.txt.gz
Theta_e
293 293 294 294 295 295 295 296 297 299 300 301 302 303 303 302 300 296 292 295 292 286 287 286 288 287 286 286 283 283 284 283 283 283 283 281 279 279 278 278 279 280 279 279 280 279 278 281 279 281 285 281 283 283
292 293 293 294 294 294 295 295 296 298 299 300 301 302 303 303 301 296 290 293 292 287 286 288 289 289 289 292 285 283 284 284 287 284 283 280 277 277 278 276 276 278 283 281 282 282 280 282 282 284 284 283 281 283
292 292 293 293 293 294 294 295 295 297 298 299 300 302 302 303 302 297 291 291 289 284 284 285 284 288 290 290 292 286 284 287 285 286 283 281 278 279 277 278 276 278 278 280 280 279 279 281 281 282 282 283 283 284
291 292 291 292 293 293 294 294 294 296 297 299 300 301 302 302 302 295 291 292 289 284 280 282 285 286 289 289 289 289 287 285 284 285 282 281 280 279 279 279 279 280 279 276 275 276 278 280 281 282 282 282 282 281
291 291 291 291 292 293 293 293 294 294 296 298 299 301 301 302 302 297 293 293 293 289 281 280 282 285 286 287 286 287 286 284 282 281 280 279 279 278 276 276 277 278 276 276 277 279 280 281 283 283 282 282 282 281
290 291 291 292 292 292 293 293 294 295 296 297 298 298 300 301 301 295 286 292 294 294 285 279 281 281 283 285 284 284 284 283 283 282 279 279 280 279 277 276 279 279 280 282 279 281 281 282 283 283 282 283 282 281
290 290 291 291 291 292 292 293 293 295 296 297 298 297 300 300 297 289 287 292 296 294 284 279 277 281 282 282 281 281 282 282 282 280 279 278 278 280 276 275 277 279 280 280 281 280 278 279 280 281 281 281 280 279
290 290 290 291 291 291 291 292 293 294 295 296 297 297 298 300 298 290 293 297 296 287 285 278 274 277 282 279 278 281 280 281 280 279 279 278 278 278 274 277 278 279 279 279 279 280 281 280 279 279 278 277 276 277
289 289 290 290 290 291 291 292 293 294 295 295 297 297 294 292 285 287 298 298 293 289 282 278 274 272 282 280 280 281 281 276 280 277 278 279 275 273 278 278 279 279 278 280 280 278 277 277 279 277 276 274 276 278
289 289 289 290 290 290 291 291 292 294 295 295 292 285 283 285 294 296 286 284 283 284 284 276 274 274 280 279 277 278 278 275 273 276 279 276 274 279 280 280 280 280 280 279 275 274 272 274 276 277 275 277 277 278
288 289 289 290 291 291 291 291 292 293 294 288 284 282 286 293 286 284 279 280 279 277 280 274 273 275 280 276 276 278 276 277 272 273 274 273 273 274 267 269 269 269 270 275 277 279 279 279 278 277 275 275 275 273
288 289 291 291 293 293 293 292 292 290 287 287 286 288 285 282 278 276 275 276 276 274 273 273 273 276 276 280 278 278 275 275 271 274 274 269 273 263 261 261 262 262 261 264 266 268 270 271 269 270 269 268 266 265
289 290 290 291 293 291 293 293 293 292 291 286 283 281 279 278 272 270 268 269 270 270 272 273 273 276 276 278 277 275 272 272 273 272 270 272 262 260 257 257 257 258 258 260 261 262 263 261 260 260 261 259 260 259
288 289 290 291 292 292 292 293 293 292 285 280 276 271 274 271 273 272 270 270 272 272 272 274 273 276 275 275 275 271 270 272 269 268 268 262 258 255 255 255 253 254 254 256 256 258 258 257 255 255 255 257 257 256
286 287 288 288 290 291 293 293 293 286 281 275 276 270 270 264 260 258 258 267 267 274 275 273 273 275 272 273 274 269 267 267 269 268 262 258 255 253 253 252 251 252 252 253 254 254 255 254 254 253 252 254 255 255
284 283 283 287 288 288 290 292 286 282 271 270 265 267 263 267 264 263 265 268 268 273 274 274 270 269 268 270 267 266 266 264 266 259 257 257 254 253 252 251 251 250 250 251 252 253 253 252 252 251 252 252 253 254
282 277 285 286 284 285 283 280 277 270 267 266 261 258 258 263 262 260 261 267 270 272 270 269 266 267 272 268 264 261 263 258 257 257 257 255 254 253 252 252 250 250 250 251 251 251 251 251 251 254 253 252 253 253
273 277 284 284 279 277 269 267 270 266 261 261 262 258 258 258 260 260 263 266 269 269 268 268 272 265 263 263 259 255 254 256 257 256 255 254 254 253 253 252 252 251 251 250 251 252 252 253 253 253 252 253 253 253
279 279 281 281 276 268 267 264 263 260 257 259 261 261 260 260 260 260 261 262 263 261 262 262 253 251 251 251 252 253 252 252 252 253 255 254 253 252 252 252 252 251 251 252 253 252 252 251 252 253 253 254 254 253
279 280 279 276 273 266 262 260 263 261 258 258 260 260 260 259 260 258 256 257 256 254 248 248 246 247 248 249 251 251 252 253 252 253 254 254 253 252 251 251 252 252 252 253 253 254 254 254 254 254 254 254 255 254
272 272 272 265 261 260 258 258 257 257 258 257 257 259 258 258 254 254 253 254 251 248 247 248 248 249 250 250 252 251 251 251 251 251 251 252 254 253 252 253 253 253 253 254 254 254 254 253 253 253 254 253 253 252
265 272 261 263 259 257 257 259 257 257 257 255 256 254 253 252 251 250 254 249 248 248 249 248 249 249 249 250 250 251 250 250 251 252 253 252 252 252 252 251 253 252 252 253 254 254 253 253 253 253 253 253 252 252
265 264 259 256 255 253 253 258 253 254 255 254 252 251 250 251 253 254 248 249 249 251 250 250 250 250 250 251 252 251 250 250 250 250 250 251 251 251 251 251 252 252 252 252 252 253 253 252 253 253 252 252 251 252
261 252 250 249 250 248 254 252 255 252 253 252 251 248 248 249 252 248 244 246 249 251 249 249 250 251 252 252 250 249 249 251 251 251 250 252 251 250 251 251 251 250 250 251 252 252 252 252 251 251 251 250 250 250
249 245 246 243 248 247 249 248 249 250 249 248 247 249 248 250 245 243 244 245 247 248 248 249 249 250 249 250 251 251 250 250 250 250 250 251 252 252 252 251 250 249 250 251 251 250 251 250 250 249 250 249 249 250
241 244 243 244 245 245 246 245 245 246 248 247 246 249 250 246 243 241 244 246 246 248 248 248 247 248 249 250 249 250 251 251 251 251 250 250 250 250 249 249 250 251 251 249 249 249 249 248 247 246 247 248 247 248
241 241 245 249 246 246 246 246 246 244 242 242 243 247 247 242 241 244 247 250 249 249 251 250 249 249 249 250 251 253 253 252 251 251 251 251 251 250 250 249 248 251 253 251 250 249 248 247 247 248 248 248 247 248
244 243 241 244 243 244 242 242 241 240 241 242 244 242 242 240 241 246 249 252 251 252 252 251 252 251 251 251 251 251 251 252 252 252 252 252 251 252 251 251 250 255 250 249 250 250 249 248 249 250 249 248 249 249
244 245 245 243 243 242 240 241 241 243 243 241 243 243 244 247 247 248 250 252 252 251 249 249 249 250 249 249 249 249 249 249 246 244 244 246 248 249 249 249 248 248 248 246 250 253 253 254 253 251 247 247 249 247
243 245 243 242 241 241 242 241 243 244 244 244 246 248 247 248 249 251 250 250 248 247 248 246 245 246 244 244 244 244 243 244 241 241 240 241 242 246 246 246 247 247 248 244 247 247 249 248 247 245 245 245 245 245
245 243 243 243 243 243 244 244 244 247 250 248 249 247 246 246 248 250 249 247 246 245 244 243 243 238 238 240 238 237 239 241 240 241 240 242 243 244 245 246 248 249 246 244 244 243 245 244 243 242 242 242 242 244
243 240 243 243 243 245 245 245 245 245 245 246 245 244 245 245 243 245 248 243 241 240 241 237 236 243 241 238 237 238 242 243 240 244 242 245 245 246 248 248 248 245 244 244 243 243 243 241 242 242 242 242 242 242
243 244 244 244 244 244 244 244 246 245 246 244 245 244 244 244 242 244 247 243 241 240 239 239 239 241 240 240 240 241 243 240 239 248 248 250 250 251 250 250 246 242 242 243 243 243 242 242 241 241 241 241 241 241

GFSWCAN_sfc_thetae_033.txt.gz
Theta_e
294 294 294 294 294 295 295 295 296 296 297 298 299 301 302 302 304 300 297 299 295 288 289 288 289 287 286 287 285 284 285 284 284 284 284 283 282 282 283 285 283 283 281 281 284 282 281 283 282 285 287 285 287 290
294 294 293 293 293 294 294 295 295 295 296 297 298 300 301 302 303 300 295 296 295 291 288 290 290 290 288 289 287 284 285 285 287 286 285 283 280 280 282 280 280 281 286 285 286 284 281 283 283 285 285 287 284 286
293 293 293 293 293 293 294 294 295 295 296 297 298 299 301 301 302 299 296 294 293 288 287 286 286 289 291 290 292 287 286 288 286 287 286 283 281 282 280 281 280 280 281 283 283 280 281 281 283 283 284 284 285 286
291 292 292 292 292 292 292 293 294 295 295 296 297 298 300 301 302 298 295 296 293 290 285 284 287 286 289 290 289 289 288 287 287 287 285 284 282 281 281 281 282 281 281 280 277 278 279 282 283 284 284 283 283 283
291 291 291 292 292 292 292 292 293 294 294 295 296 297 299 300 301 298 296 295 295 291 285 283 284 286 287 289 288 289 288 286 286 284 284 282 281 280 278 278 279 280 279 278 278 281 284 283 286 286 283 283 283 282
290 290 291 292 291 292 292 292 293 293 294 294 295 297 298 300 301 295 285 293 295 294 286 281 284 283 285 286 286 288 287 285 285 284 281 280 280 282 280 280 280 282 281 283 280 284 283 284 285 285 284 283 283 282
289 290 291 291 291 292 292 292 293 293 294 294 295 297 298 299 297 289 288 294 297 297 286 279 279 282 283 284 283 283 284 283 285 282 281 280 279 282 279 277 280 281 282 281 282 282 280 281 281 283 283 283 283 280
289 290 291 290 291 291 291 291 292 292 293 294 296 297 298 298 298 291 296 297 297 288 285 281 276 279 283 281 280 283 281 283 282 281 280 279 279 280 276 279 281 281 281 280 281 281 282 281 281 280 279 278 277 278
289 290 290 290 290 290 291 291 291 292 293 294 296 296 295 291 285 288 297 298 295 289 283 281 276 275 283 281 282 282 283 279 281 279 279 281 277 276 279 279 279 280 280 281 281 279 278 279 280 278 277 276 277 278
289 289 289 289 290 290 290 290 291 292 293 294 293 285 283 285 294 297 291 285 284 284 285 281 282 276 282 281 280 280 281 278 274 278 280 277 277 278 272 272 272 271 272 278 277 277 276 276 277 277 277 278 278 278
289 289 289 289 289 290 290 291 291 291 292 288 284 284 288 294 288 285 281 281 282 278 282 278 280 276 282 279 278 280 278 278 273 276 276 275 274 271 267 267 267 267 267 269 270 273 275 277 278 278 277 276 275 273
289 289 289 289 290 291 292 292 292 289 286 288 288 288 285 284 282 278 278 278 279 276 276 277 278 281 279 284 280 279 277 277 272 277 276 272 272 263 262 261 262 262 261 262 265 266 267 267 266 269 269 269 267 266
288 288 289 291 290 291 293 293 293 292 290 288 285 282 281 279 273 273 270 272 273 276 276 277 276 278 279 281 279 278 274 273 277 274 272 274 264 262 258 258 258 259 259 260 261 262 263 261 261 261 262 261 262 260
287 287 288 289 289 292 292 293 293 291 285 282 278 274 275 273 274 275 276 277 277 279 277 280 276 279 279 277 277 274 273 275 271 269 271 266 259 256 257 256 254 255 255 257 257 259 258 258 257 256 257 259 259 258
285 285 287 287 289 290 292 293 293 289 282 278 278 272 273 268 266 266 267 273 273 280 279 277 278 278 276 275 274 271 269 269 271 271 265 261 257 256 255 254 253 253 253 255 255 256 256 256 255 254 254 256 257 256
284 284 283 287 288 289 292 290 285 280 271 271 267 269 268 270 267 269 272 272 274 280 280 280 275 274 272 274 271 270 270 268 267 261 259 259 255 254 254 253 253 252 253 254 254 255 254 253 253 254 254 254 255 255
281 278 284 285 286 283 285 281 276 268 267 267 262 262 263 266 264 265 268 269 273 278 274 276 272 271 274 270 266 261 263 259 259 258 257 255 254 254 253 254 252 252 253 253 254 254 253 254 255 255 254 254 255 254
277 279 282 283 280 279 270 271 270 267 262 263 263 260 262 261 264 262 264 265 271 274 275 271 274 268 264 265 260 256 256 257 257 257 256 255 255 254 255 255 254 254 253 253 254 254 255 255 255 255 254 255 255 255
279 279 280 280 278 272 269 264 266 261 260 262 263 264 262 260 260 259 260 262 261 260 261 259 253 252 251 251 252 253 253 254 254 255 256 255 253 252 254 253 254 254 253 254 255 254 254 254 255 256 257 257 256 256
279 279 278 276 275 270 264 261 266 263 260 260 262 261 261 259 260 258 256 257 256 254 248 248 247 248 250 251 252 252 253 254 254 255 256 256 255 254 253 254 254 254 255 255 255 256 256 256 256 256 256 257 258 256
274 273 273 270 265 263 260 261 259 260 261 259 259 261 259 259 255 254 253 255 251 249 248 249 249 250 251 252 253 252 253 252 252 252 253 254 255 255 255 255 255 256 256 256 256 255 255 254 255 255 256 256 255 255
268 271 265 266 264 263 261 261 260 260 260 258 258 257 255 254 253 251 254 250 248 249 249 249 250 250 251 251 251 252 251 252 253 254 254 254 254 254 253 254 255 254 254 254 255 255 254 254 255 255 255 255 255 255
266 265 261 258 259 258 257 262 259 258 258 257 257 254 253 253 253 255 249 249 249 251 251 251 251 252 251 253 252 252 252 253 252 253 253 253 253 254 253 253 253 253 253 253 254 254 254 254 255 254 255 255 254 255
261 253 251 251 252 251 256 254 257 257 256 255 253 251 251 251 253 249 246 247 249 251 250 250 252 253 253 253 251 251 251 253 253 253 253 254 253 252 253 252 252 252 251 253 253 253 253 253 252 253 253 253 253 253
250 245 248 244 250 249 249 250 249 252 250 251 251 250 250 252 247 245 245 247 249 249 249 250 251 251 250 251 252 252 253 252 252 251 252 254 254 254 253 252 252 251 252 251 250 251 251 251 251 251 251 252 251 251
242 246 245 244 246 246 247 246 246 246 249 247 248 251 251 247 244 242 245 247 248 249 249 249 249 250 250 251 251 251 252 253 254 251 251 253 252 252 251 250 250 251 253 252 250 249 249 250 249 249 250 251 250 248
241 243 247 249 247 247 246 247 247 245 242 242 244 248 247 242 242 245 249 250 250 251 252 251 251 250 250 250 251 252 253 253 252 253 253 253 252 252 251 249 248 249 252 250 250 249 248 247 248 249 249 250 250 250
246 245 242 245 244 245 243 243 242 241 242 243 246 242 242 242 243 248 250 252 252 253 252 251 251 251 250 250 250 250 251 251 253 252 252 253 252 251 249 250 250 254 250 250 250 252 251 250 250 250 250 249 249 250
246 246 246 243 244 244 242 243 243 244 245 243 245 244 244 247 249 250 251 252 252 251 249 248 248 249 248 249 248 248 248 247 246 243 242 245 246 248 249 248 248 249 249 249 251 253 252 252 252 251 249 248 248 247
244 246 244 243 242 242 245 244 245 246 246 246 249 248 247 248 249 251 250 250 248 247 247 246 245 244 243 243 244 244 245 244 244 244 242 243 244 246 246 246 247 247 248 248 248 248 250 249 249 246 246 246 246 246
246 248 245 245 244 245 246 247 249 249 249 248 249 246 245 247 249 250 249 248 246 244 243 243 243 241 242 242 240 241 243 244 241 241 242 243 244 244 245 246 247 248 248 245 245 245 245 245 245 244 244 243 243 243
245 241 243 244 245 247 247 247 247 248 248 247 247 247 247 246 244 246 248 244 243 242 243 240 239 243 243 243 242 242 243 243 243 245 243 245 245 246 247 248 249 248 245 246 245 245 244 243 243 243 243 242 242 242
243 244 242 242 243 243 244 243 245 245 246 244 245 244 243 243 241 245 248 245 245 244 243 244 244 244 243 242 243 244 244 243 242 249 249 250 249 250 250 250 248 246 244 244 244 244 242 242 242 242 241 241 241 241

GFSWCAN_sfc_thetae_036.txt.gz
Theta_e
295 295 295 295 295 295 295 295 295 296 296 296 297 298 299 300 302 299 296 300 294 287 289 289 290 287 286 287 285 284 285 284 284 283 284 283 283 283 283 282 280 284 283 284 285 284 281 283 281 285 284 281 283 284
294 294 295 295 295 294 294 294 295 295 295 296 296 298 298 299 301 301 293 298 297 290 288 291 291 292 290 289 287 285 286 285 287 285 284 284 281 280 281 279 281 281 284 285 284 283 280 281 282 283 283 283 283 286
293 293 294 294 294 294 294 293 294 294 295 295 296 297 298 299 300 301 295 293 292 286 286 284 286 290 292 291 292 286 285 287 285 286 285 283 280 282 279 280 279 280 282 282 282 280 280 283 285 284 283 283 283 283
292 292 292 293 293 293 293 293 293 294 294 295 295 296 297 298 299 301 293 294 293 286 280 280 287 286 289 290 290 290 288 287 286 286 285 284 281 282 281 281 281 281 282 279 276 279 281 283 284 285 286 282 281 281
291 292 292 292 292 292 293 293 293 293 293 294 295 295 297 298 298 299 296 296 296 288 280 279 281 284 287 289 289 290 288 286 285 284 283 281 281 280 279 278 278 279 280 280 279 282 284 284 286 286 285 283 280 280
291 291 291 291 291 292 292 292 292 293 293 293 294 294 295 297 297 295 285 293 295 294 283 273 282 281 282 285 287 287 287 285 285 284 281 280 280 281 279 277 280 280 281 285 281 284 285 285 286 285 283 281 281 280
290 290 290 290 291 291 292 292 292 293 293 293 294 294 294 296 294 288 286 290 296 294 284 277 277 282 281 281 280 281 283 283 284 282 280 279 278 282 278 274 280 280 281 280 283 282 279 279 279 281 282 282 281 279
289 290 290 290 291 291 291 291 292 292 292 293 293 294 295 296 295 292 293 297 296 287 285 280 275 278 282 279 275 280 279 280 280 280 278 278 278 279 273 280 279 279 279 279 280 279 279 279 279 278 278 277 275 276
289 289 289 290 291 291 291 290 291 291 292 292 293 294 293 291 285 287 297 298 295 288 282 277 271 273 281 280 278 276 280 273 278 274 277 278 273 271 274 277 275 272 275 276 277 276 276 277 276 275 274 273 274 275
288 289 289 290 290 290 290 290 291 291 291 292 290 285 282 285 294 296 291 285 284 285 285 277 275 273 281 279 275 274 276 271 266 273 278 271 269 272 270 269 268 268 268 270 274 274 273 273 274 275 274 274 274 274
288 289 289 289 290 290 290 290 290 290 290 287 284 283 287 293 290 285 281 280 281 278 281 273 274 275 280 272 271 277 272 271 266 268 268 264 264 268 266 265 265 265 265 266 267 269 270 270 271 272 272 269 268 268
288 289 289 289 289 289 290 290 290 288 286 287 287 287 285 283 283 279 278 279 278 275 274 272 272 275 274 279 272 273 270 273 265 269 266 264 266 262 261 260 261 260 259 261 262 263 264 264 263 264 263 262 262 262
288 288 289 289 289 290 291 291 291 292 291 286 284 281 279 279 274 273 271 273 271 275 275 275 274 275 275 279 274 276 269 268 274 266 263 262 262 258 257 257 257 256 257 258 259 260 260 259 258 257 258 259 258 258
288 287 287 287 288 289 290 291 292 291 285 278 277 273 274 272 274 272 267 274 275 275 276 278 276 276 275 273 275 270 273 270 267 261 262 258 254 252 254 254 252 253 253 255 255 256 256 256 255 254 255 255 255 254
286 285 285 284 287 288 290 292 293 288 282 277 276 268 273 266 266 263 265 266 271 279 279 275 275 277 273 274 274 271 268 266 265 262 256 255 253 254 253 252 250 251 251 252 252 252 253 253 252 252 252 252 253 254
285 284 281 285 287 290 291 291 284 277 269 269 262 264 263 266 264 265 270 273 277 280 277 278 275 274 272 272 270 269 266 262 258 253 256 257 254 253 252 251 250 249 249 250 249 250 251 251 250 249 250 252 252 252
282 275 283 284 285 283 284 278 274 268 267 265 261 259 260 261 261 261 265 265 269 279 274 276 272 271 274 268 261 254 253 254 256 255 255 254 253 251 252 251 250 249 248 248 247 248 248 249 251 253 252 251 251 251
273 277 282 283 282 278 270 270 269 266 261 262 260 259 257 257 260 259 260 262 264 274 273 267 268 259 256 259 255 254 255 255 256 254 253 253 253 252 252 252 250 248 248 248 248 249 251 252 253 252 250 249 250 250
277 277 280 281 279 271 267 265 266 259 259 260 263 263 261 258 258 257 257 259 259 258 258 256 250 249 249 250 250 251 252 252 252 255 254 253 252 252 251 250 252 251 250 249 250 251 250 251 252 252 251 252 251 250
278 279 278 277 277 269 263 262 266 262 257 259 261 259 258 256 257 257 254 255 255 251 247 247 246 247 248 249 251 251 252 253 253 254 254 254 254 252 251 251 252 251 251 250 253 254 253 253 254 254 252 252 250 249
272 271 272 269 266 264 261 261 259 260 261 258 259 261 258 257 253 252 252 253 249 248 247 247 247 249 250 250 251 251 252 252 251 251 250 252 254 253 252 253 253 253 254 254 254 253 253 251 251 251 248 247 247 249
265 271 261 265 264 263 260 261 260 261 259 258 258 257 254 252 251 250 253 249 247 248 248 248 248 248 249 248 249 250 250 251 251 253 254 254 251 252 251 252 253 251 251 251 252 252 251 251 249 248 247 247 249 248
265 264 259 256 257 257 256 262 259 259 257 256 257 254 252 251 252 255 248 248 248 251 250 250 250 251 250 251 252 251 251 252 251 251 252 252 253 253 252 251 251 250 250 251 252 251 250 253 251 249 248 248 248 248
260 252 250 248 249 248 256 254 257 257 256 254 253 250 250 250 253 249 245 247 249 250 250 250 251 250 251 251 250 250 250 252 252 251 253 253 251 251 251 251 251 250 250 250 250 249 249 248 249 248 247 245 245 245
247 243 245 241 246 247 249 249 250 253 250 252 251 250 249 251 247 245 245 246 248 248 249 250 251 250 249 250 251 251 252 251 251 249 251 252 252 252 251 251 251 251 251 249 249 248 246 244 244 244 245 243 243 243
240 245 242 242 243 243 245 244 245 245 248 247 248 251 250 247 244 242 245 246 247 248 248 248 249 249 248 249 248 249 250 251 251 249 250 250 250 249 248 248 248 249 251 249 248 246 245 245 243 244 244 244 247 245
240 242 247 248 245 245 244 245 245 243 242 242 244 247 245 242 241 244 248 250 249 249 250 250 249 247 246 245 246 246 246 247 245 245 246 246 246 245 245 243 242 244 246 243 243 243 244 243 244 245 245 245 243 242
245 245 242 245 243 243 239 240 240 239 241 243 243 241 240 241 241 246 249 251 251 250 248 245 244 243 241 241 240 242 241 244 243 245 246 247 245 242 241 241 242 252 246 244 244 246 244 245 246 248 247 246 246 244
245 246 246 242 243 244 242 241 241 243 244 242 240 241 242 245 245 246 249 250 247 244 241 240 242 241 241 240 239 238 238 241 240 239 237 238 239 242 242 241 241 243 242 241 248 251 250 250 250 248 244 244 246 244
244 246 243 243 241 241 244 244 244 247 245 245 246 246 245 245 246 249 247 244 242 240 239 237 236 235 236 235 237 239 237 236 238 239 237 237 239 240 241 241 242 242 243 240 245 244 248 247 246 242 242 242 243 243
245 245 242 243 242 244 245 246 247 247 245 244 243 242 239 243 244 244 242 239 237 235 236 236 236 234 236 236 234 234 238 237 236 237 238 238 239 240 240 242 243 242 242 242 241 241 243 243 242 241 241 241 240 242
241 238 241 241 241 244 243 241 241 241 240 239 240 238 239 237 237 239 242 238 236 237 238 236 234 238 237 237 236 237 242 241 240 241 240 242 242 242 244 245 246 246 244 243 242 243 242 240 241 241 241 240 240 240
238 237 236 237 238 237 237 239 238 238 238 236 237 236 236 238 239 242 243 240 241 240 239 239 239 239 239 239 240 239 242 240 240 247 249 250 249 249 249 246 246 244 243 241 242 242 241 240 240 240 240 240 240 240

GFSWCAN_sfc_thetae_039.txt.gz
Theta_e
294 295 295 296 296 296 296 296 295 295 295 296 297 297 298 299 299 297 295 299 294 287 289 288 290 287 286 287 285 285 285 285 284 284 285 285 283 285 284 283 283 285 286 286 286 284 282 283 284 288 285 280 281 282
294 294 294 295 295 296 296 295 295 295 295 295 296 297 297 298 299 298 292 298 299 290 286 291 292 291 293 293 288 285 285 283 286 285 285 284 281 281 282 280 283 283 284 286 287 285 281 282 282 283 283 282 282 284
293 293 293 294 294 295 295 295 295 294 294 295 295 296 296 297 298 297 293 294 292 286 286 285 284 290 292 292 294 286 286 288 286 287 285 282 281 283 279 280 280 282 283 282 282 280 281 283 285 285 285 283 282 284
291 292 293 293 293 294 294 294 294 294 294 294 295 295 296 296 297 298 292 294 292 286 282 282 285 287 291 291 291 291 289 288 287 286 285 281 280 283 281 281 281 282 283 280 278 280 281 284 285 286 287 285 282 281
291 291 292 292 293 293 293 293 293 293 293 293 294 294 295 296 296 296 294 295 295 288 277 276 278 282 286 289 289 290 289 285 285 283 283 281 281 280 278 279 276 281 281 281 281 283 284 285 287 288 286 285 282 281
290 291 292 292 292 292 292 292 292 293 293 293 293 293 294 295 296 292 285 293 296 294 280 273 282 279 280 287 288 286 286 285 285 284 281 281 281 282 278 277 281 281 284 288 285 287 286 284 285 286 285 282 281 281
290 290 291 291 291 291 291 292 292 292 292 293 293 293 294 295 292 286 285 291 297 294 282 275 275 282 282 282 282 282 284 284 284 282 281 280 280 282 279 277 281 281 281 281 283 284 282 280 281 283 283 282 281 279
289 290 290 291 291 290 290 291 292 292 292 292 293 293 294 294 293 287 292 295 296 286 284 277 272 275 282 278 273 279 279 281 280 279 278 277 279 280 276 279 277 276 279 278 278 279 279 279 279 278 278 277 277 277
288 289 289 290 290 290 291 291 291 291 292 292 292 293 289 287 284 286 296 297 295 288 281 273 271 271 281 279 275 272 277 269 277 276 277 277 271 270 272 274 271 269 271 272 275 276 276 276 276 275 275 274 274 274
288 288 289 289 289 290 291 291 291 291 291 291 288 283 278 285 294 294 290 285 284 284 284 275 266 273 280 277 269 269 270 266 263 269 276 268 264 270 267 266 266 266 266 267 271 271 271 271 273 273 271 272 273 272
287 288 288 289 289 290 290 290 290 291 289 285 280 280 286 293 288 285 281 278 280 278 281 270 269 275 279 267 267 276 270 263 264 267 267 259 261 267 265 263 263 263 264 263 265 267 267 267 267 269 267 266 265 265
287 288 288 289 289 289 290 290 290 286 280 283 285 286 285 283 282 278 275 279 278 275 274 269 269 274 273 275 270 269 265 270 261 262 264 259 265 260 259 259 259 259 258 259 261 261 262 261 261 262 261 261 260 260
287 288 288 288 288 289 290 290 290 290 289 284 279 279 278 277 272 272 266 270 272 273 275 271 271 274 273 276 269 275 264 269 268 261 263 260 260 256 255 255 255 255 256 256 257 258 258 256 256 256 256 256 256 256
288 288 287 287 288 289 289 290 290 289 285 277 274 272 269 271 273 270 264 264 274 274 269 276 273 274 270 270 273 267 269 268 259 261 261 255 254 251 252 252 250 251 252 254 253 254 254 254 253 253 252 253 253 253
288 287 285 285 286 287 288 289 289 288 282 274 269 270 263 262 267 267 268 265 275 279 278 275 272 275 270 273 272 269 268 264 262 261 253 254 253 252 251 250 248 250 251 251 250 251 252 252 252 251 249 249 251 253
286 284 281 285 285 287 287 290 283 276 268 262 258 267 264 258 263 264 269 272 268 278 279 277 275 272 272 271 269 267 265 261 255 249 252 253 251 250 248 247 248 249 250 251 250 250 252 252 250 247 249 250 250 251
281 272 282 284 284 282 282 276 272 267 265 260 253 258 258 255 257 259 260 261 264 270 273 275 271 270 273 265 258 254 249 250 251 251 253 253 251 251 250 248 248 249 249 249 249 250 250 250 250 252 251 248 248 247
270 275 282 283 280 277 270 270 268 264 258 259 256 255 255 255 253 255 256 259 261 263 265 261 263 255 253 252 250 250 253 253 254 253 253 252 250 251 252 250 249 250 249 249 249 249 250 251 251 249 246 246 248 248
275 277 280 281 277 270 266 264 266 259 259 258 260 261 258 256 256 255 255 257 257 256 255 252 247 247 246 248 248 251 251 252 253 253 252 252 252 252 252 253 253 252 252 251 252 251 250 250 249 250 249 251 251 250
278 278 278 277 275 267 263 261 265 260 258 259 258 257 256 255 255 254 252 253 253 250 246 245 244 245 247 249 250 251 252 253 253 252 252 253 254 253 252 253 253 252 253 251 253 252 249 250 251 251 249 249 249 248
270 269 271 268 265 263 260 260 259 261 257 256 257 258 256 255 252 251 250 252 248 247 245 247 247 249 251 250 251 251 251 252 251 251 251 252 253 253 253 253 253 252 251 250 249 250 250 248 249 249 247 246 246 247
262 270 259 262 263 261 259 260 260 261 259 256 256 256 252 251 250 249 252 247 246 247 248 248 249 249 250 249 249 248 249 252 252 253 253 253 251 250 250 251 251 249 249 247 247 246 247 247 247 246 246 246 246 246
263 262 256 254 255 256 254 261 258 258 256 255 255 252 251 250 251 254 247 248 248 250 250 250 250 251 251 250 250 251 252 251 251 251 252 252 251 251 251 250 250 250 249 250 249 248 246 248 247 247 246 246 245 246
259 250 247 246 247 246 254 251 255 255 255 253 251 248 249 250 253 248 244 246 248 250 250 250 251 250 250 250 249 249 250 251 251 251 252 251 250 249 250 250 250 250 250 250 249 249 249 247 248 246 245 242 241 242
246 242 243 239 244 245 248 247 247 250 249 251 249 248 248 251 246 245 244 245 247 248 248 250 250 250 248 248 249 249 251 251 250 249 249 249 247 248 249 249 249 249 249 248 247 247 248 247 248 246 245 243 246 244
239 242 240 240 241 241 244 244 244 244 246 247 248 250 249 247 244 242 244 246 247 248 248 248 248 248 247 247 246 246 246 248 246 247 245 245 245 245 245 245 245 247 248 245 244 243 244 244 242 243 243 243 245 241
239 240 245 247 244 243 243 244 245 244 242 242 243 246 246 242 241 244 248 250 249 248 249 248 246 243 242 242 244 243 243 244 244 244 244 244 244 241 241 240 240 242 241 240 239 238 239 240 241 242 243 241 240 240
245 245 241 244 243 242 239 241 241 240 241 243 245 242 242 242 242 247 249 251 250 248 246 243 241 240 240 241 239 241 241 241 245 247 247 245 240 239 238 239 240 251 243 242 243 244 241 241 243 244 242 243 245 244
246 247 245 242 241 241 241 240 241 244 245 243 243 242 242 245 245 247 248 248 245 245 242 241 242 239 240 239 239 236 236 238 240 238 237 237 237 241 239 240 239 241 240 237 246 251 250 250 249 247 244 243 244 244
244 245 242 241 240 240 243 243 242 245 246 244 246 246 245 245 246 248 245 243 242 240 239 238 236 237 236 237 236 238 234 233 237 239 237 237 238 239 238 239 240 240 240 236 243 243 247 244 244 239 240 241 241 242
244 244 242 242 242 243 244 245 243 242 241 240 239 240 239 241 243 242 242 237 235 234 237 236 235 231 235 235 234 234 238 236 234 236 235 237 238 238 239 241 242 240 238 239 241 240 242 242 241 240 240 239 240 241
240 237 241 240 241 242 240 237 236 236 235 237 236 234 236 237 237 238 240 236 236 237 238 234 234 238 236 235 235 236 241 240 239 241 239 240 240 241 242 243 242 240 241 244 242 241 241 240 240 240 241 240 240 240
234 234 233 235 237 237 236 236 237 236 236 234 236 233 233 237 240 242 242 238 240 239 238 237 237 237 236 237 238 238 241 239 239 247 250 249 249 249 249 247 244 244 244 243 243 243 241 241 240 240 240 240 240 240

GFSWCAN_sfc_thetae_042.txt.gz
Theta_e
295 296 296 296 296 296 296 297 297 297 297 296 296 296 297 298 299 296 292 296 292 285 288 290 291 287 287 285 284 281 285 285 284 284 285 285 284 286 285 286 285 286 285 285 285 283 281 282 284 288 285 281 281 282
295 295 295 295 295 295 296 296 297 297 296 296 296 296 296 297 298 297 290 295 297 288 286 290 291 291 291 290 290 286 286 284 289 286 285 283 283 283 286 282 283 284 289 287 288 286 281 282 281 283 282 279 281 283
294 294 294 294 294 294 295 296 296 296 296 296 295 296 296 296 297 296 291 292 292 285 285 285 286 288 291 292 294 287 286 288 286 287 286 283 280 280 280 280 277 282 284 284 285 283 281 282 285 286 283 282 282 282
293 293 293 293 293 294 294 295 295 296 296 295 295 295 295 295 296 296 291 294 292 285 281 283 286 288 290 290 291 292 290 288 288 287 285 282 279 282 278 279 278 280 284 279 278 281 281 283 285 287 285 285 284 283
292 292 292 292 292 293 294 294 295 295 295 295 294 294 294 295 295 294 291 293 294 287 280 279 282 285 287 290 290 290 289 286 285 283 283 282 282 279 276 280 278 281 281 279 280 284 286 285 287 288 286 285 283 281
291 291 291 291 292 293 293 293 293 294 294 294 294 294 294 294 295 288 278 290 295 292 280 275 282 277 283 288 288 287 287 285 285 284 282 282 281 281 278 277 280 282 283 286 284 285 283 282 286 287 286 285 282 280
290 290 290 291 292 292 293 293 293 293 293 293 293 294 294 294 289 285 278 288 296 293 282 275 275 281 282 284 283 283 284 284 284 283 281 281 280 283 280 273 278 280 281 281 282 285 284 279 281 284 285 283 281 279
290 290 289 290 291 291 292 292 292 292 292 293 293 293 294 294 292 287 290 294 294 287 284 276 274 277 282 278 278 281 281 282 281 280 279 279 280 281 277 275 274 274 278 277 277 279 279 278 278 277 278 278 278 277
289 289 289 290 290 291 291 291 291 291 292 293 293 293 288 284 281 283 293 294 292 286 279 275 272 271 281 279 277 277 280 276 277 277 278 280 275 276 273 273 270 268 270 271 274 275 275 275 275 274 275 275 275 274
288 289 288 289 289 290 290 290 291 292 292 292 286 279 278 282 291 292 285 281 284 283 282 275 272 271 279 276 271 268 269 265 263 270 276 275 270 269 266 266 265 265 266 267 270 271 270 270 271 270 269 269 270 270
288 288 288 288 289 289 290 291 291 291 290 284 278 278 279 292 281 277 276 277 279 278 281 276 274 275 278 269 267 275 270 262 265 266 267 261 264 267 265 262 262 263 264 263 266 266 266 266 268 268 266 264 264 264
287 288 288 288 288 289 290 291 291 286 279 281 282 285 283 282 278 275 272 277 276 276 274 274 273 277 277 275 271 271 264 263 261 260 263 264 265 259 258 258 258 258 258 259 260 261 261 261 262 262 261 260 259 259
287 287 288 289 289 289 290 290 291 289 288 277 273 274 277 276 272 265 266 271 272 274 275 273 274 276 274 275 269 273 265 265 266 263 265 261 259 256 254 255 255 255 256 256 257 257 257 256 256 256 256 255 255 255
287 287 288 288 288 287 289 290 290 289 280 272 273 266 271 269 265 270 261 268 273 272 269 278 273 274 275 271 273 268 267 268 264 263 263 254 254 252 252 251 249 251 252 254 253 254 254 254 253 252 252 252 252 252
288 288 287 286 286 286 288 289 289 286 280 275 271 262 263 260 265 265 266 267 270 270 277 276 276 277 273 272 273 269 267 263 263 262 252 253 252 252 251 250 249 250 251 250 250 251 252 252 251 250 249 250 251 252
289 285 281 284 284 286 286 285 281 276 269 267 259 260 258 263 261 260 259 265 264 264 276 279 275 273 271 271 268 265 265 262 257 247 250 252 251 250 248 249 250 250 250 249 249 249 251 250 249 247 248 249 250 250
281 272 282 284 285 283 283 275 272 266 264 259 255 251 252 250 253 256 254 257 260 261 274 276 271 270 271 263 258 251 248 247 248 249 251 251 251 250 249 250 250 250 249 249 247 248 247 246 247 251 250 246 246 246
271 275 283 284 280 276 270 270 267 263 259 260 256 253 252 252 250 253 254 256 257 260 261 258 261 255 253 255 249 249 251 251 251 251 251 251 251 251 251 250 250 250 249 248 247 246 247 248 250 248 246 245 248 247
275 276 281 282 277 269 266 265 266 259 258 259 259 258 256 253 254 254 253 255 256 255 254 251 247 246 246 249 249 250 251 251 251 252 252 252 253 252 252 253 252 252 251 247 248 249 249 247 246 247 246 248 248 246
278 278 278 277 274 267 262 262 266 261 256 257 257 255 255 253 254 252 251 252 252 249 245 244 244 246 247 248 249 250 251 253 252 251 251 253 254 254 253 254 253 253 252 251 251 250 249 250 250 248 247 247 248 246
269 269 270 267 263 262 261 261 260 261 258 257 259 257 254 253 250 250 249 251 248 246 245 245 245 248 249 249 250 251 252 254 253 253 252 251 253 253 252 252 252 251 250 249 248 247 248 246 245 245 245 244 243 244
261 268 259 262 261 258 259 260 260 261 258 256 256 254 251 250 248 248 251 247 246 247 248 248 248 249 249 249 250 251 252 253 253 254 254 253 251 251 250 251 250 249 248 245 244 243 243 244 245 245 245 245 246 246
262 260 255 253 254 252 252 259 257 257 255 254 254 251 250 249 250 253 246 247 247 250 250 250 251 251 250 251 252 252 252 253 251 251 251 250 250 250 250 249 249 246 246 247 245 244 244 248 247 247 246 247 246 246
258 249 245 244 246 244 251 250 254 254 255 252 250 248 248 249 251 247 244 245 247 250 249 250 251 250 251 250 249 249 250 252 251 251 251 251 249 249 249 247 246 246 246 246 245 244 246 246 249 248 248 247 247 247
246 241 243 238 243 243 245 246 246 249 248 250 248 247 248 250 246 244 243 245 247 247 248 250 249 249 248 248 249 249 249 249 250 248 248 250 249 247 245 245 244 243 242 243 242 242 243 244 245 246 246 246 246 245
238 241 239 239 240 239 242 242 243 243 246 246 247 249 249 246 243 242 244 246 247 247 247 247 247 247 247 247 247 247 246 246 247 246 245 243 243 242 240 240 240 242 241 239 239 240 239 240 239 239 240 240 242 239
238 240 244 246 243 242 242 244 245 243 241 242 243 246 246 242 241 244 248 250 248 248 248 247 248 247 247 246 247 246 244 241 241 242 240 240 241 239 240 239 240 241 239 238 237 237 238 237 238 239 240 239 238 240
244 244 241 243 242 240 239 241 242 241 242 243 244 242 242 241 241 247 249 250 248 247 246 245 245 245 245 244 241 242 244 242 244 243 242 241 238 238 237 237 239 249 241 240 241 242 238 239 239 242 241 242 243 242
245 246 245 241 241 243 242 241 242 244 245 243 243 242 242 245 245 247 248 248 247 247 245 244 243 240 239 238 237 235 235 239 242 239 238 238 238 241 238 238 237 238 238 236 245 250 248 248 247 245 241 241 243 242
245 244 242 241 240 241 243 243 243 245 246 245 246 247 245 245 246 247 246 244 244 242 239 237 235 235 236 236 237 238 236 235 238 240 238 239 240 238 236 237 238 239 238 235 241 241 246 243 242 238 240 240 240 241
245 245 244 243 242 242 243 243 242 242 242 242 242 242 240 240 244 243 243 237 236 235 237 238 237 234 236 237 236 237 240 238 236 236 235 235 236 236 237 239 240 238 236 235 237 237 241 241 239 240 240 240 240 241
241 237 241 241 242 242 239 237 234 233 236 239 239 236 239 240 240 242 243 239 238 240 241 237 237 241 240 240 236 235 241 239 238 240 239 240 239 239 240 241 240 236 238 241 241 242 241 240 240 241 241 241 241 241
233 233 232 234 237 237 235 235 236 236 235 234 235 231 232 236 240 242 241 237 240 240 238 238 239 237 238 238 239 238 241 239 239 246 249 249 249 249 249 245 243 242 242 243 244 243 242 241 241 242 241 241 241 241

GFSWCAN_sfc_thetae_045.txt.gz
Theta_e
296 296 297 297 297 297 297 297 297 297 297 298 298 298 298 297 297 296 293 295 288 284 285 287 289 284 286 286 284 281 284 285 285 284 283 284 284 285 285 286 285 286 285 285 286 283 282 283 286 287 285 281 281 282
296 296 296 296 297 297 297 296 296 296 297 297 298 298 297 297 297 297 290 295 294 285 286 290 291 291 292 291 287 283 282 279 287 285 285 285 284 284 286 281 283 285 288 286 286 286 284 283 283 283 282 279 280 281
295 296 296 296 296 296 296 296 296 296 296 297 297 297 297 296 297 295 290 292 291 284 284 284 284 289 291 291 294 287 286 286 284 283 282 283 280 285 282 284 280 282 283 287 287 284 280 282 284 284 282 281 281 281
294 295 295 295 295 295 295 295 295 295 296 296 297 297 296 296 296 296 287 289 290 285 280 281 286 287 290 291 292 293 290 289 289 288 285 284 282 283 280 284 283 283 285 284 284 279 281 281 283 285 285 285 285 282
294 294 294 294 294 294 294 294 294 295 295 296 296 296 296 296 295 292 288 290 292 285 279 274 279 283 286 290 290 291 290 287 285 283 283 282 283 282 279 280 279 282 283 284 283 284 285 284 286 287 286 286 286 282
293 293 293 293 293 292 293 293 293 294 295 295 296 296 295 295 294 287 277 286 291 291 282 276 280 278 283 286 288 288 290 287 286 284 284 283 282 282 279 279 282 283 283 286 284 284 282 284 287 288 287 286 282 281
292 292 292 292 291 291 292 293 293 294 294 295 295 295 294 294 288 282 277 284 292 291 281 277 269 280 282 284 284 283 285 285 285 284 281 280 279 282 281 277 276 277 279 279 281 285 281 280 284 287 286 283 280 278
292 292 291 291 290 291 291 292 293 293 294 294 294 294 294 294 292 286 288 293 293 286 283 275 269 272 282 279 279 283 281 282 282 282 280 279 279 281 278 277 275 275 278 277 277 279 280 278 278 279 280 280 278 277
291 290 290 290 290 291 292 292 293 293 293 293 293 293 288 287 280 281 292 293 290 285 276 274 268 268 281 280 280 278 282 276 279 278 279 280 277 277 277 275 272 269 271 272 276 276 276 275 275 275 276 276 275 274
290 289 289 289 290 291 291 292 291 292 292 292 288 281 277 279 289 290 282 273 274 282 280 274 275 273 278 277 275 275 275 274 273 276 278 276 275 268 266 266 266 266 267 267 273 272 272 272 272 270 269 270 270 270
288 289 289 289 289 290 291 291 291 291 291 285 280 275 278 289 281 280 276 274 270 267 279 272 278 275 280 270 271 276 272 268 267 267 272 269 264 268 264 262 263 263 265 264 267 268 268 270 270 268 266 266 266 265
288 288 288 288 288 289 290 290 291 288 284 283 281 284 282 276 273 273 266 265 266 266 275 269 273 277 278 278 275 272 270 265 264 260 263 263 266 261 261 260 259 260 260 260 262 263 263 263 264 263 261 261 260 260
287 288 288 288 289 289 290 291 291 289 288 282 276 271 275 267 268 269 264 262 264 268 267 271 274 276 277 278 275 273 270 268 266 265 264 263 259 256 255 255 256 256 257 258 258 258 258 258 257 257 257 256 256 255
287 287 287 287 288 289 290 290 292 289 281 272 271 265 268 266 272 270 267 262 267 270 274 277 272 274 278 275 275 270 269 270 265 264 262 254 253 252 253 251 249 251 253 254 254 255 255 255 253 253 252 252 254 253
288 288 288 287 287 288 289 290 291 286 278 271 268 267 263 260 266 266 265 265 263 263 274 276 276 278 273 273 274 269 265 264 263 262 252 252 252 252 251 250 249 250 251 251 251 252 252 252 251 250 250 250 252 252
288 284 281 285 286 287 288 282 278 277 267 266 260 263 254 258 259 259 256 258 260 259 264 276 275 273 271 271 266 262 265 263 257 244 249 251 250 250 250 250 250 250 250 250 250 251 251 250 249 247 249 249 249 250
281 271 283 285 285 284 282 272 271 265 263 260 254 253 251 252 253 253 253 256 258 259 269 271 271 267 270 263 259 251 249 247 247 247 249 250 250 250 250 250 250 250 250 250 249 249 247 245 247 251 249 246 247 247
271 276 285 285 279 275 270 269 266 262 254 255 252 249 251 250 249 249 251 255 255 256 260 256 258 254 253 257 250 248 249 249 250 251 251 251 251 251 252 251 251 251 251 250 250 249 250 251 251 248 247 244 249 248
276 279 284 282 277 270 266 264 265 257 254 255 257 256 253 250 253 253 252 255 255 253 253 251 247 244 245 247 246 248 249 250 250 251 252 252 253 252 253 253 253 252 251 250 250 249 249 248 247 248 248 249 248 247
277 278 278 277 274 267 262 262 266 260 257 256 256 254 253 251 252 250 251 252 252 249 245 245 244 245 246 248 250 250 252 254 253 251 252 253 254 254 253 253 253 252 252 251 251 252 251 251 250 249 247 247 248 246
269 269 271 267 262 262 260 261 260 260 258 256 258 256 253 253 249 248 248 251 248 246 245 247 247 249 250 250 251 251 252 254 253 253 252 251 253 253 252 252 252 251 250 250 249 248 248 247 244 243 245 243 242 243
261 267 258 261 260 257 256 259 260 260 256 253 254 254 250 249 248 247 250 246 246 246 247 248 248 249 249 248 250 251 252 253 254 254 254 253 252 251 250 251 251 249 248 247 248 246 245 245 243 243 245 242 244 245
261 259 254 252 253 251 251 257 256 257 254 252 252 250 250 249 250 252 245 244 245 248 248 248 250 249 249 250 251 251 252 252 251 251 251 250 250 250 250 250 250 249 248 248 248 246 245 248 247 246 244 244 243 243
257 248 245 244 245 241 247 248 253 254 253 250 249 246 247 249 251 247 243 243 245 248 249 249 250 249 250 249 248 248 249 252 251 250 251 250 248 248 248 247 247 247 247 246 245 245 245 244 246 245 244 242 241 242
245 240 242 238 242 241 242 242 246 249 247 249 247 246 246 249 245 244 243 242 245 246 247 249 249 249 248 248 249 248 248 250 250 248 248 249 248 247 246 245 244 243 243 245 243 243 241 241 241 240 240 239 239 239
238 240 238 237 239 238 239 239 242 243 246 245 245 247 247 247 244 241 242 243 245 247 246 247 248 248 246 247 248 247 246 246 250 248 247 246 248 247 243 242 242 243 240 238 239 239 238 238 237 237 239 239 241 239
238 239 242 244 241 241 240 241 244 244 242 241 242 245 245 242 241 243 247 249 248 247 248 247 248 248 247 247 247 246 246 246 247 247 244 244 242 241 242 242 241 242 238 237 236 236 238 237 237 238 239 238 237 238
243 244 240 242 240 237 236 238 240 241 242 243 244 241 241 240 241 246 248 249 247 247 246 246 246 246 246 245 244 245 246 246 246 246 245 244 238 238 237 236 237 247 240 239 240 240 237 238 238 240 241 241 241 239
244 245 244 241 241 242 242 240 239 243 245 243 243 242 242 244 243 245 248 248 248 248 246 246 245 244 245 244 243 242 241 243 242 240 238 238 238 241 237 237 237 237 237 235 244 250 247 246 247 246 244 241 242 241
244 245 243 241 240 241 243 243 243 244 246 246 246 247 245 245 246 247 247 246 245 244 243 242 241 242 241 241 240 240 235 234 237 241 239 238 239 238 235 236 237 237 236 234 240 241 245 243 242 238 240 240 240 241
245 245 244 243 242 242 243 243 245 247 245 244 245 244 243 243 246 246 245 241 240 238 239 239 239 234 236 236 235 236 239 236 235 236 235 235 235 235 237 238 239 237 235 235 236 236 239 240 239 240 239 240 241 241
242 239 242 243 242 241 239 239 239 241 241 243 242 241 242 243 242 244 244 241 241 240 241 236 235 239 238 237 235 235 242 238 238 240 238 240 238 239 240 240 240 237 237 240 240 241 241 240 241 241 241 241 242 242
233 235 234 236 239 238 236 234 236 236 236 236 236 232 232 237 241 243 241 238 240 240 239 239 239 237 237 238 238 238 241 239 239 246 249 248 248 248 248 246 243 242 242 242 243 243 242 242 242 242 242 242 242 242

GFSWCAN_sfc_thetae_051.txt.gz
Theta_e
292 292 293 294 295 299 298 301 300 301 301 300 300 300 301 301 301 296 291 294 288 283 280 285 284 279 279 278 275 273 276 277 276 276 279 278 278 275 280 280 281 282 282 282 284 281 279 284 285 286 288 283 282 284
292 292 293 293 294 295 294 300 300 299 300 299 299 300 300 300 300 298 289 293 293 285 278 288 287 288 287 286 282 283 277 277 282 273 275 276 279 282 277 276 285 282 285 284 286 285 288 290 290 293 288 285 284 285
291 292 292 293 294 295 295 298 299 299 299 299 299 300 300 300 300 298 290 291 290 284 282 283 282 286 289 289 291 282 280 285 284 287 279 283 280 282 279 280 277 284 288 283 283 285 288 290 293 294 286 285 284 285
291 291 292 292 293 294 294 295 298 298 298 299 299 299 299 300 299 299 290 291 288 283 273 274 283 283 286 288 289 290 287 287 288 286 284 282 278 282 280 281 279 283 282 284 285 285 285 289 287 289 284 284 283 284
291 291 291 291 292 293 293 293 298 298 298 298 298 299 298 298 299 297 293 291 291 283 272 270 277 283 285 286 287 288 287 285 284 282 281 280 282 282 281 279 279 282 284 282 282 283 286 286 285 286 285 284 284 283
291 291 291 291 293 293 292 296 297 297 298 298 298 298 298 298 298 290 283 289 292 288 278 269 277 276 280 282 287 286 286 285 285 284 282 285 287 284 280 278 283 286 284 285 287 284 284 284 284 285 285 286 282 283
290 291 291 292 292 294 295 296 297 297 298 298 297 296 297 297 293 285 281 284 293 290 280 273 266 275 279 281 282 282 285 285 284 283 282 282 281 284 281 278 284 287 285 284 282 281 282 283 285 286 285 281 280 278
290 290 290 293 294 294 295 296 296 297 297 296 295 296 296 297 294 287 291 293 293 285 279 265 265 269 281 278 277 279 280 283 283 282 281 279 278 282 278 281 283 281 279 278 279 279 280 279 283 282 280 279 278 276
290 290 291 292 293 295 295 295 295 295 294 294 295 295 291 289 283 284 294 294 289 281 274 274 266 263 279 279 280 280 281 276 281 279 279 278 276 274 278 281 282 281 276 276 275 274 275 279 281 279 278 277 275 273
289 290 291 293 294 293 293 293 293 294 294 294 289 284 279 283 291 291 285 280 280 281 279 267 262 264 277 277 272 270 274 272 271 274 279 276 275 280 278 271 269 270 269 268 271 275 276 277 278 277 275 276 275 273
291 291 292 293 292 292 292 292 293 293 293 285 280 278 283 291 283 278 274 273 269 269 271 268 270 267 273 266 266 277 269 270 269 269 274 266 265 273 266 264 265 266 267 265 268 269 271 274 274 272 271 271 270 269
290 290 290 290 290 291 291 292 292 288 285 284 282 284 281 277 274 271 266 267 264 264 261 271 268 274 268 273 270 270 267 266 266 270 269 262 269 261 262 261 260 260 262 264 265 265 265 265 266 266 265 265 265 265
289 289 290 290 290 291 291 293 291 291 288 283 278 274 274 270 267 264 261 260 258 256 267 271 270 271 275 277 272 270 266 265 269 268 266 264 258 256 255 257 258 259 261 262 261 262 261 260 260 262 260 260 260 259
288 288 288 288 289 290 291 292 291 288 281 275 272 267 265 263 260 258 258 258 258 260 254 261 265 274 270 274 272 267 268 267 266 265 263 252 252 252 254 254 256 256 257 258 258 258 258 257 256 256 256 257 258 256
288 288 288 287 288 289 290 292 287 278 275 270 268 262 259 255 256 253 250 255 254 254 255 259 264 274 273 271 275 269 265 265 267 263 250 251 252 252 253 254 254 255 255 255 256 256 256 255 254 254 254 255 255 255
287 285 285 289 289 289 288 283 277 271 261 261 253 255 253 255 251 249 247 251 255 255 258 259 262 271 265 266 265 266 265 260 254 248 249 251 251 251 252 253 253 254 254 254 254 254 254 254 253 252 253 253 253 253
283 274 286 286 284 283 282 272 268 262 259 258 252 249 247 248 247 245 247 252 256 255 263 262 264 266 266 264 256 246 250 248 247 248 250 251 250 250 252 252 253 253 253 253 253 253 253 254 255 254 252 251 251 251
276 281 285 283 275 274 268 268 263 259 254 255 252 246 248 247 245 243 247 253 253 254 257 258 258 257 256 259 252 248 248 247 250 250 251 252 252 252 253 252 252 253 252 253 253 254 254 254 253 251 252 253 252 252
278 279 282 281 274 263 262 262 262 255 254 252 254 252 249 246 250 250 249 253 254 253 253 253 250 248 248 248 248 249 250 250 250 251 252 253 253 253 252 252 252 252 252 252 252 252 251 252 253 254 254 254 252 252
276 277 277 276 273 263 258 258 259 255 251 253 252 249 250 249 249 245 248 250 251 246 245 244 243 244 247 249 250 250 251 253 253 251 252 252 253 253 252 252 252 253 253 253 253 254 253 252 252 252 253 253 252 250
268 268 269 266 261 260 257 256 256 256 254 252 252 252 251 249 244 243 244 249 246 244 244 243 242 243 248 249 250 250 252 253 253 253 252 251 252 252 252 252 252 252 252 251 251 250 250 249 250 251 251 250 250 251
262 267 257 260 258 256 254 254 256 257 253 250 251 250 247 246 247 246 249 246 245 244 243 243 244 243 244 246 248 248 251 252 252 253 253 253 251 251 250 251 251 249 249 249 250 249 249 250 250 250 250 249 250 249
260 259 253 251 252 250 249 252 249 248 247 248 248 247 247 245 247 252 245 244 244 247 245 244 245 247 246 248 249 249 252 251 250 250 250 249 249 250 249 249 251 250 248 248 250 249 249 250 250 250 250 249 249 248
256 247 244 243 244 241 243 243 246 246 246 245 246 244 244 245 250 246 241 242 245 247 246 247 247 246 247 248 246 247 248 250 250 250 250 249 248 247 248 248 248 248 249 249 249 248 248 248 249 248 248 247 246 245
247 239 242 237 241 240 239 238 240 243 241 243 244 245 245 247 244 241 241 241 245 246 247 246 246 246 245 246 248 248 249 249 249 248 248 248 247 248 247 247 246 246 247 249 248 247 247 247 246 246 246 245 245 243
237 238 237 234 238 237 237 236 236 237 238 239 241 244 246 247 245 241 239 243 245 245 244 244 243 245 245 246 247 248 247 247 250 248 247 249 250 250 249 248 248 247 246 246 247 246 246 245 244 243 243 243 244 242
237 236 239 238 238 239 239 240 238 237 235 236 237 241 246 244 242 242 244 246 244 243 245 246 244 246 246 246 247 247 247 247 248 248 247 247 247 247 249 249 248 247 245 245 245 245 245 245 245 244 243 242 239 239
239 239 237 238 237 233 233 233 233 234 236 239 239 239 240 240 240 243 246 247 243 244 244 244 245 244 244 245 246 248 247 247 247 247 247 247 247 247 247 246 247 250 246 245 245 244 243 241 240 238 238 240 242 239
241 241 239 237 237 237 236 235 234 235 240 236 238 239 239 241 241 241 243 246 247 246 245 245 242 242 243 245 246 246 246 248 248 248 248 249 248 247 246 245 244 244 243 241 245 250 246 243 243 244 243 243 243 239
242 242 240 238 237 237 240 239 237 241 243 244 245 245 244 243 243 245 244 243 244 245 244 239 239 239 242 245 247 247 246 246 247 247 248 248 247 245 244 243 242 239 236 233 240 240 244 243 241 237 238 239 240 240
244 241 240 240 241 241 241 241 242 244 245 243 243 242 243 244 246 246 246 242 242 243 241 240 239 240 240 243 243 245 247 244 243 243 242 241 239 236 237 239 239 235 234 235 237 236 238 238 236 237 238 239 240 241
242 239 242 243 243 242 241 242 243 243 244 244 243 244 244 244 245 246 246 242 240 242 245 243 240 243 242 242 240 241 245 240 241 242 240 240 239 239 239 239 238 237 237 239 239 239 239 238 239 240 240 240 241 241
235 237 238 241 241 242 240 239 243 243 243 242 242 240 240 242 245 245 245 244 244 246 245 245 244 240 239 240 240 240 242 239 239 246 249 248 246 245 242 242 242 242 241 242 242 242 241 241 241 241 241 241 242 243

GFSWCAN_sfc_thetae_054.txt.gz
Theta_e
292 292 293 293 292 293 294 295 296 297 299 302 302 302 302 302 302 297 294 296 291 285 284 286 287 283 284 284 280 281 282 282 282 279 278 279 279 281 281 283 282 283 283 282 283 280 278 290 291 288 290 292 290 290
293 292 292 292 293 292 294 294 295 295 300 301 302 302 301 302 302 300 290 296 296 288 285 290 290 291 290 289 286 282 284 279 285 282 281 282 280 283 280 276 286 280 285 283 285 286 290 292 291 294 292 291 293 293
291 292 292 292 292 292 293 294 295 295 296 300 301 299 301 302 302 300 291 293 291 285 284 284 284 289 291 291 293 283 286 287 286 289 285 283 279 283 277 278 280 284 288 285 284 287 289 291 292 292 293 293 295 293
291 291 291 291 292 292 292 293 294 296 294 298 301 301 301 301 301 301 290 293 291 285 279 280 286 286 290 291 290 291 289 289 289 287 283 281 279 285 280 282 281 285 285 285 284 287 288 289 291 293 294 295 293 294
290 291 291 291 291 292 292 293 293 295 295 294 299 300 300 301 301 299 293 293 293 286 278 278 281 286 289 289 288 289 288 287 285 282 281 279 284 283 284 283 280 285 283 281 281 287 287 288 291 290 291 292 293 290
291 291 291 291 292 292 292 293 293 294 294 294 300 300 300 300 300 294 282 291 293 291 282 275 282 280 284 287 287 286 286 285 285 283 281 284 286 284 279 278 284 287 288 288 285 290 290 292 290 289 288 289 290 286
291 291 291 291 291 292 292 293 293 293 293 296 299 299 299 300 296 286 284 289 294 292 282 276 276 279 281 282 283 284 286 284 284 283 282 282 283 284 281 277 283 286 287 288 290 287 285 286 286 288 287 288 285 282
290 290 291 291 291 291 291 292 293 294 295 298 299 299 299 298 294 287 291 295 293 286 282 272 272 275 281 278 278 283 281 283 282 282 283 280 282 282 277 282 284 285 286 285 286 286 287 285 283 285 283 281 280 279
290 290 291 291 292 291 292 292 294 296 297 297 298 297 295 289 284 286 294 296 290 284 276 273 271 270 280 279 281 281 282 276 282 278 279 280 278 275 279 282 283 285 283 284 280 279 279 278 281 283 281 280 279 276
290 291 291 292 292 292 293 294 296 297 297 297 292 284 280 285 293 291 286 281 282 282 277 273 272 272 278 277 277 277 279 276 273 277 281 277 276 281 282 282 275 273 273 272 274 276 275 278 280 281 280 279 279 275
291 291 292 293 294 295 295 295 297 296 293 284 281 278 287 292 284 280 276 275 274 274 276 273 273 273 278 274 274 277 274 275 270 274 274 273 273 278 266 265 265 265 267 268 268 271 271 273 276 277 275 274 273 272
291 289 292 292 292 294 294 294 294 287 285 283 283 286 283 280 277 273 270 270 271 269 270 272 273 277 275 277 275 274 272 271 268 273 272 270 275 260 258 259 260 261 261 263 264 265 266 267 268 270 268 268 268 268
290 290 291 291 291 292 293 294 292 291 288 283 280 277 276 272 269 268 265 265 266 265 270 273 272 274 276 278 274 271 269 269 270 269 268 272 258 256 255 256 257 260 260 262 262 262 262 261 263 264 262 262 263 262
289 290 290 291 291 291 292 293 292 289 282 277 272 268 269 267 265 265 266 266 263 265 265 271 270 274 273 274 275 271 272 269 267 264 267 255 253 252 254 255 255 256 258 259 260 260 259 258 257 258 259 261 260 259
289 289 289 288 290 292 292 290 284 276 275 272 272 266 263 258 256 256 256 258 256 258 261 264 267 274 273 273 274 272 267 264 266 267 256 253 252 253 253 253 254 254 256 257 257 257 257 257 256 256 257 258 258 258
288 288 286 290 290 289 286 279 274 269 261 261 255 260 257 259 257 254 252 253 256 257 259 262 262 267 269 271 267 266 265 265 263 251 251 252 252 252 253 253 254 254 255 255 255 256 256 255 254 254 255 256 256 257
286 281 286 285 284 282 281 271 266 260 258 256 252 251 251 251 250 250 250 253 256 256 262 265 263 266 266 267 262 253 260 250 250 250 252 253 252 252 253 253 253 254 254 254 254 255 255 256 256 255 253 253 254 254
275 281 284 283 277 275 268 268 263 258 251 253 250 249 250 250 249 249 250 253 254 256 258 261 261 261 263 259 258 251 251 252 251 251 252 253 253 253 253 253 254 254 254 254 255 256 255 255 254 253 254 254 254 254
277 277 281 280 274 267 264 262 263 255 252 252 253 252 251 250 251 251 250 254 253 254 255 255 256 256 254 250 250 250 251 251 251 252 253 253 254 253 253 254 254 253 253 253 254 254 254 254 255 255 256 256 254 255
276 276 277 276 271 262 258 258 261 256 254 253 254 251 250 251 250 248 249 250 251 249 248 247 247 246 247 249 250 249 250 252 253 252 253 253 254 253 253 253 254 254 254 254 254 255 254 254 254 254 254 255 254 253
268 269 269 265 260 258 255 255 256 255 254 253 254 253 251 250 247 246 247 249 247 245 245 245 246 247 246 247 249 249 250 252 253 254 253 252 253 253 253 253 253 254 253 253 252 252 252 251 252 253 252 252 252 253
261 266 258 260 258 254 253 253 255 256 253 252 252 251 247 245 245 246 248 246 245 245 246 246 245 246 246 244 245 246 249 249 251 253 253 253 252 252 251 252 252 251 251 251 251 251 251 252 252 252 252 251 252 251
260 259 253 251 253 251 249 252 250 248 249 250 250 248 246 245 247 251 244 244 245 248 246 244 244 243 245 246 245 246 246 247 249 250 250 250 250 251 251 250 252 251 250 250 251 251 251 252 252 251 251 251 251 250
255 247 244 243 245 242 243 244 247 245 245 244 244 242 242 243 249 245 241 240 245 247 245 243 244 247 248 248 247 246 247 250 250 250 251 250 249 248 249 249 249 249 250 250 250 250 250 250 250 250 250 250 249 249
248 239 242 238 242 241 240 239 240 243 240 239 242 242 244 245 243 240 241 243 245 244 246 246 245 247 246 246 248 248 249 251 250 249 249 250 249 249 249 249 248 248 249 250 249 249 249 249 249 249 249 248 248 247
237 237 237 234 238 238 238 237 236 237 236 237 238 241 242 245 245 241 241 243 242 242 244 246 245 243 243 245 247 247 246 248 251 249 249 250 251 251 250 250 250 249 248 248 249 248 248 248 247 247 247 247 246 246
237 236 238 237 237 239 238 238 237 237 235 236 236 238 241 241 241 241 245 246 244 244 246 246 245 245 244 244 246 247 247 248 248 249 249 249 249 249 250 250 250 248 247 247 247 247 247 246 246 246 246 246 245 245
238 237 237 237 236 233 233 232 233 234 235 238 237 237 237 240 240 242 246 247 243 244 243 243 244 244 244 245 245 247 247 248 248 248 249 249 248 248 248 248 248 251 248 247 247 247 246 245 245 245 244 243 244 245
238 238 237 235 235 236 235 235 234 235 239 234 236 237 237 239 238 239 243 245 244 244 241 242 243 241 243 244 243 245 247 248 249 249 249 250 250 249 248 247 247 247 246 246 247 251 249 246 246 245 245 244 245 243
241 239 237 236 236 236 238 238 235 237 237 240 240 242 241 240 240 240 240 240 241 241 241 241 241 244 243 241 243 245 247 248 248 249 249 250 250 248 247 247 247 246 245 242 243 244 245 245 244 241 242 242 243 243
242 238 238 238 240 240 240 240 240 241 243 242 241 240 241 242 245 243 243 243 243 238 239 239 238 237 238 239 240 242 245 246 247 247 247 246 246 245 245 245 245 243 240 240 241 240 241 241 240 240 240 240 241 242
241 239 241 241 242 240 239 239 240 241 242 242 242 243 243 244 244 245 246 244 243 242 243 242 241 244 244 244 241 240 245 242 245 246 245 245 244 244 244 243 241 238 238 240 240 240 240 239 240 241 241 242 242 242
236 238 238 240 241 241 240 238 243 242 242 242 242 240 241 243 246 246 246 247 246 247 246 246 245 241 241 242 243 243 244 242 241 247 250 249 247 247 242 241 240 240 241 242 242 242 241 241 242 242 242 242 242 243

GFSWCAN_sfc_thetae_057.txt.gz
Theta_e
293 293 293 293 293 293 294 294 294 294 295 296 298 298 300 303 303 299 294 299 293 286 288 290 290 287 287 287 282 283 284 283 283 280 279 279 278 281 280 281 282 282 282 281 282 279 276 292 292 288 290 292 292 293
292 292 293 293 293 293 293 294 294 293 294 295 297 298 297 302 302 302 291 297 298 290 288 292 292 293 292 291 288 285 285 285 286 282 283 284 279 282 281 276 285 279 284 282 285 285 291 294 293 295 294 291 291 292
292 292 293 293 293 292 292 293 294 294 293 294 296 297 297 301 302 300 291 294 293 285 286 286 286 292 293 293 294 284 287 288 287 290 285 283 279 283 278 279 281 285 289 283 283 286 289 293 295 295 294 292 295 295
292 292 292 292 292 292 292 293 293 293 293 294 296 297 296 301 302 301 291 294 292 288 281 283 289 289 293 293 293 292 290 291 290 289 284 281 279 285 280 282 281 284 285 283 283 286 288 289 291 293 293 294 295 296
291 292 292 292 292 292 292 292 293 293 293 293 295 296 295 302 302 299 293 294 295 288 281 282 284 289 290 291 290 291 290 288 286 282 281 279 283 282 283 283 280 284 282 281 280 286 285 287 291 292 292 293 294 293
291 291 291 291 291 291 292 292 292 292 292 293 295 295 295 301 301 291 283 292 295 293 283 277 285 284 288 288 287 288 289 287 285 282 281 284 286 283 278 277 283 286 287 288 285 288 289 290 291 293 291 291 291 291
290 290 290 291 291 291 292 292 292 292 292 293 294 296 294 300 297 288 285 289 296 292 283 277 278 281 286 287 287 286 287 285 283 282 281 282 282 283 279 275 282 284 286 286 289 289 287 289 287 290 290 290 288 287
291 291 291 291 292 292 292 292 292 292 292 293 294 295 295 299 297 288 291 296 294 286 284 277 276 278 284 280 279 285 281 283 283 282 283 281 282 282 276 280 283 284 285 285 286 288 287 288 289 286 286 285 283 284
291 291 291 291 291 292 292 292 292 292 293 294 295 294 295 292 284 285 294 297 291 286 277 278 274 273 282 281 282 280 282 276 282 278 279 280 278 274 278 280 281 283 282 282 279 280 281 281 283 283 284 284 282 284
291 291 291 291 291 291 292 292 292 293 294 294 290 286 281 284 294 294 285 282 282 281 280 278 281 274 280 279 278 279 280 277 274 277 281 277 275 280 281 281 270 270 270 270 272 277 276 275 277 279 280 283 283 283
292 291 293 291 292 292 293 292 292 293 293 285 282 281 287 294 286 282 277 277 276 275 279 277 280 275 281 276 276 280 276 277 271 276 275 275 274 279 266 266 265 265 266 266 267 267 269 270 271 271 273 279 278 278
291 292 292 290 292 292 292 293 293 289 285 285 284 286 284 281 278 274 271 273 274 272 274 276 277 280 279 281 278 276 274 274 269 277 273 270 275 261 259 259 260 260 261 261 263 264 264 265 266 265 268 272 272 272
291 292 292 294 294 292 292 294 292 292 290 286 282 278 277 273 270 269 267 268 269 272 274 276 275 277 278 280 277 274 270 270 273 270 270 273 261 257 255 256 257 258 259 259 260 261 262 261 260 261 264 264 266 265
290 291 292 292 294 293 292 291 291 288 284 278 275 269 271 269 271 271 273 272 268 273 275 277 274 275 277 275 275 270 273 272 268 267 269 266 255 253 255 256 255 255 255 256 258 259 259 259 259 258 260 262 263 262
290 291 291 291 291 290 287 285 282 274 272 271 274 267 266 261 260 260 262 264 260 266 272 273 274 277 275 274 275 274 268 267 269 269 263 256 254 253 254 254 254 255 255 255 257 257 257 257 257 257 258 260 260 260
287 287 285 288 289 288 285 278 272 271 261 262 257 263 262 264 260 261 261 259 260 264 266 272 271 271 271 273 271 270 269 267 269 256 255 255 254 253 253 254 254 255 255 255 256 256 256 256 255 255 256 256 258 259
285 282 286 285 283 282 280 271 268 260 258 258 254 254 256 257 256 254 257 257 259 263 269 270 267 268 270 268 268 265 268 256 253 254 254 254 253 253 253 254 255 255 255 255 256 256 256 257 257 255 254 255 255 255
275 280 283 284 279 275 268 268 262 259 254 255 255 252 253 254 254 254 255 257 258 262 264 267 266 266 266 266 267 257 254 254 255 254 254 254 254 254 254 253 254 254 255 255 256 256 257 256 255 255 255 256 256 256
278 278 280 280 276 269 265 263 263 255 254 255 255 254 253 253 253 254 254 256 256 257 261 261 263 264 263 255 254 253 253 253 253 254 255 255 254 253 254 255 255 255 254 255 255 254 255 256 256 257 257 257 256 256
275 276 276 275 274 267 261 260 264 258 255 254 256 254 253 252 252 252 253 253 255 255 255 256 255 250 252 251 252 252 252 253 253 253 255 255 255 255 254 254 255 255 255 255 255 256 256 255 255 255 255 256 255 254
270 269 270 268 262 260 257 258 257 257 257 254 256 255 252 253 251 251 251 252 253 249 250 249 249 250 249 250 251 251 252 252 253 254 254 254 255 254 254 254 255 255 255 254 254 253 253 253 253 254 254 253 253 254
263 267 261 263 261 258 256 255 257 258 256 254 254 254 252 251 250 250 251 250 248 247 248 249 249 249 249 249 249 250 250 250 252 254 254 254 254 253 253 253 254 252 252 252 253 252 252 253 254 254 253 253 253 253
261 261 256 255 256 255 251 255 254 253 253 252 253 251 249 249 250 253 248 247 248 249 248 248 248 247 248 248 247 248 248 249 252 252 252 252 252 253 252 252 253 253 251 251 253 252 252 253 253 253 253 253 253 252
256 248 246 247 249 247 249 248 251 251 251 251 251 249 248 249 251 249 247 247 248 249 248 247 248 250 249 247 249 249 249 251 251 251 252 252 251 250 251 251 251 251 252 252 252 252 252 252 252 252 252 252 251 251
252 241 245 242 245 245 245 245 245 248 246 246 247 247 247 249 248 247 247 246 247 247 248 248 249 250 249 249 250 249 248 251 251 250 250 251 250 250 250 250 250 250 251 252 251 251 251 251 251 251 250 250 250 250
239 240 241 241 242 243 242 243 242 242 243 244 244 245 247 248 247 248 246 246 247 247 247 247 248 248 248 248 249 249 248 249 252 250 250 251 252 252 252 251 251 250 250 251 251 250 250 250 250 249 249 249 249 248
239 240 242 243 243 243 242 242 242 243 241 242 242 243 245 244 246 245 247 248 247 247 248 248 247 248 249 248 248 248 249 249 249 250 250 250 250 250 251 252 252 250 250 249 249 249 249 249 248 248 248 248 248 247
242 243 240 240 241 240 238 239 240 239 241 242 241 242 243 244 245 246 247 248 247 247 246 246 247 248 248 248 248 249 248 248 249 250 250 250 250 250 250 250 250 252 250 249 249 249 248 248 247 247 247 247 247 247
242 242 243 237 239 241 240 240 240 242 243 242 242 243 243 245 245 245 247 248 247 247 246 246 246 246 247 247 247 247 248 249 248 247 249 251 251 250 250 250 249 249 249 248 249 252 251 250 249 249 248 247 247 246
242 243 241 238 238 240 243 242 242 242 242 244 244 245 245 245 246 246 246 245 245 245 246 246 246 245 246 246 246 246 247 248 248 249 250 251 251 250 249 249 249 249 248 247 246 247 248 248 246 245 245 245 244 245
244 242 242 243 242 244 244 243 243 243 243 243 244 243 244 245 247 247 246 246 245 243 243 243 243 244 243 245 245 245 246 247 246 247 248 249 249 248 248 248 248 247 246 245 244 244 244 243 243 242 242 242 242 243
243 241 242 241 242 243 242 242 243 242 243 243 243 243 243 244 245 248 248 246 244 244 245 246 244 246 245 246 245 245 246 245 245 246 245 247 247 247 247 247 245 242 242 243 242 242 242 241 242 242 243 243 243 243
239 240 239 240 241 242 241 239 242 242 242 243 243 241 242 244 246 249 248 248 248 248 248 248 248 248 246 245 246 246 246 246 245 249 251 250 249 248 246 244 244 243 242 242 243 244 243 243 243 243 243 243 243 244

GFSWCAN_sfc_thetae_060.txt.gz
Theta_e
294 293 294 294 294 294 294 294 294 295 295 295 296 297 298 299 298 300 295 298 292 285 285 288 289 284 283 285 278 279 279 279 279 274 272 272 269 274 272 276 275 275 271 273 274 275 274 285 285 283 286 285 285 286
293 294 293 293 293 294 294 294 293 294 294 294 295 295 297 297 299 297 293 297 297 288 285 291 291 292 291 290 285 279 279 277 281 275 274 274 269 273 271 266 281 272 279 276 280 278 287 287 287 292 291 289 288 289
292 293 293 293 293 293 294 293 293 293 294 294 295 294 295 297 298 297 293 295 293 285 285 284 284 290 292 291 293 281 282 286 282 285 278 274 269 276 269 272 273 277 279 275 275 279 282 285 289 290 291 289 289 289
291 292 293 293 292 293 293 293 293 293 292 293 294 294 294 295 297 298 288 294 292 287 281 281 289 287 291 291 290 290 288 287 287 283 277 273 271 280 273 276 274 278 278 274 275 280 280 282 284 286 286 287 288 289
291 291 292 293 293 292 293 293 293 293 293 293 294 294 294 294 296 296 292 294 295 287 279 279 282 286 290 289 288 289 287 284 280 279 273 271 276 275 275 278 275 280 279 276 276 281 281 283 285 285 284 285 286 287
291 291 291 292 293 293 292 293 293 292 292 293 294 294 294 294 296 291 284 291 295 292 282 276 283 280 284 287 287 285 285 282 280 279 275 276 282 276 268 267 279 282 283 284 282 285 285 286 287 285 285 286 286 286
291 291 291 291 292 292 292 292 292 292 292 293 293 294 294 294 293 285 284 287 297 292 283 276 275 280 284 283 281 281 284 284 283 281 275 276 278 279 271 272 279 281 282 282 284 283 281 282 283 286 285 285 283 282
291 291 291 292 291 291 291 291 291 292 292 292 293 293 293 294 294 287 292 296 295 286 284 276 273 276 284 280 279 284 282 282 281 277 274 275 276 274 269 277 280 280 280 281 283 281 280 281 282 282 281 281 279 281
292 292 292 292 292 292 292 292 291 292 292 292 292 293 290 288 284 285 294 296 292 286 278 276 272 270 280 279 280 280 280 275 279 273 275 276 269 268 275 278 279 275 274 272 272 272 274 275 277 277 277 275 276 279
291 293 293 293 292 291 292 292 292 292 292 292 289 283 281 284 293 294 289 283 281 280 281 277 274 271 279 277 273 273 273 271 270 273 277 269 268 278 279 270 267 266 265 265 264 267 265 266 267 269 269 271 272 274
291 292 292 292 293 292 292 292 292 292 292 286 282 281 286 294 287 282 278 277 276 274 278 276 273 273 279 274 271 276 268 270 263 267 269 263 264 275 264 262 263 263 262 262 260 262 263 264 264 265 265 266 267 269
291 291 291 292 291 293 292 292 292 289 285 286 285 286 285 281 277 273 271 274 274 271 274 275 275 277 276 278 271 270 266 268 262 266 266 259 269 259 257 257 258 258 257 256 257 258 259 261 261 260 260 261 263 265
291 291 291 292 293 293 292 292 292 291 290 286 281 278 276 273 270 268 265 268 268 271 272 275 273 275 275 277 272 271 265 263 265 260 261 266 259 255 253 254 254 255 252 252 253 255 256 256 256 255 257 257 260 262
289 290 291 291 292 292 292 293 293 290 283 277 274 268 270 269 270 267 264 266 269 273 275 275 271 274 274 271 272 267 268 268 260 257 261 258 251 249 251 252 249 252 252 253 252 254 255 255 254 255 255 257 259 259
288 288 288 289 289 288 287 285 282 273 271 269 271 263 260 259 259 259 261 260 262 266 273 273 273 275 270 272 272 268 263 258 262 262 256 251 250 250 250 250 249 251 253 253 254 254 253 252 252 251 254 256 257 257
286 286 285 287 286 285 282 277 271 270 262 259 254 262 262 262 260 259 260 257 259 263 266 270 268 266 264 267 262 259 261 260 263 248 249 251 248 248 248 248 249 250 251 252 252 252 252 250 251 252 254 255 255 256
282 278 286 287 283 280 279 269 265 259 257 257 254 254 255 256 253 254 256 257 260 262 263 265 261 260 264 259 259 261 262 252 246 246 248 249 248 248 248 251 249 248 250 249 251 252 253 254 254 254 253 254 255 256
274 276 282 283 278 273 266 266 260 258 253 254 253 252 253 253 255 254 255 257 257 259 259 259 262 258 257 258 258 250 248 247 248 249 250 249 248 247 247 248 249 247 248 249 253 255 256 256 256 255 256 256 255 255
276 276 279 279 274 265 260 259 260 252 253 254 255 255 254 252 254 254 254 255 254 254 255 256 257 255 253 248 246 246 246 246 247 250 250 248 249 247 248 249 249 250 249 250 251 254 255 255 255 256 256 256 255 255
276 276 277 274 273 262 256 256 260 255 252 254 255 251 252 251 251 251 250 252 253 251 251 249 245 244 246 247 246 246 247 248 246 246 249 250 251 248 250 252 251 252 253 253 254 256 255 254 254 254 254 254 253 253
268 268 270 265 260 258 255 254 254 255 254 252 254 254 252 251 248 247 247 251 249 247 245 244 243 242 242 242 244 244 247 248 247 247 247 248 249 249 251 254 253 253 253 253 253 252 253 252 253 253 253 253 253 253
262 268 259 263 259 255 253 253 254 255 252 251 252 251 248 246 245 244 249 247 245 244 243 243 242 242 242 242 241 242 242 242 245 247 250 249 247 246 247 251 253 251 251 252 252 252 252 253 253 253 253 252 253 253
261 261 256 254 253 251 247 254 250 249 248 249 249 247 247 246 247 252 245 243 243 245 243 242 241 240 241 241 240 241 241 242 244 244 244 244 245 245 246 248 252 252 251 251 252 252 252 253 253 253 253 253 253 252
256 248 247 246 248 245 246 247 250 248 247 247 249 245 244 245 249 249 244 240 242 244 242 240 240 241 241 241 241 241 241 243 243 243 244 244 243 243 244 246 247 250 251 252 252 252 252 251 252 252 252 252 251 251
252 241 243 241 244 244 243 243 243 245 242 244 246 246 245 245 244 243 243 240 242 241 241 240 241 243 241 240 242 241 242 243 244 242 243 243 243 244 244 245 246 247 249 251 251 251 251 251 251 251 251 250 249 249
238 238 238 237 239 240 239 239 239 238 240 241 240 241 241 242 242 242 240 240 240 240 240 240 240 241 241 241 241 242 242 242 244 245 244 243 244 244 244 245 246 248 248 248 250 250 250 250 250 249 249 249 249 248
237 236 239 240 239 240 239 238 238 238 237 237 237 238 239 241 241 240 241 242 242 240 241 241 240 241 242 242 243 242 243 244 244 244 243 243 244 244 245 245 248 248 249 249 249 249 249 249 249 249 248 248 247 247
238 238 236 236 236 236 234 235 235 235 237 238 237 238 239 241 241 240 242 244 241 241 240 240 241 241 242 244 245 245 244 244 245 243 243 243 244 245 246 247 249 253 250 250 250 249 249 248 248 248 248 247 248 248
237 238 238 235 235 237 236 235 235 237 239 236 237 238 238 240 238 238 241 242 240 240 239 239 241 239 240 240 240 240 241 241 242 242 242 243 244 245 247 248 248 249 249 249 250 253 252 250 249 249 249 248 247 245
237 237 236 234 236 236 237 237 236 236 236 238 238 240 240 239 240 240 239 238 239 239 239 240 242 241 240 240 241 242 240 241 243 244 243 243 244 244 245 246 247 247 248 246 247 247 249 248 246 243 244 243 242 242
239 236 237 238 237 238 238 237 237 237 237 236 236 237 237 238 241 239 241 240 239 237 238 238 237 236 238 239 239 239 242 244 246 245 243 241 242 241 242 244 245 245 245 246 245 243 244 243 241 241 240 241 242 243
236 235 238 239 238 237 235 235 236 236 236 236 236 236 237 237 239 241 243 242 238 238 242 240 240 243 244 244 241 241 246 242 241 244 243 243 243 242 243 242 242 240 240 242 241 241 241 240 240 241 241 241 242 242
234 234 234 236 237 237 235 235 236 237 236 236 237 235 235 237 241 244 243 243 244 246 244 245 245 242 242 243 243 243 245 243 243 249 251 250 248 247 242 241 241 240 240 241 242 242 241 241 242 242 242 242 242 243

GFSWCAN_sfc_thetae_063.txt.gz
Theta_e
292 292 293 293 295 294 295 295 295 295 296 296 296 297 298 299 299 297 293 298 291 285 280 286 287 282 280 282 276 278 281 281 280 275 275 271 265 273 271 274 277 277 276 276 278 275 273 284 284 281 284 284 285 285
292 292 292 293 293 294 294 294 294 295 294 295 295 296 296 297 298 299 288 296 298 288 284 288 289 290 289 288 280 277 277 274 280 272 270 270 267 267 266 265 278 271 277 272 277 276 283 286 285 289 290 288 286 287
291 291 292 292 292 293 294 294 294 294 294 294 295 295 295 296 297 297 291 292 294 286 284 283 284 288 291 290 291 279 277 283 280 281 273 270 268 274 268 268 271 276 276 274 275 277 278 283 287 290 291 289 287 287
291 291 291 292 292 292 294 294 294 294 294 294 294 294 295 295 296 296 291 291 291 285 281 281 286 286 289 290 289 288 286 286 285 279 272 267 267 278 271 275 274 277 277 273 272 277 278 280 282 285 286 287 286 286
290 290 291 291 292 292 293 294 294 294 294 294 294 293 294 295 295 293 292 292 292 286 279 276 280 285 288 288 287 287 286 282 276 275 271 269 272 273 272 276 271 278 278 274 272 279 279 281 284 284 283 283 283 283
290 290 291 291 291 291 292 293 293 293 293 293 293 293 293 294 295 288 283 291 292 291 281 275 280 280 282 286 286 285 285 283 280 276 271 272 280 275 264 261 278 280 280 281 279 283 282 283 284 283 283 284 284 284
290 290 291 291 292 291 292 293 293 293 293 293 293 293 293 294 290 284 281 284 294 292 282 275 275 278 283 282 280 283 283 281 281 277 272 275 277 278 266 267 279 279 279 280 281 280 279 280 280 281 282 283 282 280
291 291 291 291 292 292 292 292 293 293 293 293 293 293 293 294 292 286 289 294 294 287 283 275 273 278 285 278 279 282 281 281 279 275 272 274 276 272 268 276 279 280 279 279 280 277 277 277 277 278 278 277 276 277
291 291 292 292 293 293 292 292 292 293 292 292 292 292 289 287 283 283 293 294 294 287 278 273 272 270 283 279 280 279 281 275 277 273 275 274 266 268 275 277 278 271 272 270 269 270 269 270 270 271 269 269 269 271
291 291 291 292 293 293 293 292 292 292 292 292 288 283 279 283 291 291 287 284 283 282 281 275 275 270 279 276 273 274 274 270 270 271 277 272 266 277 276 267 266 265 263 263 263 267 262 262 264 264 264 265 266 267
290 290 290 292 292 293 293 293 293 292 291 285 281 279 281 291 285 282 277 278 277 273 277 276 277 275 278 271 270 276 271 273 268 267 269 261 262 276 263 261 262 262 261 260 258 259 259 259 260 260 260 260 260 261
290 290 291 293 292 292 294 292 293 289 282 284 284 286 283 282 279 274 274 275 274 271 275 275 276 277 278 280 275 275 271 270 266 264 265 258 268 258 257 257 257 257 254 254 254 254 256 258 257 257 257 257 257 258
290 290 290 292 291 293 293 292 292 291 290 285 281 278 275 275 269 267 266 267 268 272 274 276 273 275 277 278 274 272 267 267 269 267 263 265 257 254 252 253 253 252 249 249 250 252 253 253 253 252 254 255 255 255
289 290 289 292 293 293 292 292 292 290 282 277 273 269 269 269 268 266 269 269 270 274 277 276 268 272 273 270 270 266 268 268 260 255 260 258 252 249 250 250 247 249 249 250 250 251 252 251 252 252 251 251 253 255
287 287 288 287 290 289 289 287 283 272 270 267 269 263 260 259 260 260 260 261 264 278 276 272 271 273 268 271 271 266 261 260 261 261 260 251 250 250 249 248 247 247 248 248 248 248 249 250 249 249 249 250 251 254
285 283 282 287 284 285 281 274 270 268 262 259 254 261 260 262 259 256 258 260 260 265 269 272 270 270 269 270 263 259 260 259 262 253 249 250 247 246 246 246 246 247 246 247 247 247 249 248 249 250 249 250 252 254
279 273 283 285 282 278 277 268 265 259 258 256 253 254 253 255 254 255 256 256 259 265 267 268 265 266 267 262 259 259 260 254 247 244 245 246 247 246 245 244 245 246 246 245 245 247 247 247 247 248 248 252 254 255
271 275 281 282 276 271 265 264 260 258 253 253 252 251 252 252 253 253 255 256 258 261 264 264 266 261 260 258 257 252 249 245 243 245 247 245 244 244 244 245 246 245 245 245 245 246 248 249 249 251 253 255 255 255
272 276 279 278 273 263 260 260 260 254 253 255 256 256 254 253 254 254 254 255 257 257 262 263 263 260 257 249 248 245 245 246 247 249 248 245 246 245 245 244 246 245 246 247 247 248 250 251 251 254 255 255 254 254
277 276 276 273 269 260 256 256 259 254 252 253 254 252 252 252 253 252 252 253 255 253 250 249 245 245 246 245 244 245 244 245 245 245 248 248 247 245 246 245 247 247 247 247 249 253 251 252 253 254 254 254 253 253
267 267 269 262 257 255 252 253 254 255 253 252 253 252 252 252 249 248 248 251 249 246 245 243 241 241 239 239 239 241 244 246 244 245 245 245 247 246 246 245 246 247 248 250 249 251 252 251 253 253 253 253 253 253
260 268 257 261 256 252 251 252 252 253 252 250 250 249 248 247 246 247 248 246 244 242 241 241 239 238 239 240 240 239 240 239 240 243 247 246 245 245 244 244 245 244 246 250 251 251 252 253 253 253 253 253 253 254
260 260 254 253 252 250 247 250 248 247 249 248 248 248 246 244 246 251 244 241 241 243 239 239 238 237 239 238 238 239 238 240 240 240 241 241 240 240 242 242 243 244 246 249 252 252 252 253 254 253 253 253 253 253
255 247 246 245 246 242 244 245 247 246 247 247 247 243 243 241 247 246 241 237 240 240 240 239 237 240 240 240 239 238 239 238 239 240 239 241 241 241 240 241 241 242 246 249 251 252 252 252 253 253 253 252 252 252
251 240 242 239 242 242 241 240 240 243 240 239 241 242 242 240 243 242 242 238 238 238 239 237 237 239 239 237 238 239 239 240 241 241 240 239 239 240 242 241 242 243 244 246 247 248 250 252 252 251 251 251 250 250
238 236 237 233 238 239 236 237 236 236 236 238 237 238 237 240 243 244 240 238 237 238 238 238 239 239 239 238 239 240 241 238 240 241 241 241 242 243 241 242 243 245 243 243 246 246 246 249 249 250 250 250 250 249
237 236 238 237 237 237 237 236 236 237 235 236 235 236 238 242 242 241 239 239 240 238 238 238 238 239 239 239 239 238 238 239 242 243 242 242 244 244 244 243 245 246 243 244 245 245 245 246 248 249 249 249 249 248
236 235 237 235 236 233 233 233 233 234 235 236 236 238 240 241 241 239 241 242 238 237 238 236 237 238 239 240 239 241 240 240 241 242 241 242 241 242 242 242 244 253 247 248 248 248 248 248 248 248 249 249 249 250
237 235 236 235 235 236 234 235 234 234 236 233 236 237 238 239 237 236 239 240 236 238 237 237 238 236 238 238 239 238 240 241 243 243 242 242 242 245 243 242 243 244 245 245 250 253 251 250 250 250 250 249 249 248
237 234 236 233 236 236 237 236 234 233 233 236 236 239 239 239 239 236 237 236 238 238 237 237 236 238 239 239 239 240 238 239 242 243 242 242 244 242 240 241 242 242 244 243 246 246 249 248 248 245 246 246 246 245
235 233 236 235 237 235 235 233 232 233 233 233 232 235 236 237 240 236 240 238 236 234 237 238 237 235 238 238 238 238 242 241 243 244 243 242 240 240 241 243 243 240 240 241 242 241 244 244 242 242 243 242 242 243
234 234 237 239 238 235 233 232 232 234 233 234 235 232 236 236 238 241 241 239 236 237 241 240 239 243 242 244 240 242 245 241 241 244 244 244 243 243 242 242 240 238 239 241 240 241 240 240 240 241 242 241 242 242
232 232 232 234 237 237 234 234 234 235 234 234 235 233 233 236 240 243 242 242 243 245 244 244 244 241 242 243 243 244 245 243 243 249 251 250 248 247 242 240 240 240 240 241 241 241 241 241 241 242 242 242 242 243

GFSWCAN_sfc_thetae_066.txt.gz
Theta_e
292 293 293 293 293 293 294 295 295 295 296 296 297 297 298 299 300 298 293 297 290 280 279 285 286 282 280 280 276 275 282 280 278 278 277 271 264 271 268 273 276 276 274 272 276 274 269 282 281 279 281 282 284 284
292 292 293 293 292 292 293 293 295 295 295 296 296 297 297 298 299 299 290 296 297 287 284 287 288 289 290 288 281 276 278 276 280 274 271 271 267 266 265 266 277 273 277 273 276 275 282 284 284 285 286 285 284 284
292 292 293 293 292 292 292 293 293 295 295 295 296 296 296 296 297 297 290 293 291 285 284 282 284 287 290 289 290 280 277 282 280 281 274 272 270 274 267 268 270 275 275 273 273 275 278 284 286 288 287 285 285 285
291 291 291 291 291 292 292 292 293 294 295 295 295 295 295 296 296 296 291 292 290 285 281 281 285 286 289 289 288 287 285 284 283 279 273 268 268 278 271 275 274 276 277 273 272 276 276 277 281 285 286 286 284 285
290 290 291 291 291 291 292 292 293 293 294 295 295 295 295 295 296 293 292 292 293 286 279 278 278 285 287 288 286 287 286 282 276 273 268 269 272 273 271 275 271 278 278 276 273 279 279 280 282 283 282 282 282 282
290 290 290 291 291 291 292 292 292 292 294 294 294 294 294 295 295 288 282 290 293 291 281 275 283 276 282 288 286 286 284 279 276 275 270 272 279 274 264 262 276 278 280 280 278 280 280 281 282 282 281 280 281 281
289 290 290 290 290 291 291 292 292 292 293 294 294 294 294 294 290 284 280 282 293 291 281 275 274 279 283 284 283 283 280 277 278 271 270 276 277 275 266 265 279 278 280 280 280 279 278 279 278 278 280 278 277 276
291 292 292 292 291 292 292 292 292 292 293 294 294 294 294 294 292 286 289 293 293 286 283 275 272 276 284 281 280 283 282 282 279 273 272 274 276 272 267 277 280 279 278 278 278 277 277 275 276 275 273 272 270 272
291 290 291 291 291 292 293 293 292 292 293 294 294 294 290 287 281 282 292 293 292 285 278 274 272 272 283 281 281 281 282 276 280 275 277 278 272 271 275 278 278 277 276 275 270 268 269 270 270 269 267 266 266 268
290 290 291 291 291 291 292 292 292 292 293 293 290 283 279 281 291 291 286 281 281 282 281 274 277 274 281 277 276 276 277 274 271 271 278 274 266 277 276 269 268 267 266 265 265 266 261 261 264 263 262 263 264 264
290 290 291 290 291 292 293 293 293 293 292 286 281 277 279 291 281 281 275 275 272 275 278 276 277 275 279 269 269 277 272 274 269 270 269 262 262 276 265 263 264 264 263 259 258 258 258 257 257 258 258 256 257 258
289 290 290 290 293 293 293 294 295 290 285 285 282 284 284 280 276 273 272 268 272 270 275 276 278 278 275 280 275 275 272 271 266 266 266 260 268 262 262 260 258 258 256 254 254 253 254 256 255 254 253 254 253 255
289 289 290 291 293 292 293 294 295 291 290 283 280 276 275 275 270 268 262 263 269 273 275 276 275 276 277 278 275 273 270 269 269 265 262 265 260 255 253 254 253 252 248 248 249 250 250 250 250 249 252 252 252 251
288 288 289 289 292 293 293 295 293 290 283 277 274 270 270 267 269 262 267 271 268 275 277 278 272 275 275 273 273 268 269 270 266 263 261 262 257 253 252 251 250 249 247 248 247 248 249 249 249 249 249 250 249 250
286 286 286 286 287 292 292 292 285 270 269 267 269 266 262 256 256 257 256 260 265 278 278 273 267 273 270 270 272 268 265 264 263 262 263 253 252 251 250 249 247 246 247 246 246 245 247 248 247 248 249 248 247 249
283 281 280 286 284 284 281 277 269 266 261 257 253 259 256 256 255 257 261 263 262 279 279 274 271 270 269 270 267 265 263 261 264 258 251 251 249 248 247 246 246 245 244 244 244 245 246 245 246 248 247 246 248 247
278 273 282 283 280 279 278 265 264 259 258 254 249 252 249 252 255 256 255 258 260 269 271 271 268 268 271 265 258 258 263 258 250 249 248 247 248 247 244 243 243 243 243 243 243 243 244 245 243 244 246 247 247 248
267 274 280 280 274 271 265 263 259 258 253 254 252 252 254 253 254 255 255 257 258 266 266 267 268 262 262 261 259 254 248 246 249 251 248 244 243 242 244 245 243 243 243 243 242 243 243 244 245 247 247 248 249 250
273 275 278 277 272 265 262 259 261 254 253 255 256 255 255 254 255 255 255 256 259 260 265 266 264 260 255 251 251 251 252 252 251 249 247 243 246 244 243 242 243 243 243 244 244 245 245 245 246 247 248 249 249 253
275 276 275 272 269 262 258 257 261 257 254 254 255 254 254 254 254 254 255 254 257 258 252 254 251 248 250 250 249 252 250 249 252 250 247 247 246 243 244 244 246 244 244 243 244 247 245 246 247 249 250 250 252 253
267 267 269 262 257 256 254 255 255 256 255 254 254 255 255 254 252 251 251 252 251 247 248 246 246 246 245 244 244 246 247 249 247 245 245 245 245 245 243 243 243 243 244 243 244 245 246 246 249 250 253 252 253 253
260 267 257 260 257 253 252 252 253 255 254 251 252 251 249 251 249 249 250 248 246 245 245 246 245 243 244 243 242 240 239 239 239 244 246 247 245 244 243 242 243 242 242 243 243 244 246 248 251 253 253 253 254 254
260 260 254 253 253 252 247 252 250 249 251 249 249 249 247 246 247 251 245 243 244 245 243 242 240 237 239 237 238 239 237 239 240 239 239 240 238 238 240 240 240 242 242 243 244 244 246 250 251 251 252 253 253 253
255 246 245 244 246 243 244 245 247 247 248 246 246 244 244 242 246 247 241 238 241 242 239 237 236 240 240 240 239 237 238 236 237 238 236 241 241 240 238 239 239 239 242 243 244 245 246 246 250 250 252 252 252 252
251 240 242 239 241 244 243 241 242 244 241 240 243 244 244 241 246 242 241 239 237 237 237 235 236 238 238 236 237 237 237 238 241 240 239 238 237 239 240 239 240 241 240 243 244 244 245 246 247 248 250 250 250 250
238 236 238 233 238 240 238 243 239 238 236 239 239 240 239 243 247 244 240 238 236 236 237 238 239 239 239 237 239 240 240 236 238 241 240 239 240 241 240 242 242 244 241 242 243 244 245 247 247 248 249 249 250 250
238 236 237 236 236 236 237 235 235 238 237 238 235 237 239 243 243 242 238 239 239 238 237 237 238 239 239 238 238 237 236 236 241 241 240 239 241 241 243 243 243 245 241 242 242 243 244 245 246 247 248 249 249 249
236 235 237 236 236 233 233 233 234 234 235 236 235 238 241 242 242 240 241 241 237 236 236 234 235 237 237 238 237 238 239 237 239 239 240 241 240 240 240 240 242 251 244 244 245 246 246 247 248 248 248 248 249 250
236 234 235 235 234 236 234 235 235 234 236 233 236 237 238 239 237 236 239 239 234 237 237 237 238 234 236 236 236 237 238 240 243 242 242 242 243 246 242 241 241 243 243 243 250 253 250 249 249 249 249 248 248 247
236 233 235 233 236 237 236 235 234 232 232 235 234 238 238 238 238 235 235 235 238 238 237 236 235 237 238 238 239 240 239 239 242 243 242 242 244 241 239 240 241 241 241 240 245 245 249 247 246 243 245 245 245 245
233 232 235 235 237 234 233 231 230 231 231 231 230 234 236 235 239 235 239 237 235 232 235 236 235 233 237 236 238 240 244 242 242 243 242 240 239 239 240 241 242 239 239 240 241 240 242 242 240 241 241 242 243 244
234 233 237 239 238 234 231 231 230 232 231 233 234 230 234 235 238 240 240 237 235 236 240 239 238 242 242 243 240 241 245 240 240 243 243 244 243 243 243 243 240 237 238 241 241 240 240 240 240 241 241 241 241 242
231 231 230 234 237 237 234 233 234 236 234 233 234 231 231 236 240 243 241 241 241 242 243 243 243 240 241 242 243 243 245 243 243 249 251 250 248 247 242 240 239 239 240 241 242 241 241 241 241 241 241 242 242 243

GFSWCAN_sfc_thetae_069.txt.gz
Theta_e
292 292 292 293 293 293 294 294 294 295 296 296 297 297 298 299 299 298 292 296 290 281 280 284 285 281 279 279 277 277 280 279 277 277 273 269 267 272 268 272 276 281 279 277 277 274 272 282 282 279 281 283 283 284
291 292 292 292 292 293 293 293 294 294 295 295 296 297 297 298 298 299 290 295 296 287 285 286 287 288 289 287 282 275 278 277 282 276 272 272 267 266 265 266 277 273 277 274 277 278 282 282 282 284 285 284 283 284
291 291 291 292 292 293 293 293 293 293 294 295 296 296 297 297 297 297 290 293 292 284 284 283 282 287 289 289 290 281 278 282 280 281 274 270 270 273 267 268 269 275 275 273 274 274 279 283 286 286 286 285 285 284
291 291 291 292 292 293 293 292 292 293 293 294 295 296 296 297 297 297 288 293 289 285 280 280 284 284 288 289 288 288 285 284 282 279 274 270 269 278 271 275 274 276 277 271 271 275 276 278 281 284 283 282 282 283
291 291 291 291 291 292 292 292 292 292 293 293 294 295 296 296 296 294 293 293 292 287 278 277 278 283 286 288 286 286 286 282 277 274 270 271 273 275 272 275 272 278 277 275 273 279 279 280 283 283 281 283 283 282
290 290 290 290 291 291 291 291 292 292 292 293 294 295 295 296 296 289 282 290 293 292 282 274 280 276 280 285 285 284 284 279 277 276 271 272 279 275 266 265 277 279 280 281 279 281 281 282 282 282 281 281 281 280
291 290 290 290 291 291 291 291 291 292 292 292 293 294 295 295 291 285 281 282 293 291 281 276 275 279 281 282 280 283 282 280 278 272 270 276 276 274 265 267 278 279 280 280 280 280 278 279 279 279 280 279 276 274
291 291 291 291 291 291 292 291 291 292 292 292 293 294 295 295 293 286 290 293 293 285 283 275 274 276 283 281 281 284 282 282 280 276 270 273 275 270 268 278 280 278 278 278 279 279 278 277 276 276 273 271 269 270
291 290 291 291 290 291 292 292 292 292 292 292 292 294 292 288 283 280 294 294 291 281 275 275 272 271 283 281 281 281 283 277 279 275 275 278 272 273 276 279 279 276 277 277 274 269 269 270 272 270 267 265 265 267
289 290 290 290 291 291 291 291 291 292 292 292 289 285 281 283 291 291 286 281 282 281 279 273 268 273 281 276 275 275 279 275 272 275 278 275 269 279 277 276 274 276 276 270 268 266 261 263 266 264 262 262 263 263
289 289 289 290 290 291 291 291 292 293 292 286 282 278 283 293 284 280 275 275 275 272 273 272 275 273 277 273 271 276 274 275 270 272 273 269 264 277 277 267 269 269 268 262 262 261 260 260 260 258 257 255 255 255
288 288 289 289 290 291 293 294 292 290 282 285 283 284 284 279 276 273 271 271 269 270 272 272 273 279 277 277 275 275 273 273 268 272 269 265 272 273 270 265 262 262 261 257 255 256 255 257 255 253 251 250 250 252
287 288 288 289 289 292 294 294 294 292 289 284 280 276 275 274 269 267 266 264 267 262 271 271 271 277 278 279 273 274 269 268 270 269 266 265 267 260 260 257 254 252 251 251 250 251 250 249 248 248 248 249 247 247
286 287 286 288 287 292 292 295 295 291 283 274 273 269 269 268 268 265 264 265 267 270 268 275 272 276 277 274 274 269 270 270 268 266 262 264 263 256 254 253 253 251 251 251 249 248 248 247 247 245 245 245 245 246
285 285 284 285 286 289 294 295 291 272 271 268 269 265 265 260 253 251 252 258 259 262 276 272 268 276 273 271 272 267 264 265 267 263 263 260 253 254 252 250 250 250 249 248 245 245 246 245 245 245 245 244 243 244
282 279 280 285 283 285 282 276 269 266 260 259 256 260 256 255 251 250 251 253 257 261 275 274 270 270 270 270 267 266 264 260 264 261 252 252 252 252 251 251 250 248 247 245 244 244 245 244 245 245 243 243 244 244
278 272 281 283 281 278 278 264 264 257 253 250 246 243 244 247 250 250 252 257 260 267 273 272 269 269 269 267 266 266 261 259 246 245 248 252 252 250 250 249 247 246 245 243 242 242 243 242 241 243 246 245 244 245
268 274 280 280 275 272 265 262 256 254 250 250 249 246 247 248 249 252 253 257 258 262 270 270 269 268 267 260 256 262 249 250 251 251 250 249 250 250 251 248 245 246 243 241 241 241 241 242 244 245 243 244 245 245
275 275 277 277 273 266 262 260 258 251 248 250 253 254 253 252 255 256 255 257 258 260 260 269 268 264 256 248 247 247 249 248 250 251 249 249 250 249 246 247 247 244 244 242 242 243 243 242 244 244 244 245 246 246
275 275 275 272 270 264 259 256 260 256 249 253 254 254 255 255 255 254 255 255 258 259 254 255 253 247 248 249 250 254 253 254 252 251 251 251 249 245 244 246 246 243 243 241 241 244 243 244 244 245 245 246 246 247
267 267 268 263 259 258 255 255 255 255 255 253 253 255 256 256 254 253 252 253 252 247 249 247 247 247 247 248 249 252 252 254 252 253 252 250 248 249 244 241 241 241 243 241 243 243 243 243 244 245 245 246 247 249
260 267 256 260 257 255 253 253 254 256 255 253 254 254 252 253 251 250 251 249 246 246 245 247 247 247 248 246 245 244 245 248 249 249 250 249 247 245 243 241 243 241 240 241 241 243 243 243 244 245 245 246 248 249
260 260 254 252 254 252 248 252 252 251 255 253 253 254 251 251 251 252 246 246 246 246 244 245 244 243 245 244 245 244 243 246 245 243 243 242 237 237 240 238 239 242 242 242 241 242 243 248 247 246 246 248 249 250
254 246 246 245 246 244 246 246 248 248 249 248 250 250 248 246 247 252 246 245 245 246 246 244 244 245 246 246 244 242 239 237 237 237 235 242 242 240 237 238 237 238 241 241 242 243 243 244 247 246 246 247 248 250
251 240 242 240 242 244 243 244 244 246 245 242 245 246 244 241 248 248 247 245 244 244 243 241 242 242 242 239 240 238 236 237 240 240 239 237 236 238 240 239 239 240 239 242 242 242 242 243 245 246 247 247 248 249
239 235 238 232 238 240 237 240 239 238 239 242 240 240 238 243 249 245 243 241 240 239 239 240 241 240 240 238 240 240 240 235 237 241 240 238 240 241 239 241 242 244 241 241 242 241 242 245 245 247 248 249 250 250
239 237 236 235 235 235 236 235 236 238 238 242 240 242 245 248 244 242 239 239 240 240 238 237 238 239 240 238 237 236 235 234 239 241 238 238 239 240 242 242 243 245 241 241 241 242 242 243 245 246 248 249 249 249
236 235 237 236 235 232 233 233 235 235 235 237 236 243 244 244 245 242 242 243 238 236 235 233 234 236 236 237 236 237 237 235 238 238 239 240 238 239 239 239 241 250 242 242 243 243 242 244 244 246 248 248 249 250
236 234 235 237 235 237 234 235 235 234 236 233 236 238 238 239 237 236 239 238 233 236 237 237 238 233 235 235 235 235 236 239 242 242 242 242 242 245 240 240 241 242 242 242 249 251 247 246 247 248 249 249 249 246
236 231 236 234 238 238 236 234 233 232 231 234 233 238 238 238 237 234 234 234 237 237 235 234 233 236 237 238 239 240 236 238 241 244 246 244 244 241 238 239 241 240 240 239 244 243 249 245 245 241 242 244 243 242
232 231 236 235 237 234 232 229 228 229 229 230 228 233 235 234 238 235 236 235 234 231 235 236 235 232 235 236 237 238 243 241 243 244 244 241 239 238 239 241 242 240 239 239 240 239 241 240 239 240 240 241 241 242
234 232 237 239 238 233 230 230 229 232 231 233 234 229 234 236 238 241 238 236 235 236 239 237 236 242 240 242 239 240 245 240 239 242 242 243 243 243 243 243 240 238 238 241 241 240 240 240 241 241 242 241 242 242
231 230 230 234 237 237 234 233 235 236 234 234 234 231 231 235 240 243 241 239 240 241 242 242 243 241 241 242 242 242 244 243 243 249 251 250 248 247 242 240 239 239 240 241 242 242 241 241 241 241 241 242 242 243

GFSWCAN_sfc_thetae_072.txt.gz
Theta_e
291 292 292 293 293 293 293 294 294 294 295 296 296 297 298 298 299 297 293 296 289 280 280 283 285 282 280 280 278 278 281 281 278 276 276 272 271 274 274 275 280 283 281 281 278 276 275 282 281 280 281 282 283 283
291 292 292 292 293 293 293 293 294 294 294 295 296 296 297 297 298 298 290 296 296 286 285 285 286 287 288 287 283 277 279 278 283 278 273 272 268 268 268 269 277 277 281 277 280 280 281 281 282 283 284 283 283 284
291 292 292 292 292 292 292 293 293 294 294 294 295 296 296 297 297 297 290 293 292 284 285 285 282 286 288 289 289 282 278 282 281 281 276 272 272 274 267 268 270 275 275 276 277 275 278 282 284 284 285 284 284 283
291 291 292 292 291 291 292 292 293 293 294 294 294 294 295 296 297 297 291 293 290 285 281 279 284 284 287 289 287 288 285 283 282 279 273 270 271 278 272 275 273 276 277 271 270 274 277 279 281 284 283 283 283 283
290 292 291 291 291 292 292 292 293 293 293 293 293 294 295 296 296 295 292 293 293 286 277 272 278 282 284 286 286 286 285 282 277 276 275 272 274 274 272 275 273 278 276 276 274 280 282 283 284 282 281 282 282 282
291 291 291 291 291 291 291 292 292 292 292 292 292 293 294 295 296 290 283 291 294 291 281 273 279 276 280 284 284 284 284 280 278 277 273 274 279 276 267 266 277 279 280 281 279 282 281 283 284 282 282 281 281 281
291 291 291 291 291 291 291 291 291 292 292 292 292 293 294 295 292 285 282 284 294 291 281 272 272 277 280 280 276 277 278 276 277 274 273 276 276 275 266 268 277 279 280 281 281 280 278 279 280 281 282 281 276 274
291 291 291 291 291 291 291 291 291 291 292 292 292 292 293 294 293 287 290 293 294 285 283 274 270 274 281 281 279 279 278 280 277 275 271 276 275 272 269 279 279 279 279 278 279 280 280 279 278 277 275 272 269 270
289 291 291 290 290 292 291 292 292 291 291 292 292 292 289 288 284 284 294 295 290 282 277 274 267 271 282 281 281 281 281 278 279 277 275 276 272 272 277 279 278 277 277 277 275 272 271 273 274 273 270 266 268 268
289 289 289 289 289 290 290 290 290 291 292 292 287 280 279 284 292 293 286 282 282 281 276 271 270 270 280 275 276 275 278 276 273 276 278 276 273 280 279 276 276 276 277 274 270 269 264 264 269 268 265 263 264 263
288 288 288 288 289 290 290 290 291 291 291 285 280 276 279 293 284 280 276 275 276 273 272 266 270 272 280 272 270 276 275 276 271 271 275 272 269 279 281 271 274 275 274 271 271 268 266 267 267 262 258 256 256 255
287 288 288 288 289 288 289 290 291 289 285 283 280 284 284 280 277 273 272 270 268 268 270 269 268 271 272 277 275 276 271 272 269 275 273 267 275 280 275 272 268 268 268 261 259 260 258 259 258 257 255 253 251 251
287 287 287 288 287 288 288 289 290 292 290 282 276 277 276 275 269 268 266 265 268 265 272 266 267 271 276 278 276 270 271 269 272 269 266 267 267 265 266 262 258 255 256 254 253 254 254 251 250 251 250 248 247 246
286 286 286 286 286 287 287 288 291 292 284 276 272 269 269 268 269 267 266 263 265 266 267 272 266 270 270 272 273 270 271 270 267 266 264 265 268 268 263 257 258 255 255 254 252 252 251 251 249 245 246 245 246 245
285 284 283 283 286 286 287 291 294 281 274 270 271 267 268 262 252 247 248 261 259 265 272 267 266 271 266 270 272 268 263 264 267 265 265 267 258 256 255 253 253 254 253 251 249 250 249 248 248 246 243 242 244 242
284 279 277 284 285 283 287 284 274 267 258 260 256 260 256 259 256 251 248 252 253 259 266 266 261 263 262 269 267 265 265 264 264 262 255 251 250 250 250 251 251 251 251 249 248 247 247 247 247 246 241 241 242 243
278 267 280 283 283 280 278 268 265 258 258 253 247 243 246 248 250 247 246 252 257 263 264 262 264 262 264 263 266 268 262 262 249 247 246 247 248 247 249 249 248 249 249 248 245 244 244 241 240 243 246 244 242 242
268 273 280 281 278 272 265 263 260 258 250 248 250 248 248 249 248 249 251 255 256 259 262 264 267 266 262 261 260 264 256 249 246 246 247 246 248 248 249 248 247 249 249 245 246 244 242 245 248 245 242 242 242 243
275 275 277 278 274 265 262 260 259 253 250 248 251 252 248 248 253 255 251 252 254 257 258 264 265 267 266 253 251 246 246 250 252 250 248 251 251 251 251 250 249 249 249 246 246 248 247 245 245 243 243 243 245 244
275 275 275 273 272 264 258 255 258 254 249 251 251 249 250 250 250 251 252 254 258 257 260 255 249 243 244 245 247 250 250 251 252 251 251 251 251 252 251 252 251 249 247 244 244 245 243 244 243 242 243 244 244 245
266 266 268 263 260 257 254 254 254 255 255 253 252 254 254 255 252 252 252 254 251 246 247 244 244 247 246 246 248 249 249 251 250 249 250 249 250 252 248 247 249 248 246 242 244 243 243 243 243 242 243 243 243 244
260 267 257 261 257 255 253 252 253 256 256 254 255 253 252 252 252 250 252 249 246 245 244 245 245 247 248 246 246 247 248 250 250 252 252 252 250 250 250 249 250 249 248 246 242 242 242 241 241 242 243 244 245 245
260 260 254 254 253 251 249 254 253 252 253 253 254 255 252 252 251 252 247 246 245 246 245 245 245 245 246 246 248 247 246 251 250 250 249 248 246 247 247 246 246 247 245 243 239 240 243 246 246 244 244 245 244 245
254 246 245 245 247 245 247 249 251 252 251 251 254 253 250 248 248 253 247 246 246 247 247 245 246 248 249 249 247 246 245 246 246 245 244 248 247 244 241 238 237 237 240 240 241 241 242 242 246 244 244 243 242 244
253 241 242 240 242 244 244 243 246 250 248 247 252 251 248 244 253 250 249 247 247 247 246 245 247 247 248 246 246 246 243 244 246 247 243 242 238 238 240 238 239 239 238 241 241 241 241 241 242 243 243 242 243 243
239 236 240 236 239 240 238 244 242 242 242 247 244 245 244 249 254 250 248 247 246 246 246 246 245 244 244 243 244 244 244 237 238 242 241 237 239 241 239 241 242 245 240 240 241 241 241 242 241 242 243 243 246 244
240 237 236 235 237 238 239 238 238 241 239 241 240 241 246 248 248 248 246 246 246 245 244 243 241 242 241 240 239 237 235 234 239 241 238 237 239 239 241 242 243 245 240 240 240 241 242 241 242 242 242 242 242 243
236 235 238 236 236 232 233 236 237 236 238 240 237 242 243 244 245 243 244 244 240 240 239 235 234 235 236 237 236 237 238 235 237 237 238 239 238 238 238 239 240 250 242 242 243 243 241 242 242 242 242 243 245 243
236 233 234 237 235 237 234 235 235 235 237 233 237 239 240 240 238 237 239 238 233 237 237 237 239 233 235 234 234 234 234 238 242 242 241 242 241 244 240 239 240 241 242 242 249 249 244 243 243 244 245 245 245 241
236 231 236 234 238 238 237 234 233 231 230 233 232 237 238 237 237 233 233 233 236 238 237 236 234 236 238 237 239 239 238 238 241 243 242 242 244 242 238 239 240 240 240 239 243 243 248 245 244 241 241 241 241 241
231 231 235 235 237 234 232 228 226 228 228 229 227 232 235 234 237 234 235 234 233 230 234 235 234 232 235 235 237 238 242 239 240 242 241 240 240 239 239 240 241 238 238 239 240 240 242 241 239 239 241 241 241 242
234 231 237 240 239 233 229 229 229 231 229 232 234 228 234 235 238 240 239 235 234 235 239 236 236 241 240 241 238 239 244 239 239 242 242 243 242 243 243 242 240 238 238 240 239 239 239 240 240 241 241 241 242 242
231 230 230 235 239 239 235 234 237 238 235 235 235 230 230 235 241 243 240 238 240 240 240 240 241 239 240 241 241 241 244 242 242 249 251 250 248 247 242 239 238 238 239 240 241 241 241 240 241 241 242 242 243 243

GFSWCAN_sfc_thetae_078.txt.gz
Theta_e
291 291 292 292 292 292 292 293 293 294 294 294 295 296 297 297 298 296 293 296 291 286 286 286 288 285 285 286 284 283 286 284 284 285 284 282 281 281 283 284 285 286 285 284 284 283 282 286 287 288 290 286 289 291
290 291 290 290 291 292 293 293 293 293 294 294 294 295 296 297 298 297 288 296 295 287 287 289 289 289 289 290 287 282 285 284 288 285 282 280 278 277 279 281 281 284 288 285 287 288 286 287 287 288 289 289 288 290
289 289 291 290 291 292 292 293 293 293 293 294 294 295 295 296 297 296 291 294 291 285 286 287 287 291 290 290 292 287 284 286 285 287 283 281 280 279 279 280 281 282 282 286 286 285 285 286 287 288 289 289 289 290
288 289 290 291 291 291 292 293 293 293 293 293 294 294 294 295 296 297 291 294 290 287 282 283 287 287 290 291 291 291 287 285 285 286 283 282 284 281 279 280 282 283 283 281 281 280 283 286 286 288 287 287 287 288
288 289 290 290 291 291 292 292 293 293 293 293 293 294 294 295 296 296 294 293 294 287 281 281 283 286 287 289 289 288 288 286 285 284 284 283 281 280 278 278 279 281 282 283 285 285 288 287 288 288 286 286 286 285
288 288 289 290 291 292 292 292 292 292 293 293 293 293 294 295 295 292 284 292 294 293 284 278 283 281 284 286 287 287 287 286 285 285 282 282 281 281 280 279 282 283 284 286 285 287 286 289 289 287 286 285 285 285
287 288 288 290 291 291 292 292 292 292 292 292 293 293 294 294 292 286 284 288 294 293 284 279 279 281 283 283 283 284 284 284 286 282 281 281 280 282 278 278 282 282 284 283 285 285 284 286 284 285 285 284 281 279
287 287 288 290 291 292 292 291 292 292 292 292 293 293 294 294 292 287 291 292 295 286 284 277 276 278 283 281 281 283 282 284 282 283 279 280 279 279 277 281 283 282 282 282 283 280 284 284 282 281 280 279 278 277
286 287 288 289 291 291 291 291 291 291 292 292 293 293 290 286 283 285 293 294 293 286 279 277 274 273 282 282 282 282 283 279 282 280 279 280 276 276 281 281 282 280 281 282 278 276 277 282 281 279 278 276 277 275
285 286 287 288 290 290 291 291 291 291 292 292 288 283 278 283 291 292 287 283 283 281 280 276 277 276 281 281 279 280 282 278 275 279 280 278 278 282 283 281 283 282 282 279 276 275 274 275 278 276 277 278 279 276
285 286 287 287 289 289 290 290 290 292 291 285 281 277 281 290 286 282 277 278 278 275 276 274 277 276 282 278 279 279 277 278 273 276 277 276 276 281 284 278 280 281 280 280 284 284 283 281 280 277 272 273 273 271
285 285 286 286 287 287 288 289 290 287 284 283 283 283 285 280 278 274 274 274 274 272 272 275 274 279 278 282 279 277 275 275 271 277 275 272 277 282 280 279 279 279 279 279 278 281 281 279 279 278 275 270 268 265
284 285 286 286 287 287 287 287 288 289 288 284 279 278 276 273 270 270 267 268 269 270 271 273 273 276 278 278 276 276 272 272 276 274 272 275 276 274 274 268 272 270 277 279 274 267 270 267 265 270 266 262 260 258
283 284 285 286 285 286 286 287 288 287 285 278 273 269 270 268 266 271 268 269 273 273 270 276 272 276 273 273 273 271 271 272 269 268 269 276 272 263 263 265 266 272 276 276 275 268 265 262 259 257 259 258 257 255
283 284 283 283 283 284 286 286 286 279 278 276 274 267 265 265 261 260 261 264 266 266 275 272 273 275 270 270 272 267 266 266 268 270 273 273 260 256 259 259 259 260 260 260 259 258 256 256 256 253 253 254 255 253
283 279 278 281 283 284 283 281 274 270 263 268 265 264 260 264 260 258 260 264 261 268 271 272 269 267 269 267 265 266 266 264 270 271 270 258 257 255 254 253 254 255 257 256 257 257 255 254 255 252 250 251 252 253
278 269 278 281 283 281 280 270 267 260 261 262 254 249 251 255 259 254 254 259 260 269 270 267 265 265 266 261 261 263 266 272 271 260 253 251 251 252 250 250 251 252 253 253 252 253 252 251 251 252 252 249 251 251
269 272 279 280 277 273 265 265 261 259 253 253 253 251 253 252 254 254 253 258 261 266 268 270 267 264 263 263 264 265 259 250 250 251 251 250 250 249 249 251 250 251 251 252 252 250 250 252 254 255 253 250 249 249
273 274 277 277 275 268 263 260 261 255 252 252 254 254 254 254 256 256 256 258 259 260 264 267 267 265 264 253 252 250 250 250 252 252 251 249 250 249 248 250 250 250 249 250 252 253 254 255 256 255 253 253 255 253
274 275 275 273 273 266 260 258 261 258 255 255 255 255 255 255 255 254 255 255 258 260 262 261 255 248 248 247 247 247 248 251 251 251 252 252 252 251 252 252 251 250 251 250 251 251 251 252 253 253 253 254 254 253
267 269 270 265 261 258 255 256 256 256 255 254 253 255 254 255 253 252 253 253 252 246 249 245 245 246 247 246 246 246 248 249 252 252 252 252 253 254 252 253 253 254 253 253 253 253 254 254 253 253 254 254 254 254
261 267 261 263 260 257 255 254 255 255 254 251 252 251 249 249 248 248 249 247 244 244 244 244 245 244 246 246 246 246 246 246 248 251 252 253 252 252 252 252 254 253 254 254 254 254 253 253 252 252 254 252 252 252
261 261 256 256 257 254 250 255 254 252 253 251 253 253 250 249 250 252 247 245 245 247 245 245 246 245 246 249 249 249 248 250 251 251 251 251 251 252 252 252 254 253 252 252 253 253 252 252 252 252 252 251 252 252
255 247 247 247 249 247 249 251 253 252 250 251 254 250 247 245 249 252 249 247 248 249 248 248 248 249 250 250 250 249 248 249 250 250 250 252 251 250 251 250 251 251 252 251 252 251 251 251 251 251 251 251 250 250
252 242 244 243 245 247 246 248 248 250 248 248 252 252 250 248 254 252 251 249 249 249 249 249 250 250 250 250 250 249 248 248 251 251 249 249 249 249 249 249 249 248 248 250 249 250 249 248 249 250 249 248 248 248
240 236 240 238 241 243 240 244 244 243 246 249 247 248 248 251 254 252 250 249 249 248 248 248 248 249 250 248 249 250 247 245 246 250 249 248 249 250 250 251 251 251 247 248 248 248 248 248 247 247 248 247 246 247
242 238 237 236 237 238 239 239 240 243 242 244 243 244 247 251 251 249 250 249 249 248 247 247 246 247 247 247 247 245 244 243 243 244 243 243 245 245 247 249 249 249 245 245 246 247 248 247 247 247 247 246 246 247
235 235 238 237 236 234 235 236 238 238 238 240 238 242 246 246 249 249 248 247 245 245 245 242 241 242 242 243 242 241 244 241 241 241 242 243 242 242 241 242 243 249 244 244 246 245 246 247 247 247 246 247 248 247
236 233 233 238 236 238 235 236 236 235 237 234 238 241 243 243 242 243 245 242 238 241 242 243 243 238 239 238 237 237 237 239 244 243 243 244 245 247 242 242 243 244 245 245 248 248 245 246 246 246 246 247 247 246
236 230 236 235 240 240 237 234 233 230 230 232 232 236 238 239 239 235 234 234 237 238 237 235 233 235 239 238 241 242 237 238 240 244 244 244 245 243 240 241 243 243 243 243 247 247 250 249 249 246 246 246 245 245
231 230 235 236 238 235 232 227 225 226 227 227 225 231 235 235 237 235 235 233 232 231 234 236 235 233 235 236 237 239 244 239 238 241 241 241 241 241 242 243 244 242 241 243 244 243 245 245 244 243 243 243 244 244
233 231 237 241 240 233 229 229 229 231 229 232 234 227 234 236 241 242 238 233 234 236 239 236 236 240 240 240 238 239 243 240 240 242 242 243 243 243 244 244 241 240 241 243 242 242 242 242 242 243 243 243 243 244
231 229 230 235 239 239 235 234 237 238 235 236 236 230 230 235 244 245 240 237 241 241 240 240 240 240 240 240 241 241 243 242 242 248 251 250 249 248 244 242 241 240 241 242 243 243 242 242 242 243 243 243 244 244

GFSWCAN_sfc_thetae_081.txt.gz
Theta_e
291 291 291 292 292 292 292 292 292 293 294 294 294 295 296 297 298 296 293 296 294 288 288 287 289 287 288 290 287 285 285 285 285 285 284 284 284 284 285 287 288 287 285 285 286 284 281 289 290 289 292 289 291 294
289 290 290 290 291 291 292 292 293 293 293 294 294 295 296 296 298 297 290 296 297 289 288 290 291 291 291 292 290 286 286 285 289 286 286 284 282 282 284 282 284 285 290 288 289 289 288 292 289 291 292 291 291 293
288 288 289 290 290 290 291 292 292 293 293 294 294 295 295 296 297 296 293 293 290 285 287 288 288 292 293 292 294 289 288 289 288 288 287 285 283 284 282 283 285 285 285 288 289 287 287 289 289 290 291 292 292 293
287 287 289 289 290 291 291 291 292 293 293 294 294 294 295 295 296 296 292 294 291 288 283 285 290 289 291 292 292 293 289 288 288 289 286 285 284 284 284 283 285 285 286 286 286 283 285 287 288 290 289 290 290 291
287 287 288 289 290 291 291 291 292 293 293 294 294 294 294 295 296 296 295 294 294 288 283 284 285 288 289 290 290 291 290 288 288 287 285 284 284 282 281 281 283 284 285 286 287 288 288 289 290 290 288 289 289 287
287 287 288 289 289 291 291 292 292 292 293 294 294 294 294 295 295 293 285 292 295 292 284 280 286 284 287 289 289 289 290 289 290 288 286 287 283 284 281 282 287 286 288 289 287 290 288 290 291 290 289 288 288 287
285 286 287 288 289 290 291 292 292 292 293 293 294 294 294 294 294 287 285 290 295 293 284 280 281 283 285 287 286 287 287 287 289 286 284 284 282 284 282 281 285 285 285 286 288 287 286 287 286 287 286 285 283 282
285 286 287 288 289 290 291 292 292 292 293 293 293 293 293 294 293 288 293 294 294 287 285 279 278 280 284 283 282 286 285 286 285 286 283 283 281 283 279 285 285 284 284 283 284 282 283 286 284 283 282 282 281 280
285 286 287 287 288 290 291 291 291 292 292 292 293 293 292 288 284 286 294 295 294 287 281 280 276 276 284 283 284 283 286 281 285 282 282 283 280 278 283 283 284 282 282 283 281 279 280 282 282 281 281 280 280 278
285 285 287 287 287 289 291 292 292 292 292 292 290 284 281 285 293 293 287 284 283 284 283 279 285 278 283 282 281 282 283 281 277 281 282 280 280 284 285 285 286 284 284 281 279 278 277 279 280 279 280 281 281 279
285 285 286 287 287 288 290 292 291 292 292 285 282 280 285 292 287 284 278 277 279 276 279 281 281 278 284 279 280 282 279 281 275 279 279 278 278 282 285 282 284 284 283 282 284 285 285 284 282 280 278 280 279 277
285 285 285 287 287 288 289 291 290 289 286 287 285 287 285 282 279 274 273 276 276 274 274 277 279 283 281 285 281 279 277 278 273 280 277 275 280 283 282 282 282 282 282 282 282 283 283 282 283 282 281 278 276 275
284 284 285 286 287 287 288 289 290 291 289 286 283 279 278 277 271 269 267 271 272 275 275 278 277 279 279 282 280 278 275 274 278 275 274 278 280 273 271 271 273 275 279 281 281 279 276 278 274 277 274 271 269 266
283 283 285 285 286 286 286 287 288 289 285 279 275 271 272 270 272 274 274 275 278 277 276 280 276 277 279 277 277 274 274 275 271 270 272 280 273 265 265 265 266 269 268 271 276 274 271 271 268 263 265 266 265 262
282 283 283 284 284 285 286 287 285 280 279 277 275 269 270 273 269 268 269 273 272 276 278 277 276 277 275 274 275 271 269 268 270 272 278 279 266 262 262 261 261 261 263 264 264 263 262 261 261 258 258 260 259 257
282 281 279 282 283 285 285 280 276 275 268 272 271 270 266 270 269 267 269 270 267 276 278 278 273 272 272 272 270 270 269 268 273 277 271 265 260 259 257 256 256 256 258 260 261 261 260 258 259 257 256 256 256 256
279 274 279 282 284 281 279 272 271 263 265 266 263 257 259 264 264 262 261 265 264 272 275 274 270 270 270 268 268 270 271 275 265 262 259 255 254 254 253 254 255 254 256 257 256 257 256 254 254 255 255 253 255 254
273 276 280 281 277 273 267 267 264 262 258 257 260 257 258 258 259 260 260 262 264 271 272 272 271 268 268 267 269 271 264 259 256 256 255 254 253 253 253 253 253 253 254 253 253 253 254 255 257 258 254 253 252 252
276 276 277 279 276 270 265 263 264 257 255 256 257 258 258 258 259 259 260 261 263 264 269 273 272 270 270 259 258 256 255 254 255 256 255 253 252 251 251 252 253 253 252 254 256 257 257 256 258 257 255 256 256 256
277 277 276 277 275 267 262 260 265 261 258 257 259 258 258 258 258 259 259 257 261 265 267 266 259 252 252 251 251 251 251 253 253 255 258 256 255 254 254 254 254 254 254 254 254 254 255 255 256 256 257 258 257 255
270 270 272 268 264 261 259 260 258 259 258 258 258 259 258 258 256 256 256 256 256 249 254 249 249 250 249 249 250 249 250 251 253 254 255 256 255 255 255 255 255 255 255 255 255 255 257 256 255 256 256 256 256 256
265 268 264 267 262 260 257 257 259 259 260 258 258 258 256 256 255 254 253 253 250 248 248 249 249 248 249 249 249 249 249 248 250 252 253 254 254 254 254 255 255 256 256 256 256 256 255 254 255 255 255 254 255 255
263 264 260 259 260 260 255 258 257 256 258 257 259 257 254 255 254 256 251 250 249 250 249 248 248 248 248 249 249 250 249 250 253 253 253 253 253 254 254 254 256 255 255 254 256 255 254 254 254 255 254 254 255 255
257 250 251 251 253 252 255 255 257 256 256 257 257 255 253 252 253 256 251 250 250 251 250 249 249 251 251 249 251 250 249 250 252 252 252 253 253 252 252 253 253 253 253 254 254 254 254 254 254 254 254 254 253 253
255 244 247 246 249 250 251 251 250 253 251 252 254 254 252 251 255 253 252 251 251 251 251 252 252 252 251 252 252 251 249 249 251 252 251 252 252 252 252 252 252 251 252 253 253 253 252 252 252 253 252 252 251 251
242 239 244 242 244 247 245 249 246 246 249 250 249 250 251 253 256 252 251 250 250 250 250 249 249 250 252 250 251 251 249 248 248 252 251 250 251 252 253 254 253 252 251 251 252 252 251 251 251 251 251 250 250 249
244 242 242 241 242 243 246 245 246 247 246 246 245 246 251 254 252 251 252 251 250 249 249 249 248 249 249 249 250 249 248 247 246 247 246 247 248 248 249 251 252 250 249 250 250 251 251 251 250 250 250 250 249 248
240 239 242 242 242 242 243 244 244 243 243 243 243 246 250 249 250 251 250 249 247 247 248 248 246 246 246 247 247 246 247 246 247 246 246 247 247 247 246 247 247 251 248 248 249 249 248 249 248 248 248 249 249 249
241 239 238 241 241 243 241 242 243 242 241 240 244 247 248 249 249 248 249 245 243 244 246 247 248 244 245 245 244 244 244 245 248 246 246 249 250 250 247 247 247 248 248 248 250 252 248 248 248 248 248 249 249 248
241 236 243 242 243 244 243 239 241 238 237 237 236 240 243 244 246 244 243 243 245 246 245 243 242 242 245 245 246 247 245 244 245 248 248 248 248 248 246 246 247 247 247 246 248 249 252 252 251 249 248 247 248 248
238 239 243 245 244 242 239 235 233 233 234 236 233 237 242 241 242 244 243 242 242 241 242 244 244 244 242 244 244 244 247 245 242 243 244 245 246 246 246 247 247 246 245 245 245 246 247 247 247 246 246 246 246 246
240 238 241 245 244 239 236 238 239 240 239 240 242 235 240 242 246 249 244 241 242 243 244 243 242 246 244 245 244 245 245 245 244 246 244 246 246 246 247 247 245 244 244 245 245 245 245 244 245 245 246 245 245 245
239 238 238 241 243 244 241 239 243 244 242 242 242 238 239 240 246 249 244 242 245 246 245 246 246 245 244 244 244 246 245 245 245 249 251 251 250 249 248 247 246 245 244 244 245 246 244 244 244 244 244 244 245 245

GFSWCAN_sfc_thetae_084.txt.gz
Theta_e
291 290 290 290 291 291 292 292 293 293 294 294 294 295 296 297 299 295 293 296 293 286 286 287 289 286 286 288 285 284 285 285 285 284 285 284 285 285 281 283 283 283 280 279 277 274 277 287 287 286 289 286 287 289
289 290 291 290 290 291 292 292 292 293 293 294 294 294 295 296 298 297 290 296 296 287 287 290 291 291 290 290 287 286 285 285 287 285 285 284 282 280 282 279 283 284 286 284 285 284 286 286 285 287 288 288 286 289
287 287 289 290 290 290 290 291 292 292 292 293 294 294 294 296 298 296 292 293 291 285 286 286 286 290 292 291 292 287 286 288 287 288 286 284 282 284 281 281 282 283 283 284 287 284 283 285 286 286 287 287 289 289
287 286 287 289 290 290 290 290 291 292 293 293 294 294 294 295 296 296 292 293 291 286 280 282 289 287 290 291 290 291 288 287 287 288 285 284 283 283 282 281 282 284 284 284 282 281 281 283 284 286 287 288 288 288
287 287 287 289 289 290 290 291 291 292 292 293 294 294 294 294 295 295 294 294 294 287 280 281 283 285 288 289 289 290 289 286 285 285 283 282 281 280 279 281 280 282 284 285 286 287 287 287 286 288 287 287 287 285
287 287 288 288 288 288 290 290 291 292 292 293 294 294 294 295 295 291 285 292 294 292 283 275 283 280 284 287 288 287 287 286 285 284 283 284 282 282 277 274 283 285 287 288 287 288 288 288 288 287 286 287 285 285
285 286 286 287 288 289 290 290 291 292 293 293 294 294 294 295 291 283 282 287 295 292 282 274 275 280 283 284 282 283 284 282 284 282 280 281 280 282 276 270 281 282 284 283 284 285 284 286 286 286 285 284 282 279
285 285 286 287 288 288 289 290 292 292 292 293 294 294 294 294 292 287 291 295 294 286 284 277 276 278 283 282 280 282 280 281 281 280 278 279 279 280 274 281 281 281 281 281 282 281 282 283 283 282 282 281 280 279
285 285 286 286 288 288 289 290 292 292 292 293 294 293 290 287 284 284 294 295 292 285 278 278 271 268 281 282 282 282 281 277 282 277 278 279 274 274 278 282 282 280 280 281 279 277 278 280 279 279 278 278 279 278
285 285 285 286 288 287 288 290 292 292 293 293 289 284 280 283 292 292 285 283 283 283 277 277 276 272 279 278 279 279 280 275 273 278 280 276 273 281 282 282 283 281 281 279 276 277 275 275 276 276 278 279 279 279
285 285 286 286 288 287 288 290 292 292 291 285 281 280 284 292 285 281 277 275 275 273 277 273 273 270 279 272 272 279 275 273 269 273 275 274 270 280 281 278 282 283 282 280 281 282 281 281 279 277 275 276 274 275
284 285 285 286 287 287 288 291 292 288 285 285 282 286 284 281 277 273 271 270 268 266 269 269 272 275 275 278 273 273 273 271 266 271 272 269 275 277 275 276 275 276 276 277 277 280 278 279 280 280 279 277 276 276
284 284 285 286 287 287 288 291 291 291 289 285 282 278 276 275 270 267 263 262 263 267 271 274 272 276 275 277 270 270 266 267 271 272 266 270 272 264 262 264 266 268 269 271 272 273 272 272 272 272 273 268 271 269
284 284 284 285 286 287 288 289 290 290 284 277 275 269 270 267 265 265 266 267 270 271 272 270 274 271 277 274 274 267 272 270 268 263 266 269 263 259 259 259 260 261 261 263 264 264 264 264 261 261 261 261 265 264
283 283 284 284 285 286 287 287 285 280 276 271 270 265 264 264 261 260 260 265 264 267 274 272 274 275 272 271 274 268 265 263 269 267 266 261 258 257 257 256 256 257 257 258 259 258 259 259 259 256 255 257 258 258
282 281 279 283 285 286 284 279 275 275 271 272 264 263 260 263 260 260 262 260 262 268 274 274 274 273 271 272 269 266 265 262 265 260 257 259 257 254 251 251 252 253 252 253 255 255 255 255 254 253 253 253 254 256
279 271 281 284 283 281 280 270 268 262 265 262 254 254 254 259 257 255 255 258 263 266 269 270 267 267 270 269 268 267 263 259 253 252 251 248 248 248 249 251 251 251 251 251 250 253 252 252 253 253 252 251 252 252
271 276 282 282 276 274 266 266 262 260 253 255 255 252 254 254 256 256 256 260 260 263 266 268 270 264 266 264 261 256 254 254 251 251 250 248 246 246 245 246 246 247 247 247 247 248 250 251 256 255 253 252 252 252
275 277 279 281 275 266 262 260 261 253 250 252 254 255 254 254 256 257 258 261 260 262 261 265 264 266 261 251 250 254 252 250 250 252 251 247 247 245 245 246 247 247 246 246 249 249 248 249 249 250 251 254 254 255
279 279 278 277 275 265 257 256 261 256 251 254 255 253 254 253 255 256 255 256 260 264 261 259 252 249 248 248 249 249 249 251 251 252 251 250 250 248 247 247 248 247 247 247 247 251 248 249 251 250 251 253 252 253
271 271 274 269 264 260 257 257 256 257 257 255 256 257 255 255 252 252 253 256 254 249 251 247 246 248 249 248 248 247 249 250 247 247 247 248 250 249 248 248 248 248 248 248 248 249 250 248 249 251 254 254 254 255
266 270 265 268 262 260 258 257 258 259 258 257 258 257 254 254 252 251 253 253 249 249 248 248 248 246 249 250 249 249 248 246 245 246 249 249 248 248 248 247 248 249 249 249 249 248 248 248 250 253 253 254 256 255
265 265 260 260 261 259 254 259 256 256 256 255 256 255 253 252 252 256 250 250 249 250 248 247 248 248 248 249 250 248 246 244 245 245 245 246 246 247 247 248 250 248 248 249 251 252 253 255 255 254 255 255 255 254
258 251 251 252 253 251 254 254 256 255 255 255 255 252 251 250 252 255 248 245 245 246 245 244 243 245 244 244 244 243 242 242 245 245 244 244 246 245 246 248 248 248 250 253 253 254 254 254 255 255 255 254 254 254
254 243 247 247 249 250 249 247 246 248 246 250 253 252 251 251 253 248 246 245 247 247 247 247 248 248 246 248 248 245 244 243 243 244 246 246 247 249 250 251 251 251 252 254 253 253 253 253 253 253 253 252 252 252
243 241 244 242 244 246 245 248 244 242 243 245 247 249 251 252 252 247 247 248 249 249 248 248 248 248 250 250 249 249 248 247 246 248 248 248 249 249 252 253 254 252 252 251 253 252 252 251 250 248 248 248 250 248
245 243 244 243 244 244 245 244 243 244 241 242 243 246 250 253 250 250 251 250 250 249 249 249 248 248 248 249 250 249 248 247 245 246 245 245 245 245 246 247 250 249 249 249 250 249 248 248 248 248 248 248 249 249
238 239 242 243 244 243 243 244 244 242 242 242 241 245 246 248 249 250 250 249 247 247 247 248 247 246 245 246 245 244 245 244 245 245 244 245 245 245 245 245 246 253 247 247 247 247 245 245 245 244 244 244 244 244
238 237 236 239 240 242 240 242 240 239 239 237 240 244 246 248 247 246 248 245 243 243 244 245 245 242 244 245 245 244 243 242 244 245 245 245 245 245 243 243 242 243 243 242 248 252 246 244 244 244 244 244 245 242
237 234 239 240 241 240 238 234 234 232 233 234 234 238 242 244 246 245 243 242 242 242 242 239 238 236 238 238 241 242 239 240 241 243 242 243 244 241 240 241 241 241 241 240 243 244 249 246 247 245 244 243 242 243
236 234 238 239 239 237 234 231 229 230 230 230 229 231 236 237 240 240 240 239 237 235 235 237 238 238 238 238 237 238 243 239 238 241 241 241 242 242 242 243 243 241 240 240 240 240 242 242 241 241 242 243 243 244
236 233 237 241 240 234 231 233 233 233 233 233 235 231 235 236 241 245 241 236 236 237 241 239 237 242 241 240 239 240 245 244 243 244 243 243 243 243 244 244 241 239 239 242 241 241 241 241 242 242 243 243 243 243
235 233 234 237 239 239 236 235 237 238 236 236 237 234 234 237 244 247 242 241 244 243 244 243 242 242 241 241 242 243 244 243 242 249 251 251 250 249 245 243 242 242 241 242 242 242 242 242 243 243 243 244 244 245

GFSWCAN_sfc_thetae_087.txt.gz
Theta_e
291 291 291 291 292 292 293 294 294 294 295 295 295 296 297 298 299 295 293 295 289 284 284 286 288 286 286 287 284 284 286 285 285 285 283 285 279 282 280 282 283 283 281 281 279 276 278 286 286 286 289 286 288 289
291 291 291 291 291 291 292 292 293 293 294 294 295 295 296 297 298 296 290 296 295 287 286 289 289 290 289 289 287 285 285 285 287 286 285 285 281 280 278 279 284 281 284 282 285 285 286 285 285 286 288 288 286 288
288 289 291 291 291 291 292 292 292 292 293 293 294 294 295 296 297 295 292 293 291 285 284 285 285 289 291 290 292 286 284 289 286 288 285 284 281 283 280 277 279 282 281 283 285 282 283 284 285 286 287 287 287 288
286 286 288 290 291 291 291 291 291 291 292 292 293 293 294 295 297 296 290 293 289 284 279 282 288 285 289 290 290 290 288 288 288 287 285 284 282 284 282 281 282 284 282 282 281 281 281 284 284 285 286 287 286 286
287 286 288 290 290 291 290 290 290 291 291 293 293 293 294 295 297 294 293 293 293 283 276 278 281 284 287 288 289 289 288 287 284 283 283 281 280 280 278 279 277 283 285 286 282 285 285 286 285 286 285 286 286 285
288 287 288 289 289 290 290 290 290 291 291 292 294 294 294 295 295 290 283 292 294 290 277 274 281 280 284 286 286 286 287 285 285 284 284 281 282 280 272 268 281 284 287 291 290 292 292 293 290 287 286 286 285 284
286 287 287 288 288 289 289 289 290 291 291 292 293 294 295 295 287 280 278 285 294 290 278 276 276 281 282 282 280 281 282 280 282 280 280 280 280 281 272 271 282 282 285 283 285 285 284 286 286 286 286 286 282 279
286 286 286 286 287 288 287 289 290 291 292 293 293 294 294 294 291 284 287 295 293 286 281 270 274 278 283 278 276 278 278 278 279 277 277 278 279 276 276 279 281 281 282 282 283 282 282 282 282 280 280 280 279 279
284 285 285 286 287 288 288 289 290 291 292 293 293 294 289 285 282 281 294 294 291 284 278 272 269 273 283 282 282 280 278 272 280 273 276 277 270 269 277 280 282 280 280 281 278 276 277 279 279 278 278 276 277 277
285 285 285 285 286 287 287 289 290 292 292 293 288 283 279 283 293 290 285 283 281 281 275 272 270 272 281 280 278 276 276 274 275 274 278 270 268 278 280 281 283 281 280 278 275 276 274 276 277 276 277 276 277 277
285 285 285 285 287 287 287 289 290 292 292 285 281 278 285 292 282 278 275 275 271 271 269 267 271 275 278 270 274 278 275 272 268 271 272 267 272 278 280 279 281 282 281 279 278 279 278 279 277 275 274 275 272 273
284 284 285 285 287 287 287 289 291 287 282 283 283 286 283 276 275 272 267 265 261 263 272 269 270 274 275 277 272 273 269 269 264 266 272 263 272 269 267 269 269 270 272 273 273 274 273 275 273 272 271 271 272 270
284 284 285 286 287 287 288 289 291 292 288 282 279 277 272 271 266 266 265 262 265 261 263 271 273 271 272 276 271 271 268 269 270 273 268 268 266 262 260 261 263 262 263 265 265 265 266 268 267 264 267 265 267 267
283 284 285 286 287 288 288 288 292 289 283 277 270 267 270 264 264 260 261 263 266 265 265 267 272 274 268 273 272 269 271 269 264 261 265 264 258 255 257 257 259 258 258 259 259 260 261 261 261 258 258 259 260 263
283 284 284 284 286 287 287 287 288 278 276 273 269 262 261 263 258 259 257 259 261 260 266 266 266 271 269 269 274 268 267 264 266 264 263 256 254 255 256 256 256 255 255 255 255 255 255 256 256 255 255 255 256 257
282 280 279 285 286 285 283 280 275 270 266 265 260 265 258 260 259 259 256 255 261 266 265 266 262 264 261 271 264 266 263 259 263 258 252 255 254 252 249 249 250 251 251 251 252 251 252 253 252 251 251 253 253 253
279 267 283 284 283 280 280 271 269 261 258 256 253 250 251 253 253 250 250 254 261 266 261 264 262 263 271 262 264 262 259 254 251 250 248 250 252 249 247 246 247 248 248 248 248 250 248 249 249 251 253 251 251 252
266 273 283 283 276 273 265 264 262 256 251 252 253 252 251 250 251 250 251 255 259 258 261 264 268 264 265 266 267 255 254 255 253 255 254 252 249 244 244 245 246 244 245 245 245 245 246 248 248 248 247 248 250 251
270 275 282 281 274 264 261 260 259 252 249 248 250 252 250 251 253 255 251 254 255 255 258 261 262 261 257 250 250 250 249 251 252 253 254 251 250 246 245 245 245 246 245 245 246 246 245 244 246 246 247 248 248 248
280 280 278 276 272 261 258 257 258 255 251 253 251 250 248 251 252 251 251 255 256 255 252 250 246 246 247 247 248 247 249 250 250 252 253 252 251 249 246 245 247 245 245 245 245 248 246 247 249 248 247 248 248 248
271 272 274 266 260 258 254 252 254 253 251 251 250 252 252 250 249 249 250 255 252 247 248 246 246 249 247 247 247 246 248 249 249 249 250 250 252 250 247 247 246 244 246 244 245 245 245 245 246 246 247 247 248 250
265 271 263 266 260 256 255 255 254 255 254 251 252 250 248 249 249 249 252 249 247 246 246 247 248 248 247 246 248 249 249 248 248 249 250 250 248 246 246 245 246 245 245 245 245 245 245 245 246 246 247 249 253 253
264 264 259 258 257 255 252 255 252 253 252 253 254 252 252 251 251 254 249 248 247 249 248 248 249 249 248 248 247 247 245 246 248 248 245 244 244 242 243 243 244 244 245 246 247 247 247 252 251 250 253 253 254 255
258 250 251 250 253 252 254 251 254 252 252 252 253 250 250 250 253 253 248 246 248 249 248 248 247 247 246 244 242 241 241 239 240 242 241 242 243 243 242 244 244 245 247 248 249 251 251 252 254 253 253 254 255 254
252 244 247 245 248 249 249 249 248 250 249 250 251 251 251 252 254 249 247 245 243 243 245 246 242 242 241 241 243 242 242 241 241 240 242 242 243 244 245 245 246 248 251 251 252 252 253 254 254 254 254 254 254 253
241 240 243 238 241 242 240 242 241 242 242 245 245 247 249 250 247 244 245 245 245 246 247 245 243 244 245 248 248 248 248 247 246 246 247 245 246 245 246 250 252 250 250 250 251 252 252 253 252 251 252 251 252 251
244 243 242 240 240 240 241 241 241 242 238 239 238 241 247 247 249 249 250 250 249 248 249 249 248 247 248 248 249 249 248 248 247 248 248 247 246 245 245 245 246 246 245 245 246 246 246 248 248 248 248 247 247 248
240 240 242 242 241 241 242 241 241 241 240 239 238 242 246 249 250 251 250 250 246 246 246 247 248 247 247 247 247 246 246 244 246 247 246 246 245 244 242 242 243 252 246 244 244 244 243 243 243 244 244 246 246 244
240 238 238 241 242 243 241 242 239 238 237 235 239 242 245 249 248 246 249 247 243 243 242 243 245 241 244 244 245 243 242 240 242 243 242 243 243 245 241 241 241 242 242 241 248 253 248 247 246 245 246 246 246 242
238 233 239 238 240 241 238 234 234 231 231 233 232 236 239 241 244 243 242 241 241 242 241 239 239 235 239 236 240 243 238 239 242 243 242 243 244 241 238 240 242 242 240 238 243 244 248 246 245 243 243 242 242 242
234 233 237 237 239 235 233 229 227 228 228 229 227 231 235 236 239 239 238 237 235 233 235 238 239 234 235 236 235 237 244 239 238 241 241 242 243 242 242 243 243 241 239 240 241 240 242 241 240 241 242 243 243 244
235 233 237 242 240 234 230 231 231 232 231 233 234 228 234 236 241 246 242 236 236 239 241 238 236 243 240 241 239 240 244 245 242 244 243 244 244 244 245 244 243 240 240 242 242 241 240 241 242 242 243 242 243 244
234 231 232 235 239 240 236 235 237 239 236 236 238 234 233 238 245 248 243 241 246 245 246 244 243 242 242 242 243 244 244 244 244 248 250 250 249 249 248 245 244 242 242 243 243 243 242 242 243 243 243 244 244 245

GFSWCAN_sfc_thetae_090.txt.gz
Theta_e
291 291 292 292 293 294 294 295 295 295 295 296 296 297 298 300 300 296 293 294 289 283 284 287 288 285 287 287 287 285 287 287 286 285 284 282 276 281 279 281 283 283 282 281 279 277 278 286 286 286 289 287 288 287
292 291 292 292 292 293 293 294 294 295 295 295 295 296 297 298 298 296 290 296 294 286 285 289 290 290 289 290 287 285 285 285 288 286 285 284 277 279 277 277 283 280 286 283 285 284 286 286 285 287 288 288 287 288
289 292 291 291 291 292 293 292 293 294 294 294 295 295 296 297 297 296 292 293 290 284 284 285 284 288 290 289 291 286 285 288 286 288 285 285 277 279 278 275 279 282 281 283 284 281 283 284 286 285 287 286 288 288
287 289 291 291 291 292 293 292 292 292 293 293 294 294 295 297 297 295 291 292 289 284 280 282 287 285 288 290 290 292 290 290 289 287 285 285 277 283 278 280 282 283 283 281 280 281 281 283 284 285 286 286 287 287
287 287 290 291 291 291 291 291 291 291 292 292 293 293 295 296 296 293 293 293 292 283 278 278 282 284 286 288 290 291 290 287 285 284 284 282 281 280 277 280 278 284 284 283 281 285 285 287 285 285 285 285 285 285
288 288 289 290 291 290 291 291 291 291 291 291 293 293 294 296 294 287 280 290 294 288 278 275 281 280 284 287 286 286 287 286 285 284 281 280 282 280 276 272 281 285 287 289 288 290 291 290 289 287 286 286 287 285
288 288 289 289 289 289 289 289 290 290 291 292 292 293 294 295 286 280 277 284 293 289 277 275 274 282 283 282 281 282 283 282 283 281 281 280 280 280 273 269 282 284 285 284 285 286 285 285 286 284 285 285 283 281
287 287 287 287 288 288 288 288 290 290 291 292 292 293 294 294 290 281 290 295 292 284 278 271 273 279 283 276 275 279 279 279 280 278 278 279 280 276 275 279 282 282 283 283 283 282 282 282 282 281 280 279 278 278
285 285 286 286 287 288 287 288 289 290 291 292 293 294 290 283 275 279 294 293 289 284 273 266 269 270 283 280 282 278 278 273 280 275 277 278 268 269 276 280 282 281 281 281 277 276 277 279 279 278 276 275 276 276
285 285 285 285 286 287 287 287 289 289 292 292 287 282 278 279 292 290 285 280 276 280 273 268 267 272 281 278 277 276 275 275 274 275 278 267 266 278 280 281 282 281 279 278 276 277 275 275 274 274 274 274 275 274
284 284 285 285 286 287 287 287 289 289 291 282 281 277 282 292 280 272 271 273 266 266 273 267 269 273 279 272 272 278 274 272 266 269 270 263 271 277 272 275 274 275 278 276 275 275 273 273 273 273 274 271 270 270
284 284 284 285 286 287 287 287 289 287 284 281 284 285 278 276 271 265 263 263 261 262 272 269 271 274 275 277 274 274 269 270 263 267 272 262 271 266 264 266 265 265 267 269 268 269 268 269 267 267 267 268 268 268
283 284 284 285 286 287 288 288 290 290 289 282 280 273 272 268 263 260 259 261 265 263 267 272 271 274 276 278 272 271 267 266 266 273 269 266 264 260 258 260 262 261 261 262 262 262 263 260 260 258 260 259 262 265
283 284 285 285 286 287 288 288 290 289 283 276 273 265 263 261 258 258 260 261 264 262 264 265 274 269 265 271 273 269 269 270 267 264 264 260 256 254 256 256 257 256 257 257 256 257 257 257 256 254 254 254 257 260
284 284 285 286 287 287 287 286 287 278 275 267 267 261 260 256 255 255 254 261 266 260 263 266 268 270 271 267 268 265 264 263 263 263 258 255 253 253 253 252 253 253 254 253 253 253 254 254 253 253 252 252 253 255
282 281 280 285 285 285 285 280 273 270 262 260 255 258 256 260 260 255 253 259 263 268 262 264 259 260 259 264 265 262 263 260 262 256 253 252 251 251 250 250 249 249 249 249 250 251 252 252 251 251 250 250 250 250
280 267 283 284 282 281 279 271 264 258 259 258 251 250 248 253 253 251 250 256 262 266 261 258 259 259 264 258 258 255 258 253 249 250 249 247 248 249 249 248 249 248 248 249 248 250 249 249 248 251 252 251 250 250
268 274 284 283 276 273 266 263 257 256 252 254 254 251 251 250 249 249 252 258 262 261 257 261 263 258 260 262 263 252 249 248 247 248 250 248 248 250 250 248 248 247 247 247 246 245 244 247 248 247 244 245 245 246
274 278 280 280 274 265 264 261 258 252 250 251 255 255 252 251 251 253 252 255 257 257 256 258 257 253 251 250 250 250 249 250 250 252 253 251 252 250 250 249 247 245 245 244 244 245 244 242 244 244 245 245 247 245
279 279 278 275 272 265 260 258 258 254 251 252 252 252 250 251 251 249 252 254 253 250 247 246 244 245 245 247 249 247 249 250 247 248 253 255 253 252 251 249 249 246 245 245 244 247 246 247 247 247 245 246 247 247
271 272 273 266 260 258 255 254 255 253 249 251 249 252 253 251 248 248 250 253 249 245 245 245 245 247 245 244 245 245 247 248 246 246 246 249 251 251 248 248 247 244 245 244 244 247 245 245 246 245 244 245 245 246
264 271 262 265 259 257 256 255 254 252 253 249 251 248 246 247 246 248 251 248 246 245 245 247 246 246 247 248 249 250 249 246 246 246 248 248 247 248 248 247 245 246 244 244 243 243 244 245 245 244 245 246 249 249
263 263 258 257 257 255 251 253 251 251 251 250 248 248 248 247 250 254 248 246 247 249 248 247 248 248 248 248 247 248 247 247 247 246 245 245 245 244 243 244 242 243 244 245 245 244 245 249 249 249 248 249 248 249
258 249 250 249 251 247 250 249 251 250 251 251 250 250 250 249 254 251 246 246 248 248 248 247 242 244 244 243 244 245 245 243 243 243 239 240 243 244 241 243 242 243 245 246 246 246 247 248 252 251 251 250 249 250
253 245 247 245 249 248 248 247 248 249 249 249 251 251 250 251 251 249 248 246 241 240 241 240 240 240 240 240 241 241 239 240 241 239 242 239 240 242 244 243 243 244 246 246 245 248 249 251 251 250 251 251 252 253
242 241 244 243 244 245 240 243 241 241 241 244 243 245 247 250 250 247 244 244 244 246 246 245 245 244 243 245 244 244 245 245 245 246 248 247 246 244 245 246 247 248 246 245 244 244 247 249 248 249 248 249 251 250
244 243 241 239 239 239 241 240 239 241 238 241 240 244 250 251 250 250 250 251 250 249 248 248 248 248 247 249 250 249 249 248 248 249 250 249 248 248 247 246 245 246 242 242 241 241 242 242 243 244 245 245 244 246
240 240 242 243 241 238 238 238 238 238 238 238 238 242 246 248 249 252 252 252 248 246 246 247 247 248 248 247 246 245 246 242 243 246 246 246 246 244 242 244 244 251 248 243 243 243 241 242 242 243 242 244 245 243
237 236 236 240 237 239 236 238 237 236 237 234 239 242 246 249 248 247 249 246 241 240 241 242 243 238 241 241 242 240 241 238 241 243 241 242 242 245 240 239 240 241 241 240 246 252 250 247 247 247 246 246 247 243
237 231 238 237 240 241 238 234 234 230 230 232 231 236 238 239 241 240 240 240 240 242 240 238 237 235 239 236 241 243 238 239 242 244 242 243 245 242 239 242 243 243 241 237 243 245 248 246 245 242 244 244 243 243
233 232 237 236 239 235 232 228 226 227 228 228 226 231 236 235 239 239 238 238 236 233 235 239 238 234 235 235 235 236 245 239 238 241 242 243 244 244 244 245 245 242 239 240 241 241 243 242 241 242 243 243 243 244
234 233 237 242 241 233 229 230 231 232 231 233 234 227 234 236 242 246 243 237 237 241 244 239 238 246 242 242 240 242 245 247 246 245 243 245 245 246 246 245 244 241 241 242 243 242 242 241 243 243 244 244 244 244
233 230 231 235 239 240 236 236 237 239 236 236 238 234 233 238 245 249 244 242 247 247 248 247 245 244 244 244 244 245 245 245 245 250 251 250 249 249 248 247 245 244 243 243 244 244 243 243 243 244 244 244 245 245

GFSWCAN_sfc_thetae_093.txt.gz
Theta_e
291 292 293 294 294 295 296 296 296 296 296 297 297 298 299 300 299 294 292 294 289 284 285 285 286 286 287 288 287 286 287 286 284 282 283 277 275 280 278 282 285 285 283 281 280 271 275 287 286 284 287 286 287 287
292 292 292 293 294 295 295 295 295 296 296 296 296 297 298 298 298 297 289 294 293 286 285 288 286 288 288 289 287 285 285 286 287 285 283 278 277 278 277 278 284 282 286 283 285 282 287 285 286 286 288 288 287 289
291 292 291 292 293 294 294 294 295 295 295 295 295 296 297 297 297 295 292 292 289 285 285 285 284 287 290 288 291 287 286 288 286 287 284 281 276 278 277 275 280 282 282 285 284 281 283 285 286 286 287 286 287 288
289 291 292 292 293 293 294 293 294 294 294 295 295 295 296 297 297 295 291 292 288 285 280 282 287 285 288 291 294 293 290 290 289 288 285 281 275 283 278 281 280 282 283 278 279 280 282 284 284 286 286 287 287 287
287 290 291 292 292 292 292 293 293 293 293 293 294 294 296 297 297 293 292 292 292 285 278 281 284 285 287 291 292 292 291 288 286 285 284 280 278 279 280 281 278 283 283 283 280 285 285 286 286 285 285 285 286 286
289 290 290 291 292 292 292 292 292 292 292 292 293 293 295 295 292 285 281 289 292 288 281 275 282 282 284 286 286 287 288 286 285 285 282 279 281 279 275 271 281 285 287 289 289 288 289 289 288 285 286 285 285 285
289 290 290 290 290 290 290 291 291 291 291 292 292 293 294 294 288 280 276 285 293 288 279 276 277 283 284 283 283 284 284 283 284 282 282 281 280 280 270 272 281 283 286 285 286 287 287 287 286 284 285 283 281 279
288 288 288 289 289 289 289 289 290 291 291 291 292 293 294 293 288 286 290 294 291 282 278 272 274 279 284 279 280 282 281 281 281 279 278 279 279 275 274 280 282 281 284 283 283 283 283 283 282 281 280 279 280 278
286 286 286 286 288 288 288 288 290 290 291 292 294 294 289 281 274 284 293 291 288 281 271 269 271 271 282 279 280 280 280 276 280 277 278 277 273 273 278 281 282 281 280 280 277 276 277 278 277 276 275 276 277 277
285 286 286 286 287 288 288 288 289 290 291 293 287 281 276 278 290 288 279 274 276 275 272 267 268 273 279 277 274 275 275 275 271 275 277 271 268 277 273 276 276 276 278 277 277 277 275 273 274 274 273 272 273 273
285 285 285 286 286 287 288 287 288 288 290 277 280 275 284 290 278 271 267 267 264 268 271 266 268 274 279 274 271 278 272 269 267 271 270 267 270 275 269 270 269 269 272 270 272 272 270 269 270 270 271 269 269 268
284 284 284 285 286 287 287 287 287 287 283 280 283 282 276 270 266 266 259 264 263 263 271 270 270 273 275 277 275 273 269 269 265 269 269 262 270 264 262 263 264 263 263 264 262 263 263 265 262 263 261 262 262 264
284 284 285 286 287 287 288 288 289 290 289 284 279 269 270 264 262 257 258 259 261 263 268 271 273 274 276 276 271 270 268 266 267 268 267 264 263 260 258 258 259 260 258 257 257 258 258 257 257 255 256 255 258 261
283 284 285 286 287 287 287 287 288 290 280 276 271 263 260 259 257 256 257 258 261 262 265 268 271 271 270 272 269 266 267 271 264 263 265 258 255 254 255 255 255 255 255 254 253 254 254 254 254 252 252 252 254 257
284 285 286 286 286 286 286 286 286 278 269 268 266 259 258 256 254 254 254 263 266 265 262 265 267 270 269 269 268 264 262 260 261 262 256 254 252 252 252 251 251 251 251 252 251 251 252 252 252 251 251 250 251 252
282 281 281 285 284 284 284 278 271 271 261 259 253 257 257 256 258 255 258 259 264 266 261 264 262 260 261 260 261 261 262 258 259 252 252 251 249 249 249 249 249 249 249 249 250 250 251 251 250 249 249 250 250 249
282 274 284 284 283 280 278 268 261 258 258 257 254 249 250 251 250 251 251 257 262 260 259 256 259 258 262 258 258 255 257 253 249 250 250 248 247 248 247 247 248 248 247 247 247 249 248 249 248 251 251 250 247 247
272 276 283 283 277 274 266 262 257 255 251 254 253 251 250 251 249 251 254 258 257 256 256 260 261 256 253 256 255 250 248 246 246 248 251 250 250 250 250 251 250 248 248 247 246 245 246 249 250 249 246 248 248 248
278 277 279 279 274 266 262 259 257 252 249 248 250 251 249 250 252 254 254 256 256 255 255 256 254 248 247 247 245 246 247 246 248 250 250 248 248 249 252 253 253 250 248 247 246 246 244 243 246 247 248 247 248 248
278 279 278 275 272 262 256 255 258 254 250 252 251 251 249 252 250 249 254 253 253 249 246 245 244 243 246 245 245 244 247 248 245 244 248 253 252 252 252 251 250 249 249 247 245 247 246 247 246 246 245 245 245 248
271 272 272 266 260 259 255 252 253 251 248 251 248 252 251 249 248 248 249 251 249 245 244 243 244 247 247 244 243 243 246 247 245 245 244 247 250 250 250 249 249 248 247 248 247 248 247 244 246 245 243 244 245 246
265 271 263 265 261 259 256 254 253 251 252 248 250 248 249 249 246 248 248 247 246 245 243 244 245 245 245 246 246 246 246 246 247 248 249 249 248 249 250 249 247 248 248 247 244 245 246 246 246 244 244 246 247 246
263 264 258 257 258 255 250 252 251 250 251 249 247 248 247 245 248 250 245 242 244 247 245 244 243 243 245 244 245 246 243 243 243 245 246 246 246 246 243 243 241 241 244 245 243 244 245 248 248 247 246 246 246 246
258 250 249 248 250 245 249 249 251 251 250 249 247 246 248 247 253 250 244 244 245 245 242 241 237 242 242 241 241 240 241 238 239 242 240 239 241 243 241 242 241 242 244 246 245 245 245 246 249 247 247 247 247 247
252 244 246 244 246 246 246 246 245 247 244 245 250 251 250 249 250 249 248 248 247 241 241 238 238 239 239 239 240 240 239 239 241 240 242 238 239 240 243 242 242 243 242 242 243 243 245 246 246 246 245 245 245 246
242 240 242 239 242 243 239 242 240 240 239 242 241 243 247 247 247 245 244 244 242 242 243 243 243 243 244 245 244 243 243 240 240 240 245 242 242 243 243 243 244 246 244 243 243 242 244 246 244 244 245 245 246 244
244 241 240 238 239 239 240 239 238 241 239 240 238 243 248 249 247 250 251 252 250 249 249 248 247 247 247 247 246 246 245 243 245 247 248 246 247 247 247 247 248 248 243 242 241 240 241 242 243 244 244 244 242 243
237 238 240 241 240 237 238 237 238 239 237 237 237 242 245 246 248 251 252 251 247 244 243 244 244 245 245 246 246 243 245 239 240 243 245 245 245 245 244 244 244 251 248 243 243 243 241 242 242 243 244 244 246 244
237 235 235 240 238 239 236 238 237 236 236 234 239 242 243 244 244 243 246 243 237 238 240 242 243 235 241 240 241 241 240 237 241 243 242 244 243 247 240 240 240 241 242 242 246 251 248 246 247 248 248 248 248 246
237 230 238 236 240 242 238 234 234 230 229 232 231 236 237 239 240 238 238 238 240 243 241 238 239 234 240 237 242 244 239 239 242 245 243 246 246 242 238 240 244 245 243 239 243 244 248 247 244 241 242 244 244 245
232 231 236 236 239 236 232 227 226 227 227 227 225 231 236 236 238 240 239 238 236 233 237 242 241 235 236 238 236 238 247 241 240 243 244 245 246 246 246 247 246 245 242 241 242 242 244 244 243 243 243 244 245 245
234 234 238 243 241 233 229 230 230 232 231 232 234 227 234 237 242 248 244 238 237 240 245 241 239 248 244 245 243 244 247 249 247 246 244 245 246 246 247 247 246 243 243 243 243 243 243 242 243 244 245 245 245 245
233 229 230 234 238 240 235 234 237 239 235 236 238 234 234 239 246 250 244 243 249 250 250 250 248 247 246 245 246 248 247 246 247 251 252 252 250 250 249 248 247 245 244 244 244 245 244 244 244 244 244 245 245 246

GFSWCAN_sfc_thetae_096.txt.gz
Theta_e
292 293 294 294 295 296 297 297 297 297 297 297 298 299 300 300 299 294 292 294 290 283 284 284 285 283 287 290 287 286 288 287 285 286 278 274 271 278 276 281 283 280 280 279 274 269 275 285 284 284 287 286 287 287
292 292 293 294 295 296 296 297 296 296 297 297 297 298 298 298 298 296 289 294 294 286 285 287 285 288 287 286 289 286 286 286 289 284 278 275 277 274 273 278 282 280 283 280 284 283 287 285 285 286 287 288 288 289
292 292 292 294 294 295 295 296 296 296 296 296 296 297 298 298 297 296 291 291 290 284 284 284 283 287 289 288 290 287 286 289 286 287 281 275 275 276 273 272 279 281 280 281 283 282 284 285 285 285 287 287 287 288
292 292 292 293 294 294 294 295 295 295 295 295 296 296 297 297 297 296 291 291 288 285 280 282 288 285 288 294 293 293 290 290 289 287 283 276 279 282 276 280 279 281 283 278 277 280 281 283 284 286 286 287 287 287
291 292 292 293 293 293 293 294 294 294 294 294 295 296 297 297 296 294 293 292 291 285 279 281 285 286 288 291 290 291 290 287 285 284 282 280 281 280 280 279 276 282 282 282 280 285 285 285 285 285 285 286 287 287
290 291 292 292 292 292 292 292 292 293 293 293 294 295 296 295 291 286 284 290 292 287 281 276 283 283 285 287 286 285 287 286 286 284 281 280 281 280 278 271 280 283 286 285 286 287 287 286 286 285 286 285 285 285
290 291 291 291 291 291 291 291 292 292 292 293 293 294 295 295 288 281 280 287 293 287 279 275 277 283 284 284 284 284 285 283 285 284 281 278 279 280 276 274 280 284 284 284 284 286 286 284 283 283 285 283 280 278
289 289 290 290 290 290 290 290 291 291 291 292 294 294 294 292 289 285 290 292 290 280 278 273 274 278 283 280 280 283 282 283 281 280 281 280 281 280 279 281 282 282 283 283 281 281 282 282 281 280 279 279 279 278
287 287 288 288 289 289 289 290 291 291 291 293 294 293 287 280 275 284 294 292 287 281 270 270 269 269 281 279 281 281 281 278 280 279 279 280 277 274 273 277 275 274 276 278 277 277 278 277 278 277 276 277 277 276
286 287 287 288 288 288 288 289 289 291 292 293 286 280 274 283 292 286 279 277 277 272 272 268 269 271 278 275 274 277 277 275 274 276 278 274 272 271 270 268 268 269 270 269 274 274 274 274 274 273 271 271 271 272
286 286 286 287 287 288 288 288 289 291 289 278 274 274 284 287 276 268 266 268 265 267 268 268 269 273 278 272 271 277 271 271 271 273 274 271 272 269 265 264 265 264 265 264 265 267 267 266 267 268 267 265 265 265
285 285 286 286 287 288 288 288 289 286 282 279 282 280 274 267 264 265 258 262 263 263 268 268 271 274 277 277 273 271 269 269 267 271 272 269 267 260 260 260 261 259 258 259 259 259 260 261 259 261 260 258 258 260
285 286 286 286 287 288 288 288 289 290 287 283 274 267 268 264 262 258 257 259 261 263 269 272 270 271 274 276 267 269 268 264 272 268 266 265 261 258 257 257 257 257 256 256 255 256 256 257 256 254 255 254 255 257
285 286 287 287 288 288 287 288 289 288 279 276 265 261 260 260 257 254 255 255 262 266 270 272 270 270 268 270 268 266 264 271 262 262 264 258 255 254 255 255 254 253 253 253 252 253 254 254 254 252 251 250 251 254
285 286 286 285 285 286 286 287 284 271 270 267 264 258 256 255 255 257 258 261 264 266 267 269 269 271 268 268 266 262 263 258 258 260 254 254 253 253 253 252 252 252 251 251 251 251 251 251 250 249 249 249 249 250
283 283 282 285 284 284 282 276 271 269 258 259 251 256 257 255 259 258 256 257 263 263 262 264 262 264 263 262 263 259 258 258 258 251 251 252 251 251 250 250 250 250 249 249 249 249 249 249 249 248 247 247 248 247
282 272 284 284 282 278 277 268 267 257 256 255 253 248 249 250 250 251 251 256 260 259 263 256 260 259 261 258 257 254 254 252 248 250 250 248 248 249 248 249 250 249 249 249 249 250 249 250 248 250 250 250 247 245
270 275 282 282 277 272 263 263 260 257 253 253 254 253 251 251 252 252 254 256 256 255 255 258 260 255 251 256 253 248 249 248 249 250 252 249 248 247 247 248 249 249 248 248 246 246 246 248 250 249 248 248 249 249
278 278 279 279 274 265 262 260 259 253 251 252 253 253 251 251 253 254 254 255 253 250 254 254 250 245 245 246 244 245 245 246 247 249 250 249 250 250 250 249 248 247 250 248 245 246 245 242 245 246 246 246 246 246
278 278 277 275 271 261 257 255 256 255 250 253 251 251 250 252 251 250 253 252 250 248 246 245 244 243 245 245 246 245 245 247 243 243 246 251 252 250 248 247 248 247 248 250 249 250 248 247 245 245 244 245 245 247
271 272 272 266 262 257 253 252 252 250 249 252 246 249 249 248 246 247 248 249 248 245 244 244 244 247 248 246 243 242 246 246 245 245 243 245 247 249 250 251 249 248 245 246 247 248 247 245 246 246 242 244 244 244
266 270 261 264 260 255 253 252 252 250 252 247 249 246 246 246 245 247 247 248 245 246 243 244 244 244 244 244 244 245 245 245 246 247 248 248 246 247 247 245 244 245 244 244 244 244 245 246 246 245 243 246 246 245
263 263 257 256 257 254 250 252 251 249 251 249 246 249 247 244 246 248 245 240 242 244 243 242 241 240 241 241 240 241 240 240 240 240 242 243 242 243 243 244 244 245 246 246 242 243 244 247 247 247 246 245 244 245
258 249 249 247 249 245 247 248 249 248 248 247 247 245 246 244 249 248 243 240 244 240 240 240 235 242 240 239 240 240 240 237 238 241 240 238 241 243 240 242 241 241 244 244 243 243 244 244 247 246 245 243 243 243
253 245 246 244 245 246 245 245 244 247 243 242 244 245 245 244 246 244 244 245 243 241 241 237 237 238 239 239 240 240 238 239 241 242 243 239 238 240 244 242 244 244 241 241 242 242 243 243 243 243 243 242 243 244
242 240 242 238 242 243 240 242 240 240 238 242 240 241 241 244 247 245 244 244 242 242 242 242 241 240 240 242 241 242 243 239 238 239 244 241 241 242 242 243 246 247 243 241 241 241 243 244 242 244 245 245 245 243
245 241 239 238 238 238 240 238 238 240 239 240 238 240 243 245 245 247 247 247 246 246 244 243 242 243 244 246 244 245 245 240 243 246 246 245 245 245 246 245 245 246 242 240 240 240 242 243 243 243 243 244 243 243
237 236 240 240 238 235 238 237 238 239 238 237 236 243 245 245 247 248 249 248 244 241 240 243 243 244 244 245 245 244 244 238 238 242 244 245 245 246 245 247 248 252 248 245 244 244 242 242 243 243 243 244 246 246
237 234 234 240 237 239 236 239 238 236 236 234 239 242 243 244 243 242 245 242 236 238 242 244 244 235 241 240 241 241 240 237 241 244 243 246 244 248 241 242 242 242 242 242 246 251 249 246 246 246 246 247 248 248
237 230 238 237 241 242 239 234 234 230 229 231 231 236 238 239 240 237 237 237 240 244 242 240 240 235 242 238 244 245 241 240 243 246 246 248 249 244 239 240 243 245 246 243 244 245 248 247 247 243 245 246 246 247
232 231 237 236 240 236 232 227 225 227 227 227 225 231 236 236 238 240 240 239 238 235 238 245 244 237 238 240 238 239 249 243 242 243 245 247 247 247 248 248 248 247 244 243 243 243 244 244 244 244 244 244 245 246
234 233 238 243 241 233 229 230 230 231 231 231 233 227 233 236 242 248 244 238 238 240 246 243 241 249 246 246 245 246 249 251 249 248 244 246 247 247 248 248 247 246 245 245 245 244 244 243 244 244 245 245 246 246
233 230 230 235 239 240 235 234 237 239 235 235 237 235 234 239 247 250 245 244 251 250 251 251 250 249 248 247 248 249 249 249 249 252 253 253 251 251 250 250 248 247 246 246 246 246 245 245 244 245 245 245 245 246

GFSWCAN_sfc_thetae_099.txt.gz
Theta_e
293 294 294 295 295 296 298 298 298 298 298 298 299 300 300 300 299 293 292 292 290 280 283 284 285 282 288 289 286 287 287 287 285 283 282 274 272 279 277 279 281 279 278 279 277 274 277 284 284 284 287 286 285 286
293 294 294 294 295 296 297 298 298 297 297 297 298 298 298 299 299 295 289 294 294 286 285 287 286 287 286 286 289 286 284 283 287 281 274 274 276 273 273 278 281 278 282 279 284 282 287 285 285 286 287 286 285 285
292 293 294 295 295 296 296 296 296 296 296 297 297 298 298 298 298 295 290 292 290 285 284 283 283 287 289 288 290 288 287 288 285 286 282 278 277 277 274 272 277 280 279 280 282 281 284 285 284 285 286 286 286 286
292 293 293 294 295 295 296 296 296 296 296 296 296 297 297 297 298 296 290 292 289 285 277 282 289 285 288 291 291 291 289 289 288 286 284 279 278 280 275 280 279 281 282 277 277 280 281 282 283 286 286 285 286 285
292 292 293 294 294 295 295 295 295 295 295 295 296 297 296 297 296 293 292 292 291 286 276 280 285 287 289 289 290 291 291 288 286 285 284 280 280 281 280 280 277 282 281 282 282 285 285 284 284 285 285 285 284 285
292 292 293 293 294 293 293 293 294 294 294 295 295 296 295 294 292 287 284 290 292 287 281 276 283 283 285 287 287 286 287 287 286 284 281 281 282 280 273 271 280 283 284 285 285 285 284 284 284 284 284 284 284 283
291 292 292 292 292 292 292 292 292 293 293 294 295 296 296 295 289 282 282 287 292 287 280 275 278 283 284 285 284 284 286 284 286 284 281 279 280 280 274 274 280 281 282 281 281 284 283 283 282 282 282 281 279 278
291 291 290 291 290 291 291 291 292 292 292 294 294 294 292 293 291 284 291 293 289 281 281 275 276 279 283 280 280 283 282 283 281 281 282 279 280 281 277 275 274 272 278 278 277 280 281 280 280 279 279 279 277 276
288 288 289 289 290 290 290 291 292 292 293 293 293 292 285 280 278 281 292 291 285 279 272 272 270 271 282 280 282 281 282 277 282 279 279 281 277 266 267 267 267 267 269 268 272 278 277 275 275 274 274 274 274 273
287 288 288 288 289 289 289 290 292 292 293 291 285 276 271 283 290 286 278 279 277 272 274 271 272 273 279 277 275 277 278 275 274 276 279 275 266 266 265 265 264 264 265 265 274 273 271 271 271 269 266 266 268 268
287 287 287 288 288 289 289 289 291 291 288 278 274 273 283 284 275 267 267 270 268 267 270 271 272 274 280 275 273 277 274 274 273 274 275 273 269 264 262 262 262 261 262 261 263 264 264 262 264 265 262 260 261 263
286 287 287 288 288 289 289 289 289 284 280 280 280 276 271 268 265 266 256 262 263 263 266 271 274 276 276 277 274 273 272 272 270 272 273 268 262 259 258 258 259 258 258 258 258 259 259 259 258 259 256 256 256 259
287 287 288 288 288 288 288 288 290 290 285 282 273 267 267 265 263 259 257 258 261 263 267 270 271 272 276 276 270 271 269 268 272 269 265 260 258 257 256 256 257 257 256 256 256 256 257 257 255 253 254 254 255 257
287 287 287 287 287 288 290 290 289 284 281 271 264 261 260 260 256 252 252 254 262 266 267 269 266 270 268 271 269 267 267 268 265 266 262 257 255 254 255 255 254 254 254 254 253 254 254 254 254 253 251 251 253 254
287 287 286 285 285 286 286 285 282 269 268 260 261 255 255 256 255 255 255 258 263 263 267 267 267 271 267 266 265 265 264 261 260 259 256 254 254 253 253 253 252 252 252 252 251 251 252 252 252 252 251 250 250 252
284 283 283 284 283 283 282 275 270 264 257 255 250 255 256 256 258 256 255 257 261 259 263 264 262 264 262 260 263 256 259 258 257 252 253 253 252 252 251 251 252 251 250 250 249 249 250 251 251 249 249 248 249 248
281 271 283 284 281 277 278 266 265 256 253 253 251 247 248 249 252 252 252 256 259 256 262 256 263 260 262 261 257 252 254 251 250 251 252 252 251 250 250 250 250 249 248 248 247 249 248 249 248 249 250 250 249 248
272 276 281 281 272 271 264 259 257 256 253 253 254 252 250 250 251 252 253 255 254 254 255 257 259 254 250 254 252 250 249 247 249 250 251 250 249 250 249 248 249 248 248 248 246 249 249 249 249 248 247 247 247 246
277 277 280 278 273 263 261 257 256 253 252 251 255 254 252 251 253 254 254 253 249 249 252 252 248 244 245 247 247 247 248 248 247 248 248 247 248 247 247 247 247 246 246 246 245 246 244 243 244 244 245 245 246 246
278 278 277 275 270 260 256 256 256 255 251 254 253 251 251 252 250 248 249 250 248 247 246 245 243 244 244 246 247 246 246 247 245 244 247 249 249 247 248 246 247 247 246 246 246 249 247 250 247 247 245 244 244 247
271 271 272 265 260 256 252 250 252 249 248 251 246 248 249 247 246 246 248 249 248 245 245 245 245 246 248 247 244 242 245 246 244 245 244 245 247 247 247 246 244 244 245 245 244 246 247 246 246 247 248 247 245 246
264 270 261 263 259 255 253 252 251 250 251 246 248 246 246 246 244 246 246 249 245 246 243 244 245 243 243 244 243 244 244 243 243 244 247 246 245 246 246 243 242 244 243 243 243 243 245 246 246 246 243 246 246 245
263 262 256 256 257 254 249 251 250 248 251 248 246 248 246 243 245 247 244 239 242 244 240 240 240 237 240 239 237 239 238 239 240 240 241 241 242 242 243 243 240 240 243 244 241 241 243 245 245 246 245 245 243 244
258 249 248 247 249 245 247 247 248 247 246 246 246 245 245 243 247 248 243 240 245 239 240 240 235 242 240 238 239 240 240 236 238 240 240 237 241 244 239 242 242 242 243 244 242 242 242 242 245 244 243 241 242 242
254 245 246 244 245 246 245 245 245 247 243 240 244 245 245 242 245 243 244 245 242 240 240 236 235 238 239 239 241 240 238 238 240 243 244 240 238 240 243 242 244 246 242 240 241 241 242 241 242 242 243 241 243 244
243 239 242 238 242 243 240 243 240 240 237 243 240 240 238 242 246 245 245 245 242 241 242 242 242 240 239 241 241 241 243 238 237 239 243 241 240 241 242 243 245 247 242 242 241 240 242 244 242 242 244 245 245 243
246 242 239 237 238 238 240 238 237 240 240 241 238 241 242 246 245 248 245 244 245 245 244 242 242 243 244 245 243 244 241 239 243 245 243 241 243 244 246 246 245 246 240 241 240 240 241 243 243 244 244 245 245 243
237 236 241 240 238 234 237 236 238 240 238 237 236 244 246 246 248 248 249 248 243 239 239 241 242 244 244 245 246 244 244 237 238 241 243 244 245 246 246 246 247 252 247 244 244 245 243 243 244 244 244 245 246 247
237 232 233 239 237 238 237 239 239 236 236 234 239 242 243 244 243 242 244 241 234 238 241 244 244 234 240 242 242 242 241 237 241 245 244 248 245 250 244 244 244 244 244 243 247 251 248 245 246 246 246 246 248 248
237 229 238 237 242 244 240 235 234 230 229 231 231 236 238 239 240 238 237 237 241 245 243 241 239 237 243 240 245 246 242 242 243 247 247 251 251 245 240 242 244 246 245 244 245 247 250 249 248 245 244 246 246 247
232 231 237 236 241 236 232 227 225 226 227 227 225 231 236 237 238 241 240 241 239 236 239 246 246 240 241 242 240 241 250 246 244 245 246 248 249 249 249 250 250 249 247 246 246 245 246 245 245 245 245 245 246 246
234 234 238 243 242 233 228 230 229 231 230 231 233 227 233 235 242 249 245 239 238 241 247 245 242 250 248 248 247 248 250 252 250 249 246 247 248 249 249 249 249 247 246 246 246 245 245 244 245 245 245 245 246 246
232 230 231 235 240 241 236 235 237 239 235 235 237 234 234 238 247 251 245 245 251 251 252 250 250 249 249 249 250 252 252 251 251 254 256 255 253 253 253 252 251 249 247 247 247 247 246 246 245 246 246 246 246 247

GFSWCAN_sfc_thetae_102.txt.gz
Theta_e
295 295 295 296 296 297 299 299 298 298 299 300 300 301 301 300 299 296 292 295 291 283 284 285 285 283 287 290 287 288 289 289 288 286 284 281 282 282 283 285 285 284 284 284 283 282 280 290 288 288 293 291 293 292
294 295 295 295 296 297 298 298 298 298 298 299 299 300 301 300 299 296 291 295 294 286 285 288 287 288 286 286 288 287 289 291 293 287 284 283 280 282 284 282 286 284 289 286 288 288 293 291 293 292 292 293 292 293
293 295 296 296 296 298 298 298 297 297 297 298 298 299 299 299 298 296 292 293 292 285 285 286 284 288 289 289 290 289 291 291 289 289 286 285 284 285 283 284 286 286 287 289 288 288 290 290 290 291 292 291 291 292
293 294 295 295 296 297 297 297 297 297 297 297 298 297 297 297 298 296 291 292 291 286 282 283 290 286 290 290 292 291 292 291 291 292 288 286 286 284 285 287 288 288 288 285 287 286 287 288 289 291 290 291 290 290
293 294 294 295 296 296 297 297 296 296 296 297 297 297 297 298 297 294 292 292 291 287 281 283 285 288 289 289 292 293 293 291 291 289 286 283 284 285 284 287 284 286 286 289 289 289 291 288 290 290 290 288 289 289
293 294 295 294 294 295 295 295 295 295 296 296 296 295 295 297 295 290 285 291 292 289 284 280 285 285 286 287 287 288 289 289 288 286 283 283 284 286 285 281 281 281 285 286 288 288 288 287 288 289 288 286 285 284
293 293 293 293 293 293 293 293 294 294 295 296 295 296 296 294 291 286 284 288 292 289 284 280 280 285 285 285 285 285 287 285 287 285 283 282 283 284 281 278 274 274 279 279 282 287 285 284 284 285 285 283 281 280
292 291 291 291 292 292 292 292 292 293 294 295 294 293 295 295 292 287 290 292 289 285 284 278 279 281 285 282 282 284 283 284 282 283 284 282 282 282 271 270 270 270 275 276 276 282 282 281 280 279 281 281 278 277
290 290 290 290 290 291 292 292 292 293 294 293 293 291 287 285 282 285 291 290 286 284 277 276 274 275 283 281 283 283 284 278 283 280 280 280 270 261 263 263 264 264 266 267 271 275 275 274 273 273 274 274 275 274
289 289 289 289 289 290 291 292 293 293 292 291 285 279 275 283 289 286 281 282 279 276 278 274 275 276 280 279 279 280 280 278 275 277 281 270 262 263 263 262 262 262 264 264 275 271 270 269 269 267 265 266 268 268
288 288 289 289 289 289 290 291 291 290 288 280 277 279 283 283 279 275 273 274 271 272 273 274 275 277 281 278 276 278 276 276 275 275 277 272 264 262 260 260 261 260 261 261 263 264 264 264 265 265 263 262 262 263
288 288 289 289 289 289 289 291 290 285 282 282 281 278 276 272 270 271 264 267 267 268 269 273 275 277 279 280 278 276 274 276 271 274 275 264 259 258 258 257 258 258 258 259 260 260 260 260 259 260 259 258 258 259
288 288 288 288 289 289 289 291 291 290 287 281 274 269 270 267 265 263 260 264 265 264 268 270 274 275 278 278 274 275 272 270 274 270 261 258 257 257 256 256 256 257 257 257 257 258 259 258 257 256 256 256 257 257
287 287 287 287 288 288 289 287 286 285 276 268 265 261 261 258 258 258 260 261 264 265 265 267 271 274 273 273 272 271 270 271 270 267 259 257 255 254 255 255 255 255 255 255 255 256 256 257 256 255 254 254 255 256
287 286 286 285 286 287 284 282 278 267 263 259 261 257 258 259 259 259 259 260 262 262 265 268 270 274 269 270 268 269 269 263 261 260 257 255 254 254 254 254 254 254 254 254 254 254 255 255 255 255 254 253 253 254
284 282 282 285 282 283 281 274 267 263 255 255 252 260 258 260 261 259 257 259 260 258 261 265 267 267 265 265 265 259 264 261 258 254 254 255 254 253 253 253 253 253 253 253 254 254 254 254 253 254 255 253 253 253
281 273 283 284 282 277 277 266 262 254 254 254 255 251 251 253 255 255 255 256 258 258 264 264 264 263 265 262 259 253 256 254 253 254 254 254 253 252 252 252 252 252 252 253 253 253 253 254 254 254 253 253 253 253
271 275 282 282 275 271 261 260 258 257 254 255 256 255 253 254 254 255 254 255 254 257 261 260 261 255 253 257 257 252 251 251 252 252 252 252 252 252 252 251 251 251 251 252 252 252 252 253 253 252 251 252 253 254
278 277 280 279 273 262 259 258 258 254 253 253 256 256 254 254 255 254 253 253 252 252 255 254 251 250 250 249 249 249 250 249 249 250 250 251 252 250 250 251 251 251 250 251 251 251 252 251 251 251 251 251 252 253
277 278 277 275 270 261 257 255 256 258 256 256 255 253 253 254 251 250 251 251 251 251 248 248 247 247 247 249 250 249 249 249 247 247 250 252 251 250 250 249 250 249 250 251 251 252 252 253 253 252 252 252 252 253
270 271 272 264 258 255 252 251 253 251 252 253 248 250 252 250 249 248 250 251 251 247 248 248 248 249 250 249 248 246 248 248 248 248 248 248 251 250 250 250 248 248 248 249 249 251 250 251 251 251 250 251 252 252
264 270 260 263 259 255 253 252 253 252 253 248 251 249 248 249 247 248 248 251 248 249 247 248 248 247 246 246 245 245 245 244 245 247 248 248 247 249 249 248 247 248 248 249 249 249 250 250 249 249 249 250 251 251
263 262 257 257 257 255 250 252 251 248 252 250 248 251 248 246 247 250 247 244 246 246 243 243 242 239 242 242 240 242 240 242 246 246 246 246 246 245 245 246 246 246 247 250 248 249 248 248 248 248 249 249 250 250
258 249 249 248 250 246 248 248 249 248 247 246 247 247 247 244 247 250 247 245 248 243 243 241 240 246 244 241 245 246 245 242 244 244 245 244 245 248 247 247 247 247 247 248 247 248 248 248 248 248 248 247 248 248
255 245 247 245 246 247 246 246 246 248 244 241 245 247 246 241 247 246 247 248 245 244 244 240 240 242 244 245 245 245 240 244 246 246 248 245 245 244 247 247 248 249 248 246 246 246 247 247 247 247 247 247 247 247
243 239 243 238 243 244 241 244 240 241 238 244 242 241 239 244 249 248 247 247 245 245 245 245 245 244 244 243 246 246 247 242 241 244 247 245 244 245 247 246 247 250 246 247 247 247 247 248 247 246 247 247 247 247
246 242 239 237 238 238 240 238 237 241 241 243 240 242 244 247 247 250 247 246 248 248 247 246 246 246 248 248 246 246 245 241 245 248 247 245 245 246 247 247 247 250 247 245 245 245 246 247 247 247 247 248 248 247
237 235 242 240 238 233 238 236 238 241 239 238 238 245 247 248 250 250 251 249 245 240 241 242 243 245 246 247 247 245 246 240 241 242 244 246 246 247 246 247 248 253 250 248 247 247 246 246 247 247 247 247 249 250
237 232 234 240 237 238 238 241 240 237 237 235 241 243 244 245 244 243 246 242 236 240 243 247 247 237 241 243 244 244 244 241 244 248 249 252 251 253 247 246 247 247 247 247 249 252 249 247 248 248 248 248 249 250
238 230 238 236 243 245 241 236 235 230 230 232 231 236 239 240 241 239 238 237 242 246 246 244 241 240 246 242 248 247 245 244 245 249 250 253 254 250 245 246 247 248 248 247 248 248 251 251 251 248 247 248 249 249
232 231 237 236 241 237 232 226 225 226 227 227 225 231 237 237 238 241 241 242 244 238 240 247 248 243 243 245 243 244 251 249 246 247 248 250 251 251 251 252 252 251 250 248 248 247 248 248 247 247 247 246 247 247
233 235 240 245 242 232 228 230 230 231 230 231 232 227 233 235 242 249 246 240 240 242 247 246 244 251 250 251 250 250 252 254 253 251 248 249 250 250 251 251 251 250 249 248 248 248 248 247 247 247 247 247 247 247
232 229 231 235 240 241 236 235 237 239 235 235 237 235 235 239 248 252 246 246 251 251 254 253 254 252 250 250 252 253 253 253 253 256 257 257 255 255 255 255 254 253 250 249 248 248 247 247 247 247 247 247 248 248

GFSWCAN_sfc_thetae_105.txt.gz
Theta_e
295 296 297 298 299 299 299 299 299 299 299 301 302 302 301 300 299 298 294 298 293 287 285 285 286 285 289 290 286 287 287 288 287 286 286 285 285 285 286 287 286 285 285 285 284 284 281 293 291 289 294 293 293 294
296 296 296 297 298 299 299 299 299 299 300 301 301 301 300 299 298 298 292 296 296 289 286 289 289 289 287 286 286 289 288 289 291 289 287 286 284 284 285 282 290 285 290 288 289 290 295 294 296 295 295 295 294 295
295 296 297 297 298 299 299 299 299 299 299 300 300 300 300 299 298 298 294 294 292 285 285 287 286 289 290 289 288 288 293 293 291 292 289 287 284 289 284 287 287 290 291 290 289 290 292 293 292 294 295 294 294 295
294 295 295 297 298 298 298 298 298 298 298 298 298 297 298 298 298 297 293 293 291 287 284 284 291 287 291 291 289 289 290 294 292 292 289 287 286 287 289 289 290 289 290 287 287 288 290 290 293 293 293 293 291 292
294 295 295 297 297 297 298 297 297 298 297 297 297 298 298 297 296 294 294 293 293 287 283 285 286 289 290 290 291 291 291 292 292 289 287 285 286 287 287 290 285 284 284 288 290 291 293 292 293 293 292 291 290 288
294 295 296 297 297 297 297 297 297 297 297 296 296 297 297 297 294 292 285 291 292 291 284 282 287 286 287 289 288 289 290 289 290 289 285 285 285 286 287 281 275 276 278 282 285 289 290 291 292 293 290 288 288 288
294 294 294 294 295 295 295 295 296 296 296 296 296 295 295 294 295 286 284 289 292 292 284 283 283 285 285 286 286 285 286 285 288 286 285 284 284 286 284 278 270 270 272 278 280 284 285 287 285 287 285 283 281 280
293 293 293 293 293 293 294 294 295 295 295 294 295 296 295 294 294 288 291 293 291 288 285 281 281 284 285 283 283 285 284 285 283 284 286 283 279 277 268 267 267 266 269 273 272 279 283 282 281 281 282 281 278 278
291 291 291 292 293 293 293 293 294 294 294 293 293 292 291 288 284 285 291 291 290 286 281 279 276 277 285 283 284 284 285 279 284 281 279 276 266 259 261 262 262 262 263 264 268 274 274 274 273 273 274 275 275 274
290 290 291 291 291 292 293 294 293 293 292 291 290 286 282 284 288 287 287 284 283 281 282 277 278 278 281 282 280 282 282 280 277 277 277 266 260 262 261 261 261 260 261 263 269 268 266 269 268 267 266 267 268 269
290 290 290 290 290 291 291 291 291 290 290 286 284 282 286 285 285 282 277 276 275 276 275 276 277 278 282 278 278 279 278 278 276 276 277 268 261 261 260 259 260 259 260 261 263 263 263 264 264 265 263 263 263 264
289 289 289 290 289 290 292 292 291 288 284 285 284 283 284 279 278 275 270 272 272 270 272 273 276 277 280 281 279 278 276 278 272 277 272 263 260 258 257 257 258 258 258 258 260 260 261 260 260 261 260 260 261 261
288 288 289 289 290 290 290 290 290 290 288 285 280 274 275 271 267 267 267 269 270 267 269 270 275 277 280 280 277 277 274 272 276 268 260 259 258 257 256 256 256 257 257 257 257 259 260 259 258 257 258 258 260 260
287 287 287 288 288 288 286 285 284 283 279 271 271 265 266 264 263 262 263 264 266 266 265 266 272 275 276 275 274 273 272 273 272 265 259 258 255 255 255 255 255 255 256 256 256 257 258 258 258 257 256 256 257 257
286 287 287 285 285 286 283 280 277 270 268 264 268 262 262 262 263 263 262 262 264 262 264 269 273 276 272 272 271 272 271 263 261 259 257 255 255 254 254 254 254 254 255 255 256 256 257 257 258 257 256 256 256 256
283 282 283 286 283 282 280 274 270 268 262 262 258 264 262 264 264 262 260 261 261 259 262 265 272 272 267 267 266 259 265 261 257 256 255 256 255 254 253 254 254 254 255 255 256 256 256 256 255 256 258 256 256 255
281 277 284 285 281 277 277 270 267 261 261 262 259 257 257 258 258 259 258 258 259 259 267 270 267 264 267 265 259 255 256 255 254 255 255 255 253 253 253 254 254 254 254 254 255 255 255 256 257 257 256 256 255 256
275 278 282 282 276 273 265 266 265 264 260 260 261 259 258 258 258 258 256 257 256 260 265 262 265 257 256 261 258 254 254 253 254 254 254 254 254 254 253 253 253 253 253 254 254 255 255 255 256 255 255 255 256 258
278 279 279 279 275 267 265 262 264 260 258 259 260 260 259 259 258 257 257 257 256 257 261 260 255 254 252 253 253 253 253 252 251 252 252 253 253 252 252 253 253 254 253 253 253 254 254 254 254 254 254 255 255 256
277 278 278 275 273 268 263 260 264 264 261 260 259 258 258 258 256 257 258 256 258 257 252 252 250 251 252 252 252 252 252 252 250 251 254 255 254 252 253 252 252 252 252 254 254 254 255 255 256 255 254 253 254 255
273 273 273 269 264 260 257 257 258 257 259 258 255 256 259 258 257 255 255 257 255 252 252 252 252 253 253 252 252 251 251 251 251 251 251 251 254 252 252 253 252 252 252 253 253 254 254 254 253 253 253 253 254 254
267 271 266 268 264 261 257 256 257 258 259 256 258 257 255 255 254 254 253 256 253 253 252 252 252 251 251 251 250 249 250 248 249 249 250 250 250 252 252 252 250 251 252 252 252 252 253 254 253 252 252 253 253 253
265 265 261 261 261 259 254 258 257 254 258 255 259 258 255 255 254 254 253 253 254 252 250 250 249 246 247 247 244 246 246 246 249 251 252 251 251 251 250 250 251 249 250 253 254 252 252 252 251 251 252 252 252 252
260 252 252 252 254 253 255 253 256 256 254 252 255 255 253 250 250 258 255 255 256 252 250 249 247 251 250 246 251 252 251 248 250 250 251 249 250 252 252 251 252 251 251 252 251 251 251 251 251 251 251 250 250 250
258 248 250 249 251 252 251 252 251 253 251 249 253 253 251 247 255 255 255 257 255 255 254 250 249 250 251 253 253 252 246 249 251 251 252 251 251 250 252 253 253 253 253 250 250 250 251 251 250 250 250 250 249 249
247 243 247 246 248 250 247 252 248 246 247 251 249 249 248 253 255 254 256 257 255 255 255 254 254 253 253 250 252 253 253 248 248 248 252 251 249 250 250 250 251 253 252 251 251 251 251 251 250 250 250 250 250 249
250 247 244 243 244 245 247 246 245 248 249 249 249 249 252 252 253 257 257 255 255 256 255 255 253 253 254 255 254 252 251 248 248 252 252 250 250 250 250 250 250 254 252 250 249 249 249 250 250 250 250 251 251 251
244 242 246 244 244 242 244 245 247 246 248 245 243 249 251 253 255 259 258 257 255 252 251 251 251 251 252 253 253 251 251 249 247 247 247 249 249 249 249 249 250 254 252 252 251 250 249 249 249 249 250 250 250 252
245 239 240 243 243 247 246 248 249 247 244 245 249 251 252 253 254 254 255 251 246 248 250 253 254 248 248 248 249 249 249 249 249 250 252 255 257 257 251 250 250 250 250 250 252 254 252 250 250 249 250 250 251 252
243 236 245 243 246 251 247 242 244 238 237 238 236 240 244 245 246 248 247 247 248 251 253 253 251 249 251 250 253 252 251 249 249 252 253 255 258 257 252 252 252 253 252 251 251 251 253 253 252 250 250 250 250 250
238 239 244 245 247 244 238 234 233 233 234 236 234 237 243 242 242 246 246 249 250 249 248 251 252 250 249 250 250 251 254 255 250 250 251 253 254 254 254 254 254 254 254 253 252 251 250 250 249 249 249 248 249 249
241 242 244 248 247 239 236 238 239 240 239 238 241 235 239 242 248 255 251 247 247 250 251 252 252 256 255 255 255 255 255 256 255 254 252 252 253 253 254 254 254 253 252 251 251 250 250 249 249 249 249 249 249 249
239 238 239 242 245 245 241 240 243 244 241 243 245 242 243 245 249 255 251 249 255 257 258 258 257 257 254 253 253 255 255 255 255 257 258 258 256 257 256 256 256 256 254 253 252 251 250 249 249 249 249 249 249 249

GFSWCAN_sfc_thetae_108.txt.gz
Theta_e
296 298 299 299 300 299 298 298 299 300 301 303 302 302 301 301 300 297 293 296 291 286 284 286 287 286 288 289 285 286 286 286 284 283 284 284 282 283 281 285 285 284 283 283 280 273 276 288 288 287 289 286 287 291
297 297 298 299 299 300 299 300 299 300 301 302 302 301 300 300 299 298 290 296 295 287 286 289 288 289 288 287 287 287 287 286 289 286 285 285 283 279 279 281 288 281 286 284 284 282 289 291 289 289 291 289 290 290
296 297 297 299 299 299 299 300 300 300 301 301 301 301 300 300 299 297 292 294 291 285 284 285 285 289 291 289 290 285 289 291 290 290 287 286 283 283 280 283 284 284 285 283 282 284 286 287 288 289 291 290 291 291
295 296 297 299 299 299 299 299 299 299 299 299 299 299 299 299 298 297 291 293 291 285 280 283 291 287 292 291 290 288 288 291 292 290 286 286 284 285 285 285 285 283 285 281 282 282 283 284 286 289 289 289 289 289
295 295 297 298 298 298 298 298 298 298 298 298 298 298 298 297 296 294 293 292 292 287 280 279 283 288 290 290 289 290 289 287 289 286 285 283 284 283 282 284 275 276 275 280 279 282 285 287 289 289 287 287 285 285
295 296 297 298 298 298 298 298 297 297 297 297 298 297 297 296 294 290 284 291 291 290 283 275 283 285 286 288 288 289 289 288 288 286 284 283 284 284 283 273 271 270 271 276 275 277 285 287 286 287 285 283 283 282
295 296 297 297 297 297 297 297 297 297 297 297 296 296 296 295 291 286 283 288 291 289 284 275 278 283 284 285 285 285 285 285 285 285 284 283 281 283 276 270 267 267 267 273 272 275 282 280 279 280 280 279 278 277
294 295 295 295 295 296 296 296 296 295 296 297 296 295 294 295 292 286 289 292 290 284 284 275 277 280 284 282 282 285 284 285 283 284 284 280 275 273 262 264 264 263 266 269 267 273 276 276 276 276 278 277 275 274
293 293 294 294 294 294 295 295 295 294 294 294 292 292 289 285 283 284 291 291 288 282 274 274 273 273 283 282 284 284 284 278 283 279 274 272 263 255 259 260 260 260 261 261 265 270 270 269 268 268 269 270 271 271
292 292 292 292 293 294 294 293 293 292 292 292 287 282 276 280 289 287 283 279 277 276 277 275 277 275 280 281 279 280 282 279 275 275 273 263 257 260 260 259 260 259 260 261 262 264 263 263 265 263 262 263 265 266
291 291 291 291 292 292 292 292 292 291 291 283 278 276 282 287 282 276 273 270 270 271 269 273 276 275 280 276 277 279 277 278 274 273 272 264 258 259 258 258 259 258 259 260 261 262 262 262 261 261 260 260 260 260
290 291 291 291 291 291 291 293 292 285 283 283 281 280 279 276 272 267 266 269 266 263 269 268 272 275 278 280 278 278 276 277 269 274 267 259 257 257 256 256 257 257 257 257 259 259 260 260 260 260 259 259 260 259
289 289 289 289 289 288 288 289 290 290 287 281 274 269 270 268 262 260 262 262 263 264 266 266 269 275 277 279 276 276 273 270 275 263 257 256 256 255 255 255 255 256 256 257 257 258 259 259 258 258 258 259 260 260
288 287 287 287 288 286 285 284 285 282 275 268 266 262 263 257 258 257 257 260 263 264 261 262 266 272 274 273 274 271 271 271 267 259 256 255 254 254 254 255 254 254 255 256 256 257 257 258 258 258 257 258 258 258
286 287 287 285 285 284 282 281 278 271 267 262 264 259 259 260 261 261 261 262 262 261 261 263 268 273 269 269 270 270 269 260 258 257 255 255 255 254 253 253 254 253 254 255 256 256 256 257 257 258 258 257 257 258
283 283 283 285 282 282 279 274 270 267 262 259 255 260 259 261 260 260 259 259 259 257 259 260 262 265 264 263 261 257 262 258 256 254 255 255 254 254 253 253 254 254 254 254 255 255 256 256 256 257 259 257 257 257
281 276 283 284 280 278 278 268 265 260 259 259 258 259 258 259 258 258 257 257 259 256 259 262 260 257 264 260 256 254 254 254 253 254 255 254 253 253 253 253 254 254 254 254 255 255 256 257 259 257 256 256 256 258
273 276 281 281 274 271 263 265 263 261 259 260 260 258 257 257 256 255 255 257 254 255 257 254 259 252 251 256 255 253 253 254 255 255 254 254 254 254 253 253 254 254 254 254 255 256 256 255 256 255 255 255 256 257
277 278 279 279 273 265 261 260 262 258 257 259 261 259 257 256 255 256 256 256 253 253 254 254 249 247 250 252 252 253 252 252 251 252 253 254 254 253 253 254 254 254 253 253 254 254 254 255 254 254 255 255 254 256
278 279 279 276 274 264 259 257 262 261 257 257 256 253 253 254 254 255 254 256 254 251 249 248 247 248 249 249 250 250 251 252 250 250 254 254 254 252 252 252 252 252 252 253 254 256 254 255 255 254 253 253 253 253
272 272 274 267 263 259 255 254 255 253 254 253 252 253 254 254 251 252 252 255 252 250 249 248 249 249 249 247 248 248 249 250 249 248 248 249 252 251 251 251 251 251 250 252 252 253 253 253 252 251 251 251 252 253
265 272 264 268 262 258 255 255 254 255 254 251 253 252 249 248 249 250 252 253 249 247 246 246 245 244 244 244 243 242 243 242 243 246 249 249 247 249 249 249 248 248 249 250 250 251 251 251 250 249 249 250 251 251
265 266 260 260 259 256 251 255 252 252 251 251 253 251 249 248 248 250 249 246 247 246 244 243 242 241 241 241 239 240 240 239 241 244 245 247 247 248 249 249 247 247 248 251 250 248 250 252 251 250 249 250 249 250
260 252 252 251 253 249 251 251 252 251 249 249 249 247 247 244 248 252 249 247 248 245 243 243 241 243 242 240 241 244 243 242 241 243 245 242 244 245 246 247 247 249 250 250 248 249 249 249 250 249 249 248 248 248
257 248 249 247 249 249 249 248 248 249 245 245 246 247 246 243 249 248 249 248 247 246 246 242 242 243 243 243 245 245 242 243 243 243 245 245 243 244 246 247 248 249 248 244 244 245 246 245 245 246 246 246 247 248
245 241 244 242 244 245 243 245 243 243 242 245 244 244 242 245 249 250 249 249 247 247 246 246 246 245 244 246 245 245 246 242 241 241 245 246 245 244 245 246 249 251 246 247 244 245 247 247 247 247 248 248 249 249
248 244 241 240 241 241 242 241 241 242 243 244 243 244 246 249 248 251 249 248 249 248 248 248 249 248 248 247 247 246 244 245 246 247 245 244 247 248 249 248 248 251 245 245 245 245 247 248 249 249 249 250 250 250
241 239 245 241 240 239 240 240 242 243 242 241 240 245 249 250 251 251 252 250 246 245 245 245 245 247 247 250 247 245 245 245 242 244 246 248 248 249 249 250 251 255 252 250 250 249 248 248 249 249 249 249 250 251
240 237 239 242 240 242 242 244 243 241 239 239 243 245 247 248 247 246 247 245 241 243 244 244 247 243 243 245 246 247 247 244 245 246 249 253 250 252 250 249 249 249 249 249 251 255 253 251 251 251 251 251 251 252
240 235 241 239 244 247 243 237 238 233 234 235 234 238 241 243 244 243 242 242 244 247 248 247 245 244 247 245 247 248 247 248 249 250 250 254 255 250 246 248 249 251 251 251 251 251 254 254 253 250 249 249 249 250
237 236 240 241 242 239 235 231 230 230 231 231 231 233 239 240 241 243 245 247 247 244 244 248 249 247 247 247 246 245 251 251 250 250 251 253 253 253 253 254 254 254 254 253 253 252 251 251 250 250 249 249 249 249
238 238 242 246 244 235 232 234 234 234 234 233 235 232 235 237 243 251 248 245 243 245 249 249 250 255 254 254 252 252 254 252 250 253 251 252 252 252 253 253 253 253 252 252 251 251 251 249 250 250 250 250 250 250
236 235 236 239 242 243 238 238 239 239 237 237 239 238 237 240 247 252 248 249 253 254 257 256 256 254 251 251 252 252 253 253 253 258 259 258 257 257 256 257 257 256 255 254 254 253 252 252 251 251 251 251 252 252

GFSWCAN_sfc_thetae_111.txt.gz
Theta_e
297 300 299 299 299 299 300 301 301 303 304 303 303 302 303 301 300 292 292 291 286 279 280 286 287 287 288 289 284 286 286 285 285 282 284 284 283 284 283 283 286 284 282 282 279 272 277 287 292 289 290 287 287 290
298 299 300 299 299 299 300 299 300 303 303 303 302 301 301 300 299 295 287 293 291 283 283 288 288 290 288 288 287 287 285 286 288 285 284 285 283 283 283 281 287 283 286 283 284 282 288 288 288 290 289 288 288 288
297 299 300 300 300 298 299 300 299 301 301 301 301 301 300 300 299 295 290 290 287 285 284 285 284 289 291 290 290 287 287 290 290 291 287 285 280 283 282 282 283 284 285 285 283 282 283 286 288 290 290 289 288 288
297 298 299 299 300 299 299 299 300 300 300 300 300 299 299 299 298 295 289 290 287 285 279 282 291 287 291 291 289 289 288 289 290 290 286 285 284 284 283 285 283 278 282 281 279 281 283 286 287 288 288 288 287 286
296 298 299 299 300 299 299 299 299 299 299 299 298 298 297 297 296 293 291 291 291 281 275 281 283 286 288 290 289 289 288 286 285 285 284 284 284 284 284 280 269 271 269 275 278 276 277 285 283 287 286 285 284 284
297 299 299 298 299 298 298 298 298 298 298 298 298 297 296 296 295 288 283 286 288 290 283 277 280 284 283 288 288 288 288 286 285 285 285 284 285 284 277 268 268 268 269 271 271 273 276 280 280 281 281 280 281 281
297 298 298 298 298 298 298 298 298 297 297 297 297 296 296 295 289 284 283 287 291 289 281 275 272 279 281 285 285 285 285 285 284 285 284 283 279 279 270 265 264 265 265 270 269 272 278 275 275 278 278 278 277 275
296 297 297 297 297 296 296 297 297 297 296 295 295 296 296 294 290 282 285 292 288 284 276 269 273 276 281 277 279 285 283 285 283 284 280 276 270 265 257 261 262 262 264 267 265 271 272 273 271 270 273 275 273 272
294 295 296 296 295 295 295 295 294 294 293 293 293 293 285 282 276 278 291 290 285 278 268 266 265 267 279 278 281 283 284 278 282 276 271 268 258 251 256 257 258 259 259 260 263 267 267 266 266 264 265 266 268 268
293 293 293 293 294 293 293 293 293 293 293 292 284 276 271 274 289 287 277 273 273 270 270 273 269 274 277 276 275 279 281 278 273 273 270 259 255 259 258 258 258 258 259 260 261 262 262 262 263 262 260 261 262 263
292 292 291 291 292 293 293 293 292 290 289 278 272 270 277 286 276 268 266 266 264 264 265 266 269 272 278 270 272 279 277 278 272 272 268 259 255 257 257 257 258 258 259 259 260 261 261 261 262 261 260 260 260 260
291 291 290 290 290 291 293 293 290 282 277 278 276 274 271 268 264 266 260 263 262 259 263 262 267 272 273 276 274 276 275 275 268 269 264 256 257 256 255 255 256 257 257 257 258 259 259 259 260 260 260 260 260 261
288 288 289 289 288 289 289 290 289 289 283 273 267 263 265 260 259 254 254 257 256 260 261 261 261 267 272 276 273 274 271 269 271 261 256 255 256 255 254 255 255 256 256 257 257 258 259 258 258 258 258 259 260 260
288 288 287 288 287 286 286 284 285 279 270 263 259 257 255 251 251 252 252 254 261 263 259 260 257 264 266 269 273 270 270 269 263 259 256 255 254 254 254 254 254 254 255 255 256 257 257 258 258 257 257 258 259 258
286 286 287 285 286 284 283 281 278 266 261 256 258 253 254 257 257 256 257 259 260 259 258 259 260 267 262 265 267 269 266 258 257 257 255 255 255 254 253 253 254 253 254 255 255 256 256 257 257 258 257 258 258 259
284 281 280 285 282 283 280 272 266 262 258 255 254 256 255 254 254 256 256 257 259 258 257 258 255 259 259 258 260 256 260 257 255 253 255 255 254 254 253 253 254 254 254 255 255 256 256 256 257 257 258 257 258 258
280 270 283 284 281 278 279 264 262 257 255 255 257 254 254 254 255 257 256 257 259 256 260 256 258 255 259 257 254 253 254 254 253 254 255 255 253 253 253 253 254 254 254 254 255 256 256 257 258 257 256 256 257 259
268 273 282 281 270 269 260 260 258 258 258 258 255 254 254 255 254 255 255 257 256 255 257 254 256 250 248 253 253 253 253 253 255 255 255 254 254 254 254 253 254 255 254 254 255 256 256 256 256 255 256 256 257 257
273 277 280 279 270 261 260 260 259 256 254 253 255 255 254 252 253 255 254 256 255 254 253 251 248 244 247 249 251 252 252 251 251 252 253 254 254 254 253 254 254 254 253 253 254 254 255 255 255 255 255 255 254 255
278 279 279 276 271 261 258 256 257 257 252 253 249 250 249 250 251 249 251 254 252 249 249 248 246 247 247 248 248 249 251 251 249 249 252 253 253 250 250 250 252 252 252 252 253 255 253 254 254 254 253 253 253 253
271 271 274 264 259 256 253 251 253 250 250 252 247 249 251 249 247 247 250 251 251 249 250 247 245 245 245 245 245 245 246 248 248 248 247 248 250 250 250 249 248 247 247 248 249 251 250 250 250 250 249 250 251 251
263 272 261 266 259 256 254 252 252 251 252 248 251 247 247 247 246 247 249 251 247 246 244 244 243 242 241 242 242 240 241 239 239 242 247 248 247 248 249 249 248 249 248 248 247 249 250 249 248 247 246 249 249 250
265 265 259 259 259 256 251 252 251 250 252 251 249 250 248 246 246 250 248 243 245 244 241 241 241 238 240 239 237 239 237 239 241 241 242 243 245 246 247 249 246 246 248 250 248 248 249 251 251 250 249 248 248 248
260 252 252 250 252 248 249 250 249 249 248 248 247 247 247 244 248 251 249 243 246 241 241 241 238 241 240 239 239 241 242 240 239 239 242 240 243 245 243 245 245 247 249 250 248 246 247 247 248 247 246 246 246 248
258 248 249 247 247 249 247 247 247 249 244 242 246 247 247 242 248 247 249 249 244 243 243 238 238 240 242 240 242 243 239 242 242 242 244 243 241 242 245 245 247 249 246 243 245 244 246 242 244 245 246 246 247 248
245 240 245 238 243 246 241 245 241 243 240 244 244 242 240 244 249 251 248 247 245 245 244 245 245 242 242 245 244 243 245 241 240 241 245 243 244 244 244 245 248 251 245 247 244 244 246 246 246 245 247 248 249 248
249 245 240 237 239 239 241 239 238 241 242 245 242 243 244 249 248 252 248 247 249 249 248 248 248 249 249 246 245 246 242 243 247 248 244 243 245 246 248 249 249 251 244 243 244 244 246 248 249 249 249 250 250 250
242 239 248 242 240 237 241 238 241 245 243 239 240 246 248 251 253 253 253 250 246 243 243 242 245 248 248 249 247 244 244 241 241 243 246 249 249 249 248 250 251 255 253 250 249 249 247 248 249 250 250 250 251 252
241 235 239 243 239 240 242 245 245 241 240 240 245 245 248 248 247 246 247 244 239 242 245 247 249 241 243 244 244 245 246 243 245 247 248 252 249 253 249 248 248 249 249 249 252 255 254 252 252 251 252 252 253 253
241 234 240 238 244 248 244 238 238 232 232 235 234 238 241 242 243 242 241 240 244 248 250 248 245 246 248 245 247 247 246 247 249 251 251 253 254 250 245 247 248 250 250 250 251 252 254 254 253 251 249 249 249 250
235 235 240 239 243 239 235 230 229 229 230 230 229 233 238 239 241 243 245 248 249 242 244 247 247 246 246 247 245 245 251 250 250 250 252 253 253 251 252 252 252 251 250 253 253 253 252 252 251 251 250 250 250 250
236 238 242 247 245 235 231 233 233 233 233 232 234 230 234 236 243 251 247 245 244 245 249 250 249 254 253 254 250 252 253 249 249 252 250 252 252 253 253 253 253 252 252 251 251 251 250 249 250 250 250 251 251 251
236 235 235 238 242 243 238 238 240 241 237 237 239 238 238 241 248 253 248 249 253 255 256 254 255 251 251 252 253 253 253 253 252 257 259 258 256 256 255 255 255 255 254 254 254 254 253 253 253 253 253 253 253 253

GFSWCAN_sfc_thetae_114.txt.gz
Theta_e
300 300 301 302 303 305 306 305 303 302 303 304 304 303 302 301 299 293 289 290 286 279 282 285 287 286 285 282 278 281 283 285 285 281 278 274 276 280 280 283 284 284 283 283 284 281 279 287 294 290 292 286 288 290
299 300 301 302 302 302 304 304 304 304 304 303 303 302 301 300 299 295 288 291 290 284 284 288 288 289 288 288 285 285 282 284 285 283 282 283 283 284 281 278 287 283 287 284 287 285 286 291 287 290 288 288 288 289
299 299 300 301 300 300 303 303 303 303 303 302 302 302 301 300 299 294 288 288 287 283 284 283 284 289 291 290 291 288 287 291 290 291 286 286 283 282 280 280 284 285 282 286 285 283 282 284 287 287 289 288 287 288
299 299 299 300 299 299 299 302 302 302 301 300 300 300 299 298 298 294 287 287 285 279 273 279 291 287 291 291 290 290 288 290 289 290 285 285 283 285 282 282 282 273 275 277 282 280 282 284 281 282 286 286 286 285
299 299 299 300 300 300 300 300 300 300 299 299 299 299 298 297 295 290 287 287 287 281 274 280 283 284 286 290 289 289 288 286 285 284 283 283 285 284 283 277 266 268 265 269 274 272 273 280 280 281 281 281 282 283
299 299 300 300 300 299 298 299 299 298 298 298 298 297 297 296 294 285 280 285 288 286 277 271 279 283 283 287 288 288 288 286 285 284 285 285 284 281 276 265 265 265 266 267 267 270 270 275 278 278 278 277 277 279
299 299 299 299 299 298 299 298 298 297 298 297 298 297 297 295 289 283 279 286 291 286 275 276 272 278 281 284 285 285 285 285 284 285 283 281 270 272 266 261 261 261 262 264 266 267 275 273 271 273 277 276 275 274
297 298 298 297 298 298 298 297 297 297 297 297 297 296 295 294 290 282 284 292 287 279 273 267 270 272 280 274 275 285 283 284 283 281 275 271 263 262 255 258 259 259 260 264 261 264 269 271 269 268 270 272 270 270
296 295 295 295 295 295 295 294 294 294 294 295 294 291 285 281 278 277 291 289 281 277 266 266 267 266 277 276 278 278 283 278 280 273 267 265 257 251 255 256 256 257 257 258 260 265 264 265 265 264 265 265 267 267
293 293 294 294 294 294 294 294 293 293 293 292 283 277 274 275 288 285 276 272 271 266 266 271 270 270 277 274 270 274 279 276 272 270 266 258 255 258 257 257 257 257 257 258 257 259 259 260 263 262 261 262 263 264
291 291 292 293 294 293 293 292 291 290 288 277 270 272 278 283 276 268 264 265 262 261 262 261 266 270 276 268 267 277 272 275 269 268 264 257 255 257 257 256 257 257 257 258 258 259 260 260 260 262 262 261 261 262
290 290 290 291 291 292 291 292 290 281 274 276 275 273 270 266 265 264 254 259 259 257 259 258 261 267 270 276 271 272 270 271 264 267 262 256 257 256 255 255 255 256 256 256 258 258 259 259 258 259 260 260 261 262
289 289 289 289 289 289 289 289 288 287 279 272 267 262 264 258 259 254 251 255 254 258 258 258 258 262 267 274 268 268 265 265 268 260 256 256 256 255 255 255 254 256 256 256 256 258 258 258 258 258 258 259 260 260
288 288 287 288 287 286 286 284 284 278 268 261 259 257 254 251 250 249 250 250 257 260 257 259 256 258 261 266 266 262 265 265 259 257 256 255 254 254 254 254 254 254 255 255 255 256 257 258 258 258 258 258 259 259
286 286 286 285 286 285 283 281 278 263 260 255 257 252 252 254 254 253 253 252 256 257 258 259 260 265 257 259 260 262 259 253 254 255 253 254 254 254 253 253 254 254 254 254 255 255 256 257 258 258 258 258 259 259
283 281 280 285 283 283 280 271 264 260 256 255 254 253 251 252 252 253 252 254 258 258 258 259 258 258 256 253 255 250 255 255 254 249 252 255 254 254 253 253 254 254 254 255 255 256 256 256 257 257 258 257 258 258
280 268 283 284 281 277 278 263 261 256 255 254 253 248 249 249 252 253 254 257 260 257 260 260 260 255 257 253 249 249 251 250 250 251 253 254 254 254 254 254 254 254 254 255 255 256 256 257 258 257 256 256 258 258
268 272 282 281 269 269 259 259 258 257 254 254 255 252 252 252 252 252 253 257 257 256 257 256 259 253 252 251 249 249 250 250 253 253 255 254 254 254 254 253 254 254 254 254 255 256 256 256 256 255 256 256 257 256
275 277 279 279 270 261 260 259 258 254 250 249 250 250 249 249 250 253 252 254 255 253 253 254 253 249 249 249 246 248 249 250 251 252 253 254 254 253 253 253 253 254 253 253 254 254 255 255 255 255 254 254 254 254
278 279 279 275 271 262 258 255 255 256 251 252 248 248 247 248 248 244 247 250 251 250 251 250 247 246 248 249 248 248 248 249 248 249 253 253 252 250 250 249 251 251 251 252 252 254 253 254 254 253 252 251 251 251
271 271 273 264 259 256 252 250 252 250 249 251 246 248 250 247 246 245 246 247 250 249 250 247 247 248 245 245 246 246 248 248 247 247 247 247 247 247 249 248 247 246 247 248 248 250 250 249 250 251 249 249 248 249
262 272 261 265 259 256 254 251 252 250 251 248 249 246 246 248 246 246 247 251 246 246 244 244 243 243 243 244 244 241 241 239 238 241 245 245 245 246 245 244 242 243 243 246 246 247 248 249 248 248 246 248 248 247
265 265 259 259 259 256 251 251 251 249 252 251 248 250 248 245 245 249 249 242 245 244 240 240 240 237 240 237 236 238 237 238 240 241 242 242 243 243 244 247 243 242 246 249 244 243 246 248 248 247 246 247 245 248
260 251 251 250 252 249 248 249 248 248 247 247 246 248 248 243 246 250 250 243 246 239 241 241 238 241 240 239 240 240 240 240 239 238 239 237 241 245 242 245 243 245 248 249 246 247 247 247 247 245 246 245 245 246
259 249 249 248 245 249 247 247 247 249 245 240 246 248 247 241 248 247 250 249 243 242 241 236 237 240 244 241 241 242 238 242 242 242 244 243 240 241 244 245 247 248 246 242 244 244 245 242 242 244 245 245 247 247
248 242 246 239 245 248 242 247 242 243 240 245 244 241 239 244 249 252 249 249 246 246 244 246 247 242 241 244 244 243 247 243 240 241 246 244 245 245 245 245 248 251 246 247 245 244 247 247 246 246 248 248 249 248
252 247 240 237 239 239 241 238 237 240 243 247 244 243 244 249 249 253 249 247 249 250 250 250 251 251 251 245 246 245 239 244 247 247 243 243 245 247 248 248 249 251 244 244 243 244 246 247 247 248 249 250 249 249
243 239 249 242 240 236 242 238 241 245 245 239 241 247 249 252 254 254 254 250 247 242 243 242 245 248 248 249 246 243 242 240 241 242 245 248 249 249 249 249 251 255 252 250 248 248 247 247 248 249 250 250 251 251
242 235 239 244 239 240 242 246 246 242 240 241 246 247 249 249 248 245 247 243 238 243 246 246 250 241 243 242 242 244 244 244 246 248 248 251 248 253 249 248 248 247 247 247 251 255 253 253 253 253 253 253 253 253
242 234 242 238 244 249 244 239 238 233 232 234 234 239 241 243 244 241 240 240 244 249 251 248 245 247 249 247 248 247 245 247 249 252 252 254 255 250 245 245 247 249 249 247 249 250 253 253 252 248 248 249 250 250
235 235 241 240 244 240 235 230 229 230 230 230 228 234 238 239 240 243 245 248 248 243 245 248 247 244 246 247 247 246 253 250 249 250 252 253 251 250 252 251 251 249 248 250 251 251 252 252 252 251 251 251 251 251
236 239 243 248 248 236 233 238 237 237 234 233 236 230 235 237 243 251 246 246 245 245 250 251 250 255 253 255 251 253 254 248 249 251 250 251 251 252 253 253 251 250 252 252 252 252 252 251 251 251 251 251 250 250
237 235 236 239 245 246 241 240 243 245 243 241 242 239 239 242 249 254 248 249 251 253 254 254 255 253 254 255 255 254 254 254 253 258 259 258 257 257 255 253 252 253 252 252 252 252 251 252 253 253 253 251 251 251

GFSWCAN_sfc_thetae_117.txt.gz
Theta_e
302 304 304 305 304 306 306 306 305 305 304 304 304 304 302 301 299 292 287 289 285 283 283 282 285 282 282 280 276 282 282 284 283 280 273 270 268 274 272 277 280 280 279 278 279 276 274 287 289 288 292 287 287 291
302 303 305 305 304 303 305 304 304 304 304 304 303 302 302 301 300 295 286 289 290 284 283 284 288 288 289 287 284 282 279 279 284 282 273 270 271 280 277 275 283 279 284 282 283 281 285 287 283 285 285 286 288 288
301 301 304 305 304 303 302 303 303 303 303 303 302 302 301 300 299 294 287 286 285 280 283 282 283 288 291 291 291 285 285 287 286 288 281 281 281 278 272 279 279 284 277 282 283 281 278 280 282 281 282 284 286 287
301 301 301 302 303 303 303 303 302 302 302 301 301 300 299 299 297 294 286 286 284 279 276 282 290 287 291 291 291 290 289 290 290 290 285 284 283 286 280 281 280 273 272 272 281 278 277 281 277 277 279 282 281 284
300 301 300 300 301 301 301 301 301 301 300 299 299 298 298 297 295 291 288 288 287 283 277 280 284 286 287 289 289 289 289 287 285 284 283 282 285 284 282 276 265 266 263 266 272 268 267 271 275 275 276 278 278 280
300 300 300 300 301 300 299 299 299 299 299 298 298 298 297 295 292 287 281 286 289 285 278 273 282 283 282 287 288 288 288 286 285 284 284 285 276 278 277 263 262 263 263 263 262 265 265 267 271 274 273 276 276 277
299 299 300 300 299 299 299 299 298 298 298 297 297 296 296 295 289 283 280 286 291 284 277 276 274 277 281 284 285 285 286 285 285 284 282 275 267 270 264 264 260 261 261 261 264 263 268 269 268 270 271 274 275 273
297 297 297 297 296 296 296 297 298 297 297 296 295 294 295 294 289 280 286 286 285 276 273 270 273 271 278 272 273 284 283 284 282 277 272 267 263 262 255 258 259 259 259 262 259 261 264 266 267 266 268 270 271 269
295 295 295 295 295 295 295 295 295 296 296 295 292 291 284 279 276 278 290 285 279 277 267 267 271 265 275 273 277 274 283 276 277 270 266 265 258 253 255 256 256 257 256 257 258 261 261 262 262 264 263 263 266 267
293 294 294 294 294 294 294 294 294 294 293 290 284 279 273 274 286 285 275 273 269 264 265 266 268 270 276 272 265 269 272 273 268 266 265 258 255 259 258 257 257 257 257 257 255 256 257 257 259 261 261 262 263 265
292 292 292 292 293 293 293 292 291 289 287 276 271 273 276 281 275 268 264 264 260 260 258 260 263 265 274 269 266 276 267 270 267 265 263 258 256 258 258 256 257 257 257 257 257 258 259 258 258 259 260 261 262 263
291 291 290 291 291 291 291 291 290 280 273 276 275 273 270 265 264 264 252 256 258 255 256 255 259 265 266 276 268 270 266 267 262 264 261 257 258 257 256 255 255 256 256 256 257 257 258 259 258 258 259 259 260 261
289 289 289 289 289 289 288 288 288 286 278 272 267 263 266 258 259 255 253 254 254 255 256 256 257 260 263 272 266 264 262 260 262 257 254 256 256 256 255 255 255 256 256 256 256 257 258 258 259 258 258 259 260 260
288 288 288 288 287 286 285 283 284 277 267 261 260 258 256 254 252 249 249 249 254 257 254 257 255 256 258 263 263 260 261 260 253 253 254 252 253 254 255 255 254 254 255 255 255 256 257 258 258 258 258 259 259 259
286 287 287 285 286 285 283 281 277 263 261 256 257 252 252 253 252 252 250 249 254 253 256 256 258 263 256 257 258 259 256 249 252 254 251 252 251 252 253 254 254 254 254 254 255 256 256 257 258 258 258 258 259 259
283 281 280 286 283 283 280 271 264 260 255 255 253 251 249 250 249 249 248 248 255 257 258 257 256 258 255 252 254 249 252 253 253 247 249 252 253 253 253 254 254 255 255 255 255 256 257 257 257 257 258 257 258 258
280 268 283 284 281 278 278 263 260 255 254 252 252 244 247 247 249 250 252 254 258 255 258 258 259 256 256 253 250 248 252 249 246 248 250 253 253 253 254 254 255 255 255 255 255 256 256 257 258 257 255 256 257 258
268 272 282 282 269 269 259 259 257 256 252 250 253 250 247 247 251 251 254 256 256 257 259 259 258 253 251 251 251 249 250 250 249 252 254 254 254 254 254 253 254 255 254 254 255 256 256 256 256 255 255 255 256 256
277 276 280 279 270 261 260 258 257 254 249 246 247 248 247 247 248 250 248 251 254 254 257 256 254 250 251 250 249 248 250 250 251 253 253 254 254 252 252 251 252 253 252 252 253 253 254 255 255 255 254 254 254 254
278 280 279 275 271 262 258 255 255 256 251 252 246 248 246 248 246 242 243 247 250 250 250 249 249 247 249 250 250 250 251 251 247 246 250 252 252 249 249 247 249 248 249 250 251 252 252 253 254 253 252 252 251 251
272 271 273 264 259 256 252 249 252 249 248 251 245 247 249 245 244 244 244 245 248 246 249 245 245 246 245 244 244 246 249 250 248 246 246 245 247 246 246 245 243 243 243 243 245 248 248 247 249 249 248 249 249 249
262 272 261 265 259 255 253 250 251 249 251 247 248 244 245 248 245 245 245 249 246 247 245 245 244 242 241 243 243 241 241 239 238 241 244 243 244 244 244 242 242 244 244 245 244 246 247 247 246 246 245 247 247 248
266 265 259 259 259 256 252 250 251 248 252 251 246 250 248 245 245 248 249 243 246 244 240 240 240 237 240 237 235 238 238 240 241 241 242 242 242 242 242 244 242 241 246 248 244 244 246 248 247 247 245 245 244 247
261 252 252 250 252 250 248 249 248 248 247 247 246 249 249 243 246 249 251 244 247 239 239 240 237 241 239 238 240 241 241 240 238 237 238 237 240 244 240 243 241 243 245 247 244 244 245 245 246 244 244 243 245 246
260 251 250 248 245 249 247 247 247 250 246 240 246 248 247 240 248 248 250 251 243 241 241 235 236 240 244 241 241 241 236 241 242 242 244 243 240 241 245 243 245 247 245 243 244 243 245 242 242 243 244 243 245 247
251 243 247 240 246 250 244 249 244 244 240 245 244 241 238 244 249 252 250 250 246 246 244 246 247 241 241 244 244 244 247 242 240 242 246 243 244 245 244 245 247 252 244 245 244 244 246 246 245 246 248 247 248 248
254 249 241 237 239 240 241 237 237 241 244 248 245 244 245 250 249 254 250 248 250 250 250 251 251 251 251 245 245 244 238 245 247 247 242 242 245 246 248 249 249 251 244 244 243 244 246 247 247 248 248 249 248 248
244 240 250 242 241 236 243 239 242 246 246 240 242 249 250 252 255 255 255 249 245 241 243 243 245 248 247 247 244 244 241 239 240 243 246 250 250 249 249 250 251 256 251 248 249 249 248 249 249 250 250 250 251 252
243 236 240 244 240 240 243 248 247 244 241 242 248 249 250 250 248 246 247 243 238 243 246 247 248 240 241 241 240 241 243 245 247 247 247 251 249 254 249 249 249 248 248 247 251 255 252 251 251 251 251 253 254 254
242 234 243 240 246 250 247 240 240 234 233 235 234 239 242 243 244 241 240 240 245 250 252 250 248 249 252 251 250 247 246 248 251 254 253 255 255 250 246 247 247 248 250 249 250 251 254 254 253 249 249 250 250 249
239 238 243 242 247 243 236 231 231 231 232 231 230 234 239 240 241 243 245 247 247 243 246 248 245 246 250 249 249 249 255 251 250 252 255 256 252 251 252 252 253 252 252 251 251 250 251 250 248 249 249 248 248 249
241 243 246 250 250 240 235 237 241 240 237 236 237 233 237 238 243 251 245 245 245 247 251 254 254 257 254 256 256 257 258 256 254 253 253 253 254 254 255 254 254 253 252 252 251 252 250 249 249 248 249 248 248 247
238 238 239 243 247 248 243 241 244 246 244 241 242 240 240 242 249 254 248 247 249 250 252 254 256 256 257 257 257 258 258 258 258 260 260 259 257 257 257 256 255 255 253 252 251 249 249 249 250 249 248 247 247 247

GFSWCAN_sfc_thetae_120.txt.gz
Theta_e
305 306 306 306 305 306 305 305 304 304 304 304 304 303 302 300 298 292 288 290 288 283 283 284 285 282 282 282 279 281 279 281 278 270 269 268 266 273 270 275 277 275 274 273 274 273 269 283 284 282 280 283 283 286
305 305 306 306 306 305 305 305 304 304 303 304 304 304 303 300 299 296 286 288 291 285 284 289 288 289 288 285 285 281 279 279 283 275 273 270 268 272 267 267 281 274 280 274 278 277 283 280 280 278 278 278 281 280
304 303 304 304 304 304 304 304 304 304 303 303 303 301 300 299 298 293 285 285 285 283 283 285 283 288 291 291 290 284 285 285 284 284 276 272 270 276 273 274 274 280 275 281 280 278 275 278 278 275 275 275 278 279
302 303 303 303 303 303 303 303 303 302 302 301 300 300 299 298 296 293 286 285 284 280 277 281 290 286 291 292 291 289 290 288 290 286 282 277 274 282 277 278 277 269 270 269 274 274 274 277 273 272 271 274 275 277
300 300 301 301 302 302 302 301 300 299 299 299 299 299 298 297 296 292 289 288 286 282 277 281 284 285 286 288 288 291 290 288 286 284 284 283 285 284 281 275 267 264 261 266 271 265 263 266 269 269 270 271 272 274
300 300 300 300 301 300 300 299 299 299 299 299 298 298 297 295 292 286 282 285 289 283 277 275 283 282 284 288 287 287 288 286 286 285 284 278 275 276 278 271 262 262 262 262 260 262 263 264 267 270 268 268 271 273
298 298 298 299 300 300 299 298 298 298 298 298 297 296 295 294 288 284 279 285 290 283 277 275 277 280 281 284 285 285 286 285 285 284 276 271 267 270 266 265 259 260 260 260 262 261 264 264 262 266 267 267 269 273
297 297 296 296 296 297 297 297 296 296 295 295 295 294 294 293 289 280 286 285 284 277 275 271 275 271 278 275 280 284 283 284 279 274 270 267 265 264 262 258 259 259 259 260 259 260 260 262 264 263 265 265 265 267
295 295 295 295 295 295 295 295 295 295 293 293 293 291 284 279 277 277 289 285 278 277 269 268 268 266 275 273 276 280 281 271 272 265 264 265 257 259 256 256 256 257 256 256 257 258 261 259 260 261 261 262 262 264
293 293 293 293 294 293 293 294 293 292 292 291 284 279 276 275 285 284 276 274 269 264 263 262 266 270 276 271 267 272 271 268 263 262 262 256 253 259 258 257 257 257 257 257 254 255 256 256 257 258 259 261 261 263
292 292 292 292 292 292 292 292 290 289 287 275 271 269 274 280 278 270 266 266 261 260 258 258 261 263 272 268 269 276 266 266 261 260 259 250 253 258 257 257 257 257 257 256 257 257 258 258 257 257 258 259 260 261
290 291 290 290 290 290 291 290 289 280 272 274 273 271 269 266 268 267 254 258 257 255 255 255 259 263 263 272 267 267 263 263 260 258 256 251 256 255 254 255 256 256 256 256 257 257 257 258 258 258 258 258 260 261
290 289 289 289 289 288 288 288 287 284 278 273 268 263 266 259 261 255 254 254 253 254 254 254 256 259 262 269 265 261 259 257 259 253 251 252 253 252 252 253 255 256 256 256 256 257 258 258 259 258 257 259 260 260
289 289 288 288 288 286 285 283 283 277 268 261 262 259 256 254 251 248 248 248 253 256 253 257 251 255 255 260 261 259 259 258 251 252 253 248 248 248 251 253 254 254 255 255 256 256 257 257 258 258 258 259 259 259
286 287 287 286 286 285 283 281 277 264 261 256 258 252 252 252 250 248 247 248 253 252 256 254 254 262 254 256 256 256 255 250 252 255 250 249 248 248 248 250 253 254 255 255 256 256 256 257 257 258 258 258 259 259
284 282 280 286 284 283 280 270 263 259 255 254 252 251 248 248 248 247 245 246 251 255 255 254 251 255 252 252 255 250 254 254 255 247 247 248 247 248 249 251 254 254 255 255 256 256 257 257 257 257 258 257 258 258
281 269 283 285 282 278 278 262 260 254 253 252 250 241 245 245 248 247 248 251 257 253 251 254 257 255 254 251 250 248 252 250 247 245 245 247 248 250 251 253 254 255 255 255 255 256 256 257 258 257 255 256 257 257
268 272 283 282 269 269 258 258 257 256 252 248 252 249 245 246 247 247 248 254 254 255 253 253 258 255 255 255 251 250 249 249 250 251 252 252 251 252 252 252 254 254 254 254 255 255 256 256 256 255 255 255 256 256
276 277 280 280 271 261 260 258 257 254 249 245 246 247 246 246 246 247 247 251 254 254 255 256 255 253 253 249 248 246 247 250 252 253 253 252 252 251 251 250 251 252 252 252 253 253 254 255 255 255 254 254 254 254
279 280 279 275 271 262 258 255 254 256 251 251 245 247 245 247 245 241 242 247 251 250 253 251 250 250 251 250 249 251 252 252 250 248 251 252 251 247 248 247 248 247 249 249 250 252 251 252 253 253 252 252 252 252
272 271 274 264 258 255 252 249 252 248 247 250 243 246 249 245 245 245 244 244 248 247 251 246 245 245 243 243 244 245 249 250 249 246 247 248 249 248 244 243 242 241 243 245 245 248 247 246 248 248 246 248 248 248
262 273 261 265 259 255 253 249 251 249 250 246 247 244 245 248 245 244 243 247 247 250 248 247 246 244 242 244 244 243 243 242 241 243 245 244 245 245 244 241 242 242 242 243 242 245 246 247 245 243 243 246 246 246
266 265 259 259 260 256 252 249 251 248 252 251 246 250 248 244 244 246 250 244 247 243 240 240 239 236 240 236 236 237 237 239 241 241 242 242 241 240 241 243 241 241 244 246 243 243 244 246 246 246 244 244 243 246
261 252 252 251 253 252 248 249 247 247 246 247 247 250 249 243 245 248 252 245 247 238 239 239 237 240 239 238 239 242 243 241 239 238 236 237 240 245 243 245 240 243 246 247 243 245 244 244 245 243 243 242 243 244
261 252 251 250 245 250 248 247 247 251 248 240 247 249 247 239 248 248 251 252 244 241 241 234 236 240 246 241 240 240 237 242 243 245 244 244 241 240 243 244 245 247 245 242 243 243 244 241 242 242 244 243 246 248
254 245 249 243 247 252 245 250 246 246 240 246 245 241 237 244 250 253 251 252 248 247 243 246 248 242 242 245 245 244 248 242 241 243 246 245 245 247 246 246 247 252 245 246 244 244 245 245 244 244 246 246 248 247
257 251 241 237 240 241 241 237 237 241 245 249 246 245 246 250 250 255 251 249 251 251 250 252 253 253 253 246 247 245 239 245 248 247 242 243 245 248 249 250 250 251 245 245 244 245 246 246 246 247 247 248 246 247
245 242 253 244 242 236 245 240 243 247 247 241 244 250 251 253 257 256 256 249 245 241 242 243 244 246 246 246 244 244 241 239 241 243 246 248 248 249 248 250 252 256 250 247 248 247 246 247 247 248 248 249 250 249
244 237 241 245 241 241 246 250 249 245 242 244 250 251 252 251 248 246 248 243 237 243 247 247 247 240 241 240 240 241 243 246 249 250 249 252 251 256 251 250 250 249 248 246 252 255 252 251 250 250 250 250 251 253
244 235 244 241 247 251 247 241 241 235 235 236 235 240 244 244 245 241 240 240 245 248 249 248 246 249 251 251 252 249 247 249 254 257 255 256 255 251 246 247 248 249 249 249 251 252 255 255 253 250 250 250 248 247
238 237 243 242 246 243 237 232 231 233 233 233 231 235 240 241 241 242 242 244 245 242 245 248 246 246 250 250 252 252 256 253 252 254 256 258 258 256 256 255 255 255 254 254 253 253 252 251 247 246 246 246 246 246
238 241 245 249 248 238 233 236 237 237 236 235 237 232 236 238 243 250 245 242 242 243 249 250 251 255 253 256 256 258 259 257 255 254 255 255 256 257 258 257 257 256 255 254 254 253 253 252 249 247 247 246 246 245
239 238 237 240 245 246 241 240 242 242 239 239 240 239 238 241 247 252 247 245 248 248 249 251 253 254 255 257 257 258 259 259 259 262 261 260 258 259 258 258 257 257 256 255 255 254 252 250 248 247 246 246 245 245

GFSWCAN_sfc_thetae_123.txt.gz
Theta_e
304 304 304 304 304 304 304 304 304 304 304 304 303 303 303 302 301 294 289 292 290 283 283 285 285 283 283 284 281 283 280 280 276 271 268 267 264 272 269 272 276 274 270 265 263 261 267 280 281 278 277 278 279 278
304 303 303 303 303 303 303 303 303 304 304 303 303 302 302 301 301 298 289 291 293 286 284 288 288 289 288 286 287 282 282 281 282 275 272 271 267 273 265 266 279 273 277 273 275 275 280 279 279 274 273 273 274 273
303 303 303 303 304 303 302 303 303 303 302 302 302 300 300 300 299 296 289 286 290 285 284 285 283 288 290 290 289 282 282 285 284 282 275 270 268 274 272 273 272 278 276 279 277 277 276 276 274 271 271 271 271 273
301 301 301 301 302 302 302 303 303 302 301 300 300 299 299 297 296 293 285 285 285 282 279 280 289 285 289 291 290 288 288 289 290 285 281 277 268 279 276 277 275 268 270 267 274 274 274 272 270 268 269 270 270 270
301 301 300 300 300 301 301 301 301 301 301 300 299 298 298 298 297 292 289 287 286 283 278 280 284 285 288 290 290 289 290 288 285 282 282 271 281 282 279 279 270 263 260 267 269 262 261 266 266 266 266 267 268 268
299 300 300 300 299 299 300 300 299 299 299 299 298 297 297 295 292 288 284 287 287 285 278 275 282 282 285 288 288 287 287 287 286 283 282 276 273 273 269 274 262 262 262 262 259 260 261 262 264 266 264 265 266 267
297 298 298 298 298 299 298 297 297 297 297 298 298 297 295 293 287 281 279 282 288 283 278 276 277 281 281 284 285 286 286 285 282 281 273 273 270 272 268 261 259 259 259 260 261 260 260 261 260 261 264 264 265 266
296 296 296 296 296 296 296 295 295 296 295 295 294 294 294 293 289 279 284 283 284 277 275 274 273 276 280 279 280 283 283 282 274 271 265 265 266 264 260 259 259 258 258 259 257 258 258 260 261 261 262 262 261 263
293 294 294 294 295 295 294 294 294 294 294 294 293 291 284 277 276 275 288 283 276 275 267 266 265 267 277 275 276 277 273 267 267 259 261 263 253 253 255 256 256 256 255 255 257 257 259 257 258 259 259 260 260 261
292 292 292 292 293 293 294 292 293 292 292 291 281 276 273 271 284 283 274 271 266 262 262 258 264 265 274 269 270 269 274 263 258 259 259 254 249 257 256 254 254 253 254 255 254 254 255 255 257 258 258 259 260 260
291 291 291 291 291 291 291 292 290 288 286 274 270 269 273 280 276 268 263 262 259 258 257 259 262 261 271 267 272 275 265 264 261 259 257 248 250 256 253 252 253 253 253 253 254 256 257 257 257 257 257 259 259 260
290 290 291 290 290 290 290 290 289 278 269 272 272 269 267 266 266 266 253 256 256 255 255 256 260 262 263 270 265 265 263 264 261 255 255 252 256 254 250 249 250 251 251 252 254 256 257 258 258 258 258 258 259 260
290 290 289 290 289 288 288 287 286 283 277 271 266 261 264 258 260 257 253 255 254 254 254 253 255 258 260 266 261 261 260 257 257 254 253 254 253 250 247 247 248 249 250 251 253 256 257 258 259 258 257 258 259 260
289 289 288 288 288 287 285 283 282 277 267 260 260 258 254 251 249 247 250 250 255 257 255 256 250 254 253 260 259 260 256 257 251 254 255 250 248 246 246 246 246 249 250 252 254 256 257 257 258 258 258 258 258 258
286 287 287 286 285 286 283 280 276 262 259 255 257 251 251 250 248 247 247 248 252 251 253 252 252 260 253 256 256 255 255 253 254 257 253 249 247 245 246 246 247 248 252 254 255 256 256 257 257 258 258 258 258 258
284 281 280 287 284 282 280 270 262 259 254 254 252 251 247 249 248 246 245 246 250 253 253 252 249 254 252 252 256 254 255 256 257 249 247 246 245 245 246 246 248 251 253 255 256 256 257 257 257 257 258 257 257 257
281 269 283 285 281 278 277 262 260 253 253 252 249 240 244 244 247 245 245 250 255 251 251 249 256 255 253 251 252 248 254 252 247 245 244 245 246 246 246 247 248 250 251 254 255 256 256 257 258 257 256 256 257 257
268 272 283 283 269 268 257 258 257 257 251 247 251 249 243 245 246 245 246 251 251 252 254 254 255 252 252 254 252 251 248 245 245 246 248 247 246 247 248 248 249 250 252 252 252 254 255 255 256 255 255 255 256 256
275 278 280 280 271 261 260 258 257 254 247 244 245 246 245 245 245 246 244 248 250 253 255 255 255 252 252 249 249 244 244 246 248 250 251 250 251 250 248 247 248 248 248 247 248 249 250 251 253 253 253 254 253 254
279 281 279 276 272 262 258 255 254 256 251 251 245 246 245 247 244 240 240 244 248 247 252 254 254 251 250 249 248 250 252 253 250 250 251 251 250 247 246 246 247 246 245 244 245 249 247 249 250 250 249 250 250 252
273 272 274 264 258 254 251 248 252 248 247 250 242 246 248 244 244 244 244 243 248 249 253 247 246 246 243 243 244 245 249 249 248 248 248 247 246 245 243 242 240 239 241 241 241 244 245 244 247 246 245 248 248 249
262 273 261 265 259 255 252 248 251 248 250 246 247 243 245 248 244 243 242 246 248 251 249 247 245 243 242 244 244 242 242 242 240 243 245 244 245 244 243 241 241 242 241 243 241 244 244 244 242 242 242 247 247 247
267 265 259 259 260 257 252 248 251 248 253 252 245 251 249 244 243 244 249 245 248 243 239 240 239 236 240 236 235 236 237 241 242 242 241 242 241 240 240 243 241 242 245 246 243 243 244 245 245 245 243 243 242 244
262 253 253 252 253 252 247 248 247 247 246 247 247 251 249 243 244 248 252 247 248 238 239 239 237 241 240 239 240 243 244 241 239 237 236 238 241 245 243 246 242 244 246 244 242 244 244 244 245 242 242 241 242 243
263 254 252 251 246 251 249 248 248 251 249 240 248 249 247 238 248 248 251 253 245 242 242 235 236 241 247 242 241 241 237 244 245 247 244 244 241 241 245 244 245 247 245 242 243 244 243 240 241 241 243 242 246 248
255 246 251 245 249 253 246 252 248 247 241 247 245 241 237 245 250 254 252 253 249 248 244 247 249 242 243 245 245 244 247 242 241 243 246 245 247 248 246 247 247 252 246 248 245 245 245 245 243 244 245 247 249 248
258 252 242 237 241 242 242 238 237 242 247 250 247 246 247 251 251 256 252 249 251 249 249 252 254 253 253 246 248 246 239 246 247 246 241 243 247 249 251 251 252 252 247 246 246 247 248 248 248 248 248 247 247 247
246 242 254 244 242 237 246 241 244 248 249 243 246 252 252 254 257 256 254 248 243 241 241 242 243 245 246 246 244 245 241 239 242 243 247 249 249 250 250 251 253 256 250 250 250 250 249 250 250 250 250 250 250 246
245 238 242 246 241 241 246 251 250 246 243 245 251 252 254 252 249 246 247 242 237 242 247 247 246 239 241 240 240 240 244 247 251 251 251 254 255 257 251 252 252 252 253 253 255 256 252 252 252 252 252 250 250 247
244 235 245 242 248 252 247 241 241 235 235 237 235 241 244 245 246 241 240 240 245 249 248 246 245 248 250 249 249 248 246 249 254 258 258 259 259 257 255 254 254 254 253 252 253 254 257 257 255 253 252 250 248 245
237 237 244 243 247 243 237 232 231 232 233 232 231 236 241 241 242 242 241 241 242 241 243 246 245 244 248 248 251 253 256 254 253 255 257 259 259 259 258 258 258 257 255 255 254 254 254 254 253 252 249 247 246 244
238 242 246 251 249 238 233 236 236 237 235 236 237 232 237 238 244 250 246 241 241 242 245 246 246 251 250 253 252 256 258 256 256 255 255 256 257 258 259 259 258 257 256 255 255 254 254 254 253 253 250 249 246 244
238 237 237 240 245 246 241 240 242 243 239 239 241 239 239 242 249 253 247 246 249 248 247 248 249 249 250 251 253 255 258 259 260 263 263 261 259 259 259 258 258 257 256 256 255 255 254 254 253 252 249 246 245 244